Wetterdaten: Dienstag, 18.10.2016
Datum Zeit Temp. A. Feuchte A. Luftdruck Regen Wind Richtung Richtung Sonnenschein ET UV Solar Taupunkt Windchill Windben Empfang
18.10.2016 00:00 9,1 C 95 % 1022,1 hPa 0,0 l/m 4,5 km/h (1 Bft) O-NO 66 0 min 0,000 mm 0,0 UV-I 0 W/m 8,3 C 9,1 C 6,4 km/h (2 Bft) 97,87 %
18.10.2016 00:02 9,1 C 95 % 1022,1 hPa 0,0 l/m 3,7 km/h (1 Bft) O-NO 65 0 min 0,000 mm 0,0 UV-I 0 W/m 8,3 C 9,1 C 6,4 km/h (2 Bft) 97,44 %
18.10.2016 00:04 9,1 C 95 % 1022,1 hPa 0,0 l/m 3,2 km/h (1 Bft) NO 51 0 min 0,000 mm 0,0 UV-I 0 W/m 8,3 C 9,1 C 6,4 km/h (2 Bft) 97,87 %
18.10.2016 00:06 9,1 C 95 % 1022,1 hPa 0,0 l/m 4,1 km/h (1 Bft) NO 46 0 min 0,000 mm 0,0 UV-I 0 W/m 8,3 C 9,1 C 8,0 km/h (2 Bft) 97,87 %
18.10.2016 00:08 9,1 C 95 % 1022,0 hPa 0,0 l/m 3,3 km/h (1 Bft) NO 46 0 min 0,000 mm 0,0 UV-I 0 W/m 8,3 C 9,1 C 4,8 km/h (1 Bft) 97,87 %
18.10.2016 00:10 9,0 C 95 % 1022,0 hPa 0,0 l/m 3,0 km/h (1 Bft) NO 46 0 min 0,000 mm 0,0 UV-I 0 W/m 8,2 C 9,0 C 4,8 km/h (1 Bft) 95,83 %
18.10.2016 00:12 9,0 C 95 % 1022,0 hPa 0,0 l/m 2,4 km/h (1 Bft) NO 46 0 min 0,000 mm 0,0 UV-I 0 W/m 8,2 C 9,0 C 4,8 km/h (1 Bft) 95,74 %
18.10.2016 00:14 9,0 C 95 % 1022,0 hPa 0,0 l/m 1,4 km/h (1 Bft) NO 46 0 min 0,000 mm 0,0 UV-I 0 W/m 8,2 C 9,0 C 3,2 km/h (1 Bft) 95,83 %
18.10.2016 00:16 9,1 C 95 % 1022,0 hPa 0,0 l/m 2,2 km/h (1 Bft) NO 46 0 min 0,000 mm 0,0 UV-I 0 W/m 8,3 C 9,1 C 4,8 km/h (1 Bft) 97,87 %
18.10.2016 00:18 9,0 C 95 % 1022,0 hPa 0,0 l/m 1,1 km/h (1 Bft) NO 46 0 min 0,000 mm 0,0 UV-I 0 W/m 8,2 C 9,0 C 4,8 km/h (1 Bft) 100,00 %
18.10.2016 00:20 9,0 C 95 % 1022,0 hPa 0,0 l/m 2,2 km/h (1 Bft) NO 46 0 min 0,000 mm 0,0 UV-I 0 W/m 8,2 C 9,0 C 4,8 km/h (1 Bft) 100,00 %
18.10.2016 00:22 9,0 C 95 % 1022,0 hPa 0,0 l/m 0,3 km/h (0 Bft) NO 46 0 min 0,000 mm 0,0 UV-I 0 W/m 8,2 C 9,0 C 3,2 km/h (1 Bft) 97,87 %
18.10.2016 00:24 9,0 C 95 % 1022,1 hPa 0,0 l/m 3,0 km/h (1 Bft) NO 44 0 min 0,000 mm 0,0 UV-I 0 W/m 8,2 C 9,0 C 6,4 km/h (2 Bft) 97,92 %
18.10.2016 00:26 9,0 C 95 % 1022,0 hPa 0,0 l/m 3,1 km/h (1 Bft) NO 44 0 min 0,000 mm 0,0 UV-I 0 W/m 8,2 C 9,0 C 4,8 km/h (1 Bft) 100,00 %
18.10.2016 00:28 8,9 C 95 % 1022,1 hPa 0,0 l/m 2,1 km/h (1 Bft) NO 44 0 min 0,000 mm 0,0 UV-I 0 W/m 8,1 C 8,9 C 4,8 km/h (1 Bft) 95,74 %
18.10.2016 00:30 8,9 C 95 % 1022,1 hPa 0,0 l/m 3,5 km/h (1 Bft) NO 54 0 min 0,000 mm 0,0 UV-I 0 W/m 8,1 C 8,9 C 4,8 km/h (1 Bft) 97,87 %
18.10.2016 00:32 8,9 C 95 % 1022,1 hPa 0,0 l/m 3,6 km/h (1 Bft) O-NO 62 0 min 0,000 mm 0,0 UV-I 0 W/m 8,1 C 8,9 C 4,8 km/h (1 Bft) 100,00 %
18.10.2016 00:34 8,9 C 95 % 1022,1 hPa 0,0 l/m 2,1 km/h (1 Bft) O-NO 62 0 min 0,000 mm 0,0 UV-I 0 W/m 8,1 C 8,9 C 3,2 km/h (1 Bft) 97,87 %
18.10.2016 00:36 8,9 C 95 % 1022,0 hPa 0,0 l/m 4,3 km/h (1 Bft) O-NO 67 0 min 0,000 mm 0,0 UV-I 0 W/m 8,1 C 8,9 C 6,4 km/h (2 Bft) 100,00 %
18.10.2016 00:38 8,9 C 95 % 1022,0 hPa 0,0 l/m 4,4 km/h (1 Bft) O-NO 62 0 min 0,000 mm 0,0 UV-I 0 W/m 8,1 C 8,9 C 6,4 km/h (2 Bft) 100,00 %
18.10.2016 00:40 8,9 C 95 % 1022,1 hPa 0,0 l/m 4,7 km/h (1 Bft) O-NO 64 0 min 0,000 mm 0,0 UV-I 0 W/m 8,1 C 8,9 C 6,4 km/h (2 Bft) 100,00 %
18.10.2016 00:42 8,9 C 95 % 1022,1 hPa 0,0 l/m 3,8 km/h (1 Bft) O-NO 64 0 min 0,000 mm 0,0 UV-I 0 W/m 8,1 C 8,9 C 6,4 km/h (2 Bft) 97,87 %
18.10.2016 00:44 8,9 C 95 % 1022,0 hPa 0,0 l/m 3,9 km/h (1 Bft) O-NO 64 0 min 0,000 mm 0,0 UV-I 0 W/m 8,1 C 8,9 C 6,4 km/h (2 Bft) 100,00 %
18.10.2016 00:46 8,9 C 95 % 1022,0 hPa 0,0 l/m 4,0 km/h (1 Bft) NO 54 0 min 0,000 mm 0,0 UV-I 0 W/m 8,1 C 8,9 C 6,4 km/h (2 Bft) 100,00 %
18.10.2016 00:48 8,9 C 95 % 1022,0 hPa 0,0 l/m 1,2 km/h (1 Bft) NO 54 0 min 0,000 mm 0,0 UV-I 0 W/m 8,1 C 8,9 C 4,8 km/h (1 Bft) 100,00 %
18.10.2016 00:50 8,9 C 95 % 1022,1 hPa 0,0 l/m 2,3 km/h (1 Bft) NO 53 0 min 0,000 mm 0,0 UV-I 0 W/m 8,1 C 8,9 C 6,4 km/h (2 Bft) 100,00 %
18.10.2016 00:52 8,9 C 95 % 1022,1 hPa 0,0 l/m 2,9 km/h (1 Bft) NO 53 0 min 0,000 mm 0,0 UV-I 0 W/m 8,1 C 8,9 C 4,8 km/h (1 Bft) 100,00 %
18.10.2016 00:54 8,9 C 95 % 1022,1 hPa 0,0 l/m 4,4 km/h (1 Bft) O-NO 58 0 min 0,000 mm 0,0 UV-I 0 W/m 8,1 C 8,9 C 6,4 km/h (2 Bft) 100,00 %
18.10.2016 00:56 8,9 C 95 % 1022,1 hPa 0,0 l/m 3,6 km/h (1 Bft) O-NO 62 0 min 0,000 mm 0,0 UV-I 0 W/m 8,1 C 8,9 C 4,8 km/h (1 Bft) 97,87 %
18.10.2016 00:58 8,9 C 95 % 1022,1 hPa 0,0 l/m 2,6 km/h (1 Bft) O-NO 62 0 min 0,000 mm 0,0 UV-I 0 W/m 8,1 C 8,9 C 4,8 km/h (1 Bft) 100,00 %
18.10.2016 01:00 8,9 C 95 % 1022,1 hPa 0,0 l/m 2,1 km/h (1 Bft) O-NO 62 0 min 0,000 mm 0,0 UV-I 0 W/m 8,1 C 8,9 C 4,8 km/h (1 Bft) 100,00 %
18.10.2016 01:02 8,9 C 95 % 1022,1 hPa 0,0 l/m 2,7 km/h (1 Bft) O-NO 62 0 min 0,000 mm 0,0 UV-I 0 W/m 8,1 C 8,9 C 4,8 km/h (1 Bft) 100,00 %
18.10.2016 01:04 8,9 C 95 % 1022,1 hPa 0,0 l/m 1,9 km/h (1 Bft) O-NO 62 0 min 0,000 mm 0,0 UV-I 0 W/m 8,1 C 8,9 C 4,8 km/h (1 Bft) 97,87 %
18.10.2016 01:06 8,9 C 95 % 1022,1 hPa 0,0 l/m 2,6 km/h (1 Bft) O-NO 62 0 min 0,000 mm 0,0 UV-I 0 W/m 8,1 C 8,9 C 4,8 km/h (1 Bft) 100,00 %
18.10.2016 01:08 8,9 C 95 % 1022,1 hPa 0,0 l/m 3,1 km/h (1 Bft) O-NO 62 0 min 0,000 mm 0,0 UV-I 0 W/m 8,1 C 8,9 C 4,8 km/h (1 Bft) 97,87 %
18.10.2016 01:10 8,9 C 95 % 1022,1 hPa 0,0 l/m 2,3 km/h (1 Bft) O-NO 62 0 min 0,000 mm 0,0 UV-I 0 W/m 8,1 C 8,9 C 3,2 km/h (1 Bft) 100,00 %
18.10.2016 01:12 8,9 C 95 % 1022,0 hPa 0,0 l/m 2,8 km/h (1 Bft) O-NO 62 0 min 0,000 mm 0,0 UV-I 0 W/m 8,1 C 8,9 C 3,2 km/h (1 Bft) 100,00 %
18.10.2016 01:14 8,9 C 95 % 1022,0 hPa 0,0 l/m 1,5 km/h (1 Bft) O-NO 62 0 min 0,000 mm 0,0 UV-I 0 W/m 8,1 C 8,9 C 3,2 km/h (1 Bft) 100,00 %
18.10.2016 01:16 8,9 C 95 % 1022,1 hPa 0,0 l/m 2,2 km/h (1 Bft) O-NO 62 0 min 0,000 mm 0,0 UV-I 0 W/m 8,1 C 8,9 C 3,2 km/h (1 Bft) 95,74 %
18.10.2016 01:18 8,9 C 95 % 1022,1 hPa 0,0 l/m 1,6 km/h (1 Bft) O-NO 62 0 min 0,000 mm 0,0 UV-I 0 W/m 8,1 C 8,9 C 3,2 km/h (1 Bft) 97,87 %
18.10.2016 01:20 8,9 C 95 % 1022,1 hPa 0,0 l/m 1,8 km/h (1 Bft) O-NO 62 0 min 0,000 mm 0,0 UV-I 0 W/m 8,1 C 8,9 C 3,2 km/h (1 Bft) 100,00 %
18.10.2016 01:22 8,9 C 96 % 1022,1 hPa 0,0 l/m 1,6 km/h (1 Bft) O-NO 62 0 min 0,000 mm 0,0 UV-I 0 W/m 8,3 C 8,9 C 3,2 km/h (1 Bft) 100,00 %
18.10.2016 01:24 8,9 C 96 % 1022,1 hPa 0,0 l/m 0,2 km/h (0 Bft) O-NO 62 0 min 0,000 mm 0,0 UV-I 0 W/m 8,3 C 8,9 C 1,6 km/h (1 Bft) 100,00 %
18.10.2016 01:26 8,9 C 96 % 1022,1 hPa 0,0 l/m 0,4 km/h (0 Bft) O-NO 62 0 min 0,000 mm 0,0 UV-I 0 W/m 8,3 C 8,9 C 1,6 km/h (1 Bft) 97,87 %
18.10.2016 01:28 8,9 C 95 % 1022,1 hPa 0,0 l/m 1,4 km/h (1 Bft) O-NO 62 0 min 0,000 mm 0,0 UV-I 0 W/m 8,1 C 8,9 C 3,2 km/h (1 Bft) 100,00 %
18.10.2016 01:30 8,9 C 95 % 1022,0 hPa 0,0 l/m 1,3 km/h (1 Bft) O-NO 62 0 min 0,000 mm 0,0 UV-I 0 W/m 8,1 C 8,9 C 3,2 km/h (1 Bft) 97,92 %
18.10.2016 01:32 8,9 C 96 % 1022,0 hPa 0,0 l/m 1,5 km/h (1 Bft) O-NO 62 0 min 0,000 mm 0,0 UV-I 0 W/m 8,3 C 8,9 C 3,2 km/h (1 Bft) 97,87 %
18.10.2016 01:34 8,9 C 96 % 1022,1 hPa 0,0 l/m 0,7 km/h (0 Bft) O-NO 62 0 min 0,000 mm 0,0 UV-I 0 W/m 8,3 C 8,9 C 1,6 km/h (1 Bft) 100,00 %
18.10.2016 01:36 8,9 C 96 % 1022,1 hPa 0,0 l/m 0,3 km/h (0 Bft) O-NO 62 0 min 0,000 mm 0,0 UV-I 0 W/m 8,3 C 8,9 C 1,6 km/h (1 Bft) 97,37 %
18.10.2016 01:38 8,9 C 96 % 1022,1 hPa 0,0 l/m 1,0 km/h (0 Bft) O-NO 62 0 min 0,000 mm 0,0 UV-I 0 W/m 8,3 C 8,9 C 1,6 km/h (1 Bft) 100,00 %
18.10.2016 01:40 8,9 C 96 % 1022,1 hPa 0,0 l/m 0,1 km/h (0 Bft) O-NO 62 0 min 0,000 mm 0,0 UV-I 0 W/m 8,3 C 8,9 C 1,6 km/h (1 Bft) 96,00 %
18.10.2016 01:42 8,9 C 96 % 1022,1 hPa 0,0 l/m 0,4 km/h (0 Bft) O-NO 62 0 min 0,000 mm 0,0 UV-I 0 W/m 8,3 C 8,9 C 1,6 km/h (1 Bft) 100,00 %
18.10.2016 01:44 8,9 C 96 % 1022,1 hPa 0,0 l/m 0,6 km/h (0 Bft) O-NO 62 0 min 0,000 mm 0,0 UV-I 0 W/m 8,3 C 8,9 C 1,6 km/h (1 Bft) 97,87 %
18.10.2016 01:46 8,9 C 96 % 1022,1 hPa 0,0 l/m 0,1 km/h (0 Bft) O-NO 62 0 min 0,000 mm 0,0 UV-I 0 W/m 8,3 C 8,9 C 1,6 km/h (1 Bft) 97,87 %
18.10.2016 01:48 8,9 C 96 % 1022,0 hPa 0,0 l/m 1,0 km/h (0 Bft) O-NO 62 0 min 0,000 mm 0,0 UV-I 0 W/m 8,3 C 8,9 C 3,2 km/h (1 Bft) 97,87 %
18.10.2016 01:50 8,9 C 96 % 1022,1 hPa 0,0 l/m 1,8 km/h (1 Bft) O-NO 62 0 min 0,000 mm 0,0 UV-I 0 W/m 8,3 C 8,9 C 3,2 km/h (1 Bft) 97,87 %
18.10.2016 01:52 8,9 C 96 % 1022,1 hPa 0,0 l/m 1,8 km/h (1 Bft) O-NO 62 0 min 0,000 mm 0,0 UV-I 0 W/m 8,3 C 8,9 C 3,2 km/h (1 Bft) 98,04 %
18.10.2016 01:54 8,9 C 96 % 1022,1 hPa 0,0 l/m 1,9 km/h (1 Bft) O-NO 62 0 min 0,000 mm 0,0 UV-I 0 W/m 8,3 C 8,9 C 3,2 km/h (1 Bft) 95,74 %
18.10.2016 01:56 8,9 C 96 % 1022,0 hPa 0,0 l/m 1,5 km/h (1 Bft) O-NO 62 0 min 0,000 mm 0,0 UV-I 0 W/m 8,3 C 8,9 C 3,2 km/h (1 Bft) 97,87 %
18.10.2016 01:58 8,9 C 96 % 1022,1 hPa 0,0 l/m 1,9 km/h (1 Bft) O-NO 62 0 min 0,000 mm 0,0 UV-I 0 W/m 8,3 C 8,9 C 3,2 km/h (1 Bft) 97,37 %
18.10.2016 02:00 8,9 C 96 % 1022,1 hPa 0,0 l/m 2,1 km/h (1 Bft) O-NO 62 0 min 0,000 mm 0,0 UV-I 0 W/m 8,3 C 8,9 C 3,2 km/h (1 Bft) 97,87 %
18.10.2016 02:02 8,9 C 96 % 1022,1 hPa 0,0 l/m 2,8 km/h (1 Bft) O-NO 62 0 min 0,000 mm 0,0 UV-I 0 W/m 8,3 C 8,9 C 3,2 km/h (1 Bft) 97,92 %
18.10.2016 02:04 8,8 C 96 % 1022,1 hPa 0,0 l/m 1,6 km/h (1 Bft) O-NO 62 0 min 0,000 mm 0,0 UV-I 0 W/m 8,2 C 8,8 C 3,2 km/h (1 Bft) 97,87 %
18.10.2016 02:06 8,8 C 96 % 1022,1 hPa 0,0 l/m 1,2 km/h (1 Bft) O-NO 62 0 min 0,000 mm 0,0 UV-I 0 W/m 8,2 C 8,8 C 3,2 km/h (1 Bft) 97,87 %
18.10.2016 02:08 8,8 C 96 % 1022,0 hPa 0,0 l/m 1,0 km/h (0 Bft) O-NO 62 0 min 0,000 mm 0,0 UV-I 0 W/m 8,2 C 8,8 C 1,6 km/h (1 Bft) 95,83 %
18.10.2016 02:10 8,9 C 96 % 1022,0 hPa 0,0 l/m 1,0 km/h (0 Bft) O-NO 62 0 min 0,000 mm 0,0 UV-I 0 W/m 8,3 C 8,9 C 1,6 km/h (1 Bft) 93,62 %
18.10.2016 02:12 8,9 C 96 % 1022,1 hPa 0,0 l/m 0,8 km/h (0 Bft) O-NO 62 0 min 0,000 mm 0,0 UV-I 0 W/m 8,3 C 8,9 C 1,6 km/h (1 Bft) 91,67 %
18.10.2016 02:14 8,8 C 96 % 1022,1 hPa 0,0 l/m 0,5 km/h (0 Bft) O-NO 62 0 min 0,000 mm 0,0 UV-I 0 W/m 8,2 C 8,8 C 1,6 km/h (1 Bft) 97,87 %
18.10.2016 02:16 8,8 C 96 % 1022,1 hPa 0,0 l/m 1,1 km/h (1 Bft) O-NO 62 0 min 0,000 mm 0,0 UV-I 0 W/m 8,2 C 8,8 C 3,2 km/h (1 Bft) 97,87 %
18.10.2016 02:18 8,8 C 96 % 1022,1 hPa 0,0 l/m 0,7 km/h (0 Bft) O-NO 62 0 min 0,000 mm 0,0 UV-I 0 W/m 8,2 C 8,8 C 1,6 km/h (1 Bft) 100,00 %
18.10.2016 02:20 8,8 C 96 % 1022,1 hPa 0,0 l/m 1,6 km/h (1 Bft) O-NO 62 0 min 0,000 mm 0,0 UV-I 0 W/m 8,2 C 8,8 C 3,2 km/h (1 Bft) 100,00 %
18.10.2016 02:22 8,8 C 96 % 1022,1 hPa 0,0 l/m 0,6 km/h (0 Bft) O-NO 62 0 min 0,000 mm 0,0 UV-I 0 W/m 8,2 C 8,8 C 3,2 km/h (1 Bft) 100,00 %
18.10.2016 02:24 8,8 C 96 % 1022,2 hPa 0,0 l/m 1,3 km/h (1 Bft) O-NO 62 0 min 0,000 mm 0,0 UV-I 0 W/m 8,2 C 8,8 C 3,2 km/h (1 Bft) 100,00 %
18.10.2016 02:26 8,8 C 96 % 1022,2 hPa 0,0 l/m 0,0 km/h (0 Bft) O-NO 62 0 min 0,000 mm 0,0 UV-I 0 W/m 8,2 C 8,8 C 0,0 km/h (0 Bft) 98,00 %
18.10.2016 02:28 8,9 C 96 % 1022,1 hPa 0,0 l/m 0,4 km/h (0 Bft) O-NO 62 0 min 0,000 mm 0,0 UV-I 0 W/m 8,3 C 8,9 C 1,6 km/h (1 Bft) 97,87 %
18.10.2016 02:30 8,9 C 96 % 1022,2 hPa 0,0 l/m 2,0 km/h (1 Bft) O-NO 62 0 min 0,000 mm 0,0 UV-I 0 W/m 8,3 C 8,9 C 3,2 km/h (1 Bft) 100,00 %
18.10.2016 02:32 8,9 C 96 % 1022,2 hPa 0,0 l/m 2,1 km/h (1 Bft) O-NO 62 0 min 0,000 mm 0,0 UV-I 0 W/m 8,3 C 8,9 C 3,2 km/h (1 Bft) 97,87 %
18.10.2016 02:34 8,8 C 96 % 1022,2 hPa 0,0 l/m 1,9 km/h (1 Bft) O-NO 62 0 min 0,000 mm 0,0 UV-I 0 W/m 8,2 C 8,8 C 3,2 km/h (1 Bft) 100,00 %
18.10.2016 02:36 8,8 C 96 % 1022,2 hPa 0,0 l/m 1,3 km/h (1 Bft) O-NO 62 0 min 0,000 mm 0,0 UV-I 0 W/m 8,2 C 8,8 C 3,2 km/h (1 Bft) 97,14 %
18.10.2016 02:38 8,8 C 96 % 1022,2 hPa 0,0 l/m 0,3 km/h (0 Bft) O-NO 62 0 min 0,000 mm 0,0 UV-I 0 W/m 8,2 C 8,8 C 1,6 km/h (1 Bft) 100,00 %
18.10.2016 02:40 8,8 C 96 % 1022,2 hPa 0,0 l/m 0,0 km/h (0 Bft) O-NO 62 0 min 0,000 mm 0,0 UV-I 0 W/m 8,2 C 8,8 C 0,0 km/h (0 Bft) 100,00 %
18.10.2016 02:42 8,8 C 96 % 1022,2 hPa 0,0 l/m 0,1 km/h (0 Bft) O-NO 62 0 min 0,000 mm 0,0 UV-I 0 W/m 8,2 C 8,8 C 1,6 km/h (1 Bft) 100,00 %
18.10.2016 02:44 8,8 C 96 % 1022,2 hPa 0,0 l/m 0,3 km/h (0 Bft) O-NO 62 0 min 0,000 mm 0,0 UV-I 0 W/m 8,2 C 8,8 C 1,6 km/h (1 Bft) 100,00 %
18.10.2016 02:46 8,8 C 96 % 1022,2 hPa 0,0 l/m 0,3 km/h (0 Bft) O-NO 62 0 min 0,000 mm 0,0 UV-I 0 W/m 8,2 C 8,8 C 1,6 km/h (1 Bft) 100,00 %
18.10.2016 02:48 8,8 C 96 % 1022,2 hPa 0,0 l/m 0,1 km/h (0 Bft) O-NO 62 0 min 0,000 mm 0,0 UV-I 0 W/m 8,2 C 8,8 C 1,6 km/h (1 Bft) 100,00 %
18.10.2016 02:50 8,8 C 96 % 1022,2 hPa 0,0 l/m 0,0 km/h (0 Bft) O-NO 62 0 min 0,000 mm 0,0 UV-I 0 W/m 8,2 C 8,8 C 0,0 km/h (0 Bft) 100,00 %
18.10.2016 02:52 8,8 C 96 % 1022,2 hPa 0,0 l/m 0,0 km/h (0 Bft) O-NO 62 0 min 0,000 mm 0,0 UV-I 0 W/m 8,2 C 8,8 C 0,0 km/h (0 Bft) 97,87 %
18.10.2016 02:54 8,9 C 96 % 1022,2 hPa 0,0 l/m 0,7 km/h (0 Bft) O-NO 62 0 min 0,000 mm 0,0 UV-I 0 W/m 8,3 C 8,9 C 1,6 km/h (1 Bft) 100,00 %
18.10.2016 02:56 8,8 C 96 % 1022,2 hPa 0,0 l/m 1,4 km/h (1 Bft) O-NO 62 0 min 0,000 mm 0,0 UV-I 0 W/m 8,2 C 8,8 C 1,6 km/h (1 Bft) 100,00 %
18.10.2016 02:58 8,8 C 96 % 1022,2 hPa 0,0 l/m 1,6 km/h (1 Bft) O-NO 62 0 min 0,000 mm 0,0 UV-I 0 W/m 8,2 C 8,8 C 3,2 km/h (1 Bft) 100,00 %
18.10.2016 03:00 8,8 C 96 % 1022,2 hPa 0,0 l/m 1,2 km/h (1 Bft) O-NO 62 0 min 0,000 mm 0,0 UV-I 0 W/m 8,2 C 8,8 C 3,2 km/h (1 Bft) 100,00 %
18.10.2016 03:02 8,8 C 96 % 1022,2 hPa 0,0 l/m 0,2 km/h (0 Bft) O-NO 62 0 min 0,000 mm 0,0 UV-I 0 W/m 8,2 C 8,8 C 1,6 km/h (1 Bft) 100,00 %
18.10.2016 03:04 8,8 C 96 % 1022,2 hPa 0,0 l/m 0,9 km/h (0 Bft) O-NO 62 0 min 0,000 mm 0,0 UV-I 0 W/m 8,2 C 8,8 C 3,2 km/h (1 Bft) 100,00 %
18.10.2016 03:06 8,8 C 96 % 1022,2 hPa 0,0 l/m 1,9 km/h (1 Bft) O-NO 62 0 min 0,000 mm 0,0 UV-I 0 W/m 8,2 C 8,8 C 3,2 km/h (1 Bft) 100,00 %
18.10.2016 03:08 8,8 C 96 % 1022,1 hPa 0,0 l/m 0,7 km/h (0 Bft) O-NO 62 0 min 0,000 mm 0,0 UV-I 0 W/m 8,2 C 8,8 C 3,2 km/h (1 Bft) 100,00 %
18.10.2016 03:10 8,8 C 96 % 1022,1 hPa 0,2 l/m 0,2 km/h (0 Bft) O-NO 62 0 min 0,000 mm 0,0 UV-I 0 W/m 8,2 C 8,8 C 1,6 km/h (1 Bft) 100,00 %
18.10.2016 03:12 8,8 C 96 % 1022,2 hPa 0,0 l/m 0,2 km/h (0 Bft) O-NO 62 0 min 0,000 mm 0,0 UV-I 0 W/m 8,2 C 8,8 C 1,6 km/h (1 Bft) 100,00 %
18.10.2016 03:14 8,8 C 96 % 1022,1 hPa 0,0 l/m 0,1 km/h (0 Bft) O-NO 62 0 min 0,000 mm 0,0 UV-I 0 W/m 8,2 C 8,8 C 1,6 km/h (1 Bft) 100,00 %
18.10.2016 03:16 8,8 C 96 % 1022,1 hPa 0,0 l/m 0,0 km/h (0 Bft) O-NO 62 0 min 0,000 mm 0,0 UV-I 0 W/m 8,2 C 8,8 C 0,0 km/h (0 Bft) 95,74 %
18.10.2016 03:18 8,8 C 96 % 1022,1 hPa 0,0 l/m 0,0 km/h (0 Bft) O-NO 62 0 min 0,000 mm 0,0 UV-I 0 W/m 8,2 C 8,8 C 0,0 km/h (0 Bft) 97,87 %
18.10.2016 03:20 8,8 C 96 % 1022,1 hPa 0,0 l/m 0,0 km/h (0 Bft) O-NO 62 0 min 0,000 mm 0,0 UV-I 0 W/m 8,2 C 8,8 C 0,0 km/h (0 Bft) 100,00 %
18.10.2016 03:22 8,8 C 96 % 1022,0 hPa 0,0 l/m 0,0 km/h (0 Bft) O-NO 62 0 min 0,000 mm 0,0 UV-I 0 W/m 8,2 C 8,8 C 0,0 km/h (0 Bft) 100,00 %
18.10.2016 03:24 8,8 C 96 % 1022,0 hPa 0,0 l/m 0,0 km/h (0 Bft) O-NO 62 0 min 0,000 mm 0,0 UV-I 0 W/m 8,2 C 8,8 C 0,0 km/h (0 Bft) 97,92 %
18.10.2016 03:26 8,8 C 96 % 1022,0 hPa 0,0 l/m 0,0 km/h (0 Bft) O-NO 62 0 min 0,000 mm 0,0 UV-I 0 W/m 8,2 C 8,8 C 0,0 km/h (0 Bft) 100,00 %
18.10.2016 03:29 8,8 C 96 % 1021,9 hPa 0,0 l/m 0,0 km/h (0 Bft) O-NO 62 0 min 0,000 mm 0,0 UV-I 0 W/m 8,2 C 8,8 C 0,0 km/h (0 Bft) 98,59 %
18.10.2016 03:30 8,8 C 96 % 1021,9 hPa 0,0 l/m 0,0 km/h (0 Bft) O-NO 62 0 min 0,000 mm 0,0 UV-I 0 W/m 8,2 C 8,8 C 0,0 km/h (0 Bft) 100,00 %
18.10.2016 03:32 8,9 C 96 % 1022,0 hPa 0,0 l/m 0,6 km/h (0 Bft) O-NO 62 0 min 0,000 mm 0,0 UV-I 0 W/m 8,3 C 8,9 C 1,6 km/h (1 Bft) 97,87 %
18.10.2016 03:34 8,9 C 96 % 1022,0 hPa 0,0 l/m 1,3 km/h (1 Bft) O-NO 62 0 min 0,000 mm 0,0 UV-I 0 W/m 8,3 C 8,9 C 1,6 km/h (1 Bft) 100,00 %
18.10.2016 03:36 8,9 C 96 % 1022,0 hPa 0,0 l/m 1,4 km/h (1 Bft) O-NO 62 0 min 0,000 mm 0,0 UV-I 0 W/m 8,3 C 8,9 C 3,2 km/h (1 Bft) 97,87 %
18.10.2016 03:38 8,9 C 96 % 1022,0 hPa 0,0 l/m 1,9 km/h (1 Bft) O-NO 62 0 min 0,000 mm 0,0 UV-I 0 W/m 8,3 C 8,9 C 3,2 km/h (1 Bft) 97,87 %
18.10.2016 03:40 8,9 C 96 % 1022,0 hPa 0,0 l/m 1,5 km/h (1 Bft) O-NO 62 0 min 0,000 mm 0,0 UV-I 0 W/m 8,3 C 8,9 C 3,2 km/h (1 Bft) 97,87 %
18.10.2016 03:42 8,9 C 96 % 1022,0 hPa 0,0 l/m 2,4 km/h (1 Bft) O-NO 62 0 min 0,000 mm 0,0 UV-I 0 W/m 8,3 C 8,9 C 3,2 km/h (1 Bft) 97,87 %
18.10.2016 03:44 8,9 C 96 % 1022,0 hPa 0,0 l/m 1,5 km/h (1 Bft) O-NO 62 0 min 0,000 mm 0,0 UV-I 0 W/m 8,3 C 8,9 C 3,2 km/h (1 Bft) 97,96 %
18.10.2016 03:46 8,9 C 96 % 1021,9 hPa 0,0 l/m 2,1 km/h (1 Bft) O-NO 62 0 min 0,000 mm 0,0 UV-I 0 W/m 8,3 C 8,9 C 3,2 km/h (1 Bft) 95,74 %
18.10.2016 03:48 8,9 C 96 % 1021,9 hPa 0,0 l/m 2,6 km/h (1 Bft) O-NO 62 0 min 0,000 mm 0,0 UV-I 0 W/m 8,3 C 8,9 C 3,2 km/h (1 Bft) 95,74 %
18.10.2016 03:50 8,9 C 96 % 1021,9 hPa 0,0 l/m 2,7 km/h (1 Bft) O-NO 62 0 min 0,000 mm 0,0 UV-I 0 W/m 8,3 C 8,9 C 4,8 km/h (1 Bft) 97,87 %
18.10.2016 03:52 8,9 C 96 % 1021,9 hPa 0,0 l/m 1,4 km/h (1 Bft) O-NO 62 0 min 0,000 mm 0,0 UV-I 0 W/m 8,3 C 8,9 C 3,2 km/h (1 Bft) 95,74 %
18.10.2016 03:54 8,9 C 96 % 1021,9 hPa 0,0 l/m 0,0 km/h (0 Bft) O-NO 62 0 min 0,000 mm 0,0 UV-I 0 W/m 8,3 C 8,9 C 0,0 km/h (0 Bft) 94,59 %
18.10.2016 03:56 8,9 C 96 % 1021,9 hPa 0,0 l/m 0,0 km/h (0 Bft) O-NO 62 0 min 0,000 mm 0,0 UV-I 0 W/m 8,3 C 8,9 C 0,0 km/h (0 Bft) 98,00 %
18.10.2016 03:58 8,9 C 96 % 1021,9 hPa 0,0 l/m 0,1 km/h (0 Bft) O-NO 62 0 min 0,000 mm 0,0 UV-I 0 W/m 8,3 C 8,9 C 1,6 km/h (1 Bft) 95,74 %
18.10.2016 04:00 8,9 C 97 % 1021,9 hPa 0,0 l/m 0,3 km/h (0 Bft) O-NO 62 0 min 0,000 mm 0,0 UV-I 0 W/m 8,4 C 8,9 C 1,6 km/h (1 Bft) 97,87 %
18.10.2016 04:02 8,9 C 97 % 1021,9 hPa 0,0 l/m 0,0 km/h (0 Bft) O-NO 62 0 min 0,000 mm 0,0 UV-I 0 W/m 8,4 C 8,9 C 0,0 km/h (0 Bft) 97,22 %
18.10.2016 04:04 8,9 C 97 % 1021,9 hPa 0,0 l/m 0,0 km/h (0 Bft) O-NO 62 0 min 0,000 mm 0,0 UV-I 0 W/m 8,4 C 8,9 C 0,0 km/h (0 Bft) 97,87 %
18.10.2016 04:06 8,9 C 97 % 1021,9 hPa 0,0 l/m 0,1 km/h (0 Bft) O-NO 62 0 min 0,000 mm 0,0 UV-I 0 W/m 8,4 C 8,9 C 1,6 km/h (1 Bft) 97,87 %
18.10.2016 04:08 8,9 C 97 % 1021,9 hPa 0,0 l/m 0,0 km/h (0 Bft) O-NO 62 0 min 0,000 mm 0,0 UV-I 0 W/m 8,4 C 8,9 C 0,0 km/h (0 Bft) 97,87 %
18.10.2016 04:10 8,9 C 97 % 1021,8 hPa 0,0 l/m 0,0 km/h (0 Bft) O-NO 62 0 min 0,000 mm 0,0 UV-I 0 W/m 8,4 C 8,9 C 0,0 km/h (0 Bft) 94,87 %
18.10.2016 04:12 8,9 C 97 % 1021,8 hPa 0,0 l/m 0,0 km/h (0 Bft) O-NO 62 0 min 0,000 mm 0,0 UV-I 0 W/m 8,4 C 8,9 C 0,0 km/h (0 Bft) 98,00 %
18.10.2016 04:14 8,9 C 97 % 1021,8 hPa 0,0 l/m 0,0 km/h (0 Bft) O-NO 62 0 min 0,000 mm 0,0 UV-I 0 W/m 8,4 C 8,9 C 0,0 km/h (0 Bft) 93,62 %
18.10.2016 04:16 8,9 C 97 % 1021,8 hPa 0,0 l/m 0,0 km/h (0 Bft) O-NO 62 0 min 0,000 mm 0,0 UV-I 0 W/m 8,4 C 8,9 C 0,0 km/h (0 Bft) 97,87 %
18.10.2016 04:18 9,0 C 97 % 1021,8 hPa 0,2 l/m 1,2 km/h (1 Bft) O-NO 62 0 min 0,000 mm 0,0 UV-I 0 W/m 8,5 C 9,0 C 1,6 km/h (1 Bft) 100,00 %
18.10.2016 04:20 9,0 C 97 % 1021,8 hPa 0,0 l/m 1,8 km/h (1 Bft) O-NO 62 0 min 0,000 mm 0,0 UV-I 0 W/m 8,5 C 9,0 C 3,2 km/h (1 Bft) 100,00 %
18.10.2016 04:22 9,1 C 97 % 1021,8 hPa 0,0 l/m 1,5 km/h (1 Bft) O-NO 62 0 min 0,000 mm 0,0 UV-I 0 W/m 8,6 C 9,1 C 3,2 km/h (1 Bft) 97,87 %
18.10.2016 04:24 9,1 C 97 % 1021,8 hPa 0,0 l/m 0,1 km/h (0 Bft) O-NO 62 0 min 0,000 mm 0,0 UV-I 0 W/m 8,6 C 9,1 C 1,6 km/h (1 Bft) 100,00 %
18.10.2016 04:26 9,0 C 97 % 1021,8 hPa 0,0 l/m 0,0 km/h (0 Bft) O-NO 62 0 min 0,000 mm 0,0 UV-I 0 W/m 8,5 C 9,0 C 0,0 km/h (0 Bft) 97,87 %
18.10.2016 04:28 9,0 C 97 % 1021,8 hPa 0,0 l/m 0,0 km/h (0 Bft) O-NO 62 0 min 0,000 mm 0,0 UV-I 0 W/m 8,5 C 9,0 C 0,0 km/h (0 Bft) 100,00 %
18.10.2016 04:30 9,0 C 97 % 1021,8 hPa 0,0 l/m 0,0 km/h (0 Bft) O-NO 62 0 min 0,000 mm 0,0 UV-I 0 W/m 8,5 C 9,0 C 0,0 km/h (0 Bft) 100,00 %
18.10.2016 04:32 9,0 C 97 % 1021,8 hPa 0,0 l/m 0,0 km/h (0 Bft) O-NO 62 0 min 0,000 mm 0,0 UV-I 0 W/m 8,5 C 9,0 C 0,0 km/h (0 Bft) 97,87 %
18.10.2016 04:34 9,0 C 97 % 1021,9 hPa 0,0 l/m 0,0 km/h (0 Bft) O-NO 62 0 min 0,000 mm 0,0 UV-I 0 W/m 8,5 C 9,0 C 0,0 km/h (0 Bft) 100,00 %
18.10.2016 04:36 9,0 C 97 % 1021,9 hPa 0,0 l/m 0,0 km/h (0 Bft) O-NO 62 0 min 0,000 mm 0,0 UV-I 0 W/m 8,5 C 9,0 C 0,0 km/h (0 Bft) 100,00 %
18.10.2016 04:38 9,0 C 97 % 1021,8 hPa 0,0 l/m 0,0 km/h (0 Bft) O-NO 62 0 min 0,000 mm 0,0 UV-I 0 W/m 8,5 C 9,0 C 0,0 km/h (0 Bft) 97,87 %
18.10.2016 04:40 9,0 C 97 % 1021,8 hPa 0,0 l/m 0,1 km/h (0 Bft) O-NO 62 0 min 0,000 mm 0,0 UV-I 0 W/m 8,5 C 9,0 C 1,6 km/h (1 Bft) 100,00 %
18.10.2016 04:42 9,0 C 97 % 1021,8 hPa 0,0 l/m 0,8 km/h (0 Bft) O-NO 62 0 min 0,000 mm 0,0 UV-I 0 W/m 8,5 C 9,0 C 1,6 km/h (1 Bft) 97,87 %
18.10.2016 04:44 9,0 C 97 % 1021,8 hPa 0,0 l/m 0,8 km/h (0 Bft) O-NO 62 0 min 0,000 mm 0,0 UV-I 0 W/m 8,5 C 9,0 C 1,6 km/h (1 Bft) 100,00 %
18.10.2016 04:46 9,0 C 97 % 1021,8 hPa 0,0 l/m 0,0 km/h (0 Bft) O-NO 62 0 min 0,000 mm 0,0 UV-I 0 W/m 8,5 C 9,0 C 0,0 km/h (0 Bft) 100,00 %
18.10.2016 04:48 9,0 C 97 % 1021,8 hPa 0,0 l/m 0,0 km/h (0 Bft) O-NO 62 0 min 0,000 mm 0,0 UV-I 0 W/m 8,5 C 9,0 C 0,0 km/h (0 Bft) 95,74 %
18.10.2016 04:50 9,0 C 97 % 1021,8 hPa 0,0 l/m 0,0 km/h (0 Bft) O-NO 62 0 min 0,000 mm 0,0 UV-I 0 W/m 8,5 C 9,0 C 0,0 km/h (0 Bft) 97,87 %
18.10.2016 04:52 9,0 C 97 % 1021,8 hPa 0,0 l/m 0,6 km/h (0 Bft) O-NO 62 0 min 0,000 mm 0,0 UV-I 0 W/m 8,5 C 9,0 C 1,6 km/h (1 Bft) 95,74 %
18.10.2016 04:54 9,0 C 97 % 1021,8 hPa 0,0 l/m 0,9 km/h (0 Bft) O-NO 62 0 min 0,000 mm 0,0 UV-I 0 W/m 8,5 C 9,0 C 1,6 km/h (1 Bft) 100,00 %
18.10.2016 04:56 9,0 C 97 % 1021,8 hPa 0,0 l/m 0,7 km/h (0 Bft) O-NO 62 0 min 0,000 mm 0,0 UV-I 0 W/m 8,5 C 9,0 C 1,6 km/h (1 Bft) 100,00 %
18.10.2016 04:58 9,1 C 97 % 1021,8 hPa 0,0 l/m 0,5 km/h (0 Bft) O-NO 62 0 min 0,000 mm 0,0 UV-I 0 W/m 8,6 C 9,1 C 1,6 km/h (1 Bft) 95,74 %
18.10.2016 05:00 9,1 C 97 % 1021,8 hPa 0,0 l/m 0,0 km/h (0 Bft) O-NO 62 0 min 0,000 mm 0,0 UV-I 0 W/m 8,6 C 9,1 C 0,0 km/h (0 Bft) 100,00 %
18.10.2016 05:02 9,1 C 97 % 1021,8 hPa 0,0 l/m 0,1 km/h (0 Bft) O-NO 62 0 min 0,000 mm 0,0 UV-I 0 W/m 8,6 C 9,1 C 1,6 km/h (1 Bft) 100,00 %
18.10.2016 05:04 9,1 C 97 % 1021,8 hPa 0,0 l/m 0,3 km/h (0 Bft) O-NO 62 0 min 0,000 mm 0,0 UV-I 0 W/m 8,6 C 9,1 C 1,6 km/h (1 Bft) 95,74 %
18.10.2016 05:06 9,1 C 97 % 1021,8 hPa 0,0 l/m 1,1 km/h (1 Bft) O-NO 62 0 min 0,000 mm 0,0 UV-I 0 W/m 8,6 C 9,1 C 3,2 km/h (1 Bft) 100,00 %
18.10.2016 05:08 9,1 C 97 % 1021,8 hPa 0,0 l/m 0,4 km/h (0 Bft) O-NO 62 0 min 0,000 mm 0,0 UV-I 0 W/m 8,6 C 9,1 C 1,6 km/h (1 Bft) 100,00 %
18.10.2016 05:10 9,1 C 97 % 1021,8 hPa 0,0 l/m 1,2 km/h (1 Bft) O-NO 62 0 min 0,000 mm 0,0 UV-I 0 W/m 8,6 C 9,1 C 3,2 km/h (1 Bft) 98,00 %
18.10.2016 05:12 9,1 C 97 % 1021,8 hPa 0,0 l/m 0,0 km/h (0 Bft) O-NO 62 0 min 0,000 mm 0,0 UV-I 0 W/m 8,6 C 9,1 C 1,6 km/h (1 Bft) 100,00 %
18.10.2016 05:14 9,1 C 97 % 1021,8 hPa 0,0 l/m 0,2 km/h (0 Bft) O-NO 62 0 min 0,000 mm 0,0 UV-I 0 W/m 8,6 C 9,1 C 1,6 km/h (1 Bft) 97,87 %
18.10.2016 05:16 9,1 C 97 % 1021,8 hPa 0,0 l/m 1,5 km/h (1 Bft) O-NO 62 0 min 0,000 mm 0,0 UV-I 0 W/m 8,6 C 9,1 C 3,2 km/h (1 Bft) 100,00 %
18.10.2016 05:18 9,1 C 97 % 1021,8 hPa 0,0 l/m 1,9 km/h (1 Bft) O-NO 62 0 min 0,000 mm 0,0 UV-I 0 W/m 8,6 C 9,1 C 3,2 km/h (1 Bft) 100,00 %
18.10.2016 05:20 9,1 C 97 % 1021,8 hPa 0,0 l/m 1,4 km/h (1 Bft) O-NO 62 0 min 0,000 mm 0,0 UV-I 0 W/m 8,6 C 9,1 C 3,2 km/h (1 Bft) 100,00 %
18.10.2016 05:22 9,1 C 97 % 1021,8 hPa 0,0 l/m 0,8 km/h (0 Bft) O-NO 62 0 min 0,000 mm 0,0 UV-I 0 W/m 8,6 C 9,1 C 3,2 km/h (1 Bft) 97,22 %
18.10.2016 05:24 9,1 C 97 % 1021,8 hPa 0,0 l/m 0,6 km/h (0 Bft) O-NO 62 0 min 0,000 mm 0,0 UV-I 0 W/m 8,6 C 9,1 C 1,6 km/h (1 Bft) 100,00 %
18.10.2016 05:26 9,1 C 97 % 1021,8 hPa 0,0 l/m 0,3 km/h (0 Bft) O-NO 62 0 min 0,000 mm 0,0 UV-I 0 W/m 8,6 C 9,1 C 1,6 km/h (1 Bft) 100,00 %
18.10.2016 05:28 9,1 C 97 % 1021,7 hPa 0,0 l/m 0,5 km/h (0 Bft) O-NO 62 0 min 0,000 mm 0,0 UV-I 0 W/m 8,6 C 9,1 C 1,6 km/h (1 Bft) 97,87 %
18.10.2016 05:30 9,1 C 97 % 1021,7 hPa 0,0 l/m 0,3 km/h (0 Bft) O-NO 62 0 min 0,000 mm 0,0 UV-I 0 W/m 8,6 C 9,1 C 1,6 km/h (1 Bft) 100,00 %
18.10.2016 05:32 9,1 C 97 % 1021,7 hPa 0,0 l/m 0,5 km/h (0 Bft) O-NO 62 0 min 0,000 mm 0,0 UV-I 0 W/m 8,6 C 9,1 C 3,2 km/h (1 Bft) 100,00 %
18.10.2016 05:34 9,1 C 97 % 1021,7 hPa 0,0 l/m 0,4 km/h (0 Bft) O-NO 62 0 min 0,000 mm 0,0 UV-I 0 W/m 8,6 C 9,1 C 1,6 km/h (1 Bft) 100,00 %
18.10.2016 05:36 9,1 C 97 % 1021,7 hPa 0,0 l/m 0,6 km/h (0 Bft) O-NO 62 0 min 0,000 mm 0,0 UV-I 0 W/m 8,6 C 9,1 C 3,2 km/h (1 Bft) 100,00 %
18.10.2016 05:38 9,1 C 97 % 1021,7 hPa 0,0 l/m 0,5 km/h (0 Bft) O-NO 62 0 min 0,000 mm 0,0 UV-I 0 W/m 8,6 C 9,1 C 1,6 km/h (1 Bft) 100,00 %
18.10.2016 05:40 9,1 C 97 % 1021,7 hPa 0,0 l/m 0,2 km/h (0 Bft) O-NO 62 0 min 0,000 mm 0,0 UV-I 0 W/m 8,6 C 9,1 C 1,6 km/h (1 Bft) 100,00 %
18.10.2016 05:42 9,1 C 97 % 1021,6 hPa 0,0 l/m 0,0 km/h (0 Bft) O-NO 62 0 min 0,000 mm 0,0 UV-I 0 W/m 8,6 C 9,1 C 0,0 km/h (0 Bft) 100,00 %
18.10.2016 05:44 9,1 C 97 % 1021,7 hPa 0,0 l/m 0,0 km/h (0 Bft) O-NO 62 0 min 0,000 mm 0,0 UV-I 0 W/m 8,6 C 9,1 C 1,6 km/h (1 Bft) 100,00 %
18.10.2016 05:46 9,1 C 97 % 1021,6 hPa 0,0 l/m 0,0 km/h (0 Bft) O-NO 62 0 min 0,000 mm 0,0 UV-I 0 W/m 8,6 C 9,1 C 0,0 km/h (0 Bft) 95,74 %
18.10.2016 05:48 9,1 C 97 % 1021,6 hPa 0,0 l/m 0,0 km/h (0 Bft) O-NO 62 0 min 0,000 mm 0,0 UV-I 0 W/m 8,6 C 9,1 C 0,0 km/h (0 Bft) 98,00 %
18.10.2016 05:50 9,1 C 97 % 1021,6 hPa 0,0 l/m 0,0 km/h (0 Bft) O-NO 62 0 min 0,000 mm 0,0 UV-I 0 W/m 8,6 C 9,1 C 0,0 km/h (0 Bft) 97,87 %
18.10.2016 05:52 9,1 C 97 % 1021,6 hPa 0,0 l/m 0,0 km/h (0 Bft) O-NO 62 0 min 0,000 mm 0,0 UV-I 0 W/m 8,6 C 9,1 C 0,0 km/h (0 Bft) 97,87 %
18.10.2016 05:54 9,1 C 97 % 1021,6 hPa 0,0 l/m 0,0 km/h (0 Bft) O-NO 62 0 min 0,000 mm 0,0 UV-I 0 W/m 8,6 C 9,1 C 0,0 km/h (0 Bft) 97,37 %
18.10.2016 05:56 9,1 C 97 % 1021,6 hPa 0,0 l/m 0,0 km/h (0 Bft) O-NO 62 0 min 0,000 mm 0,0 UV-I 0 W/m 8,6 C 9,1 C 0,0 km/h (0 Bft) 95,74 %
18.10.2016 05:58 9,1 C 97 % 1021,5 hPa 0,0 l/m 0,0 km/h (0 Bft) O-NO 62 0 min 0,000 mm 0,0 UV-I 0 W/m 8,6 C 9,1 C 0,0 km/h (0 Bft) 95,74 %
18.10.2016 06:00 9,1 C 97 % 1021,6 hPa 0,0 l/m 0,0 km/h (0 Bft) O-NO 62 0 min 0,000 mm 0,0 UV-I 0 W/m 8,6 C 9,1 C 0,0 km/h (0 Bft) 89,36 %
18.10.2016 06:02 9,1 C 97 % 1021,6 hPa 0,0 l/m 0,3 km/h (0 Bft) O-NO 62 0 min 0,000 mm 0,0 UV-I 0 W/m 8,6 C 9,1 C 1,6 km/h (1 Bft) 95,74 %
18.10.2016 06:04 9,1 C 97 % 1021,6 hPa 0,0 l/m 0,7 km/h (0 Bft) O-NO 62 0 min 0,000 mm 0,0 UV-I 0 W/m 8,6 C 9,1 C 1,6 km/h (1 Bft) 97,92 %
18.10.2016 06:06 9,1 C 97 % 1021,6 hPa 0,0 l/m 0,1 km/h (0 Bft) O-NO 62 0 min 0,000 mm 0,0 UV-I 0 W/m 8,6 C 9,1 C 1,6 km/h (1 Bft) 97,87 %
18.10.2016 06:08 9,2 C 97 % 1021,6 hPa 0,0 l/m 0,0 km/h (0 Bft) O-NO 62 0 min 0,000 mm 0,0 UV-I 0 W/m 8,7 C 9,2 C 0,0 km/h (0 Bft) 95,74 %
18.10.2016 06:10 9,1 C 97 % 1021,6 hPa 0,0 l/m 0,0 km/h (0 Bft) O-NO 62 0 min 0,000 mm 0,0 UV-I 0 W/m 8,6 C 9,1 C 0,0 km/h (0 Bft) 95,74 %
18.10.2016 06:12 9,1 C 97 % 1021,5 hPa 0,0 l/m 0,0 km/h (0 Bft) O-NO 62 0 min 0,000 mm 0,0 UV-I 0 W/m 8,6 C 9,1 C 0,0 km/h (0 Bft) 97,87 %
18.10.2016 06:14 9,1 C 97 % 1021,6 hPa 0,0 l/m 0,0 km/h (0 Bft) O-NO 62 0 min 0,000 mm 0,0 UV-I 0 W/m 8,6 C 9,1 C 0,0 km/h (0 Bft) 95,74 %
18.10.2016 06:16 9,1 C 97 % 1021,5 hPa 0,0 l/m 0,0 km/h (0 Bft) O-NO 62 0 min 0,000 mm 0,0 UV-I 0 W/m 8,6 C 9,1 C 0,0 km/h (0 Bft) 95,74 %
18.10.2016 06:18 9,1 C 97 % 1021,5 hPa 0,0 l/m 0,0 km/h (0 Bft) O-NO 62 0 min 0,000 mm 0,0 UV-I 0 W/m 8,6 C 9,1 C 0,0 km/h (0 Bft) 95,74 %
18.10.2016 06:20 9,1 C 97 % 1021,5 hPa 0,0 l/m 0,0 km/h (0 Bft) O-NO 62 0 min 0,000 mm 0,0 UV-I 0 W/m 8,6 C 9,1 C 0,0 km/h (0 Bft) 97,87 %
18.10.2016 06:22 9,1 C 97 % 1021,5 hPa 0,0 l/m 0,0 km/h (0 Bft) O-NO 62 0 min 0,000 mm 0,0 UV-I 0 W/m 8,6 C 9,1 C 0,0 km/h (0 Bft) 97,87 %
18.10.2016 06:24 9,1 C 97 % 1021,5 hPa 0,0 l/m 0,0 km/h (0 Bft) O-NO 62 0 min 0,000 mm 0,0 UV-I 0 W/m 8,6 C 9,1 C 0,0 km/h (0 Bft) 100,00 %
18.10.2016 06:26 9,1 C 97 % 1021,5 hPa 0,0 l/m 0,0 km/h (0 Bft) O-NO 62 0 min 0,000 mm 0,0 UV-I 0 W/m 8,6 C 9,1 C 0,0 km/h (0 Bft) 100,00 %
18.10.2016 06:28 9,1 C 97 % 1021,5 hPa 0,0 l/m 0,0 km/h (0 Bft) O-NO 62 0 min 0,000 mm 0,0 UV-I 0 W/m 8,6 C 9,1 C 0,0 km/h (0 Bft) 100,00 %
18.10.2016 06:30 9,2 C 97 % 1021,5 hPa 0,0 l/m 0,0 km/h (0 Bft) O-NO 62 0 min 0,000 mm 0,0 UV-I 0 W/m 8,7 C 9,2 C 1,6 km/h (1 Bft) 100,00 %
18.10.2016 06:32 9,2 C 97 % 1021,5 hPa 0,0 l/m 0,7 km/h (0 Bft) O-NO 62 0 min 0,000 mm 0,0 UV-I 0 W/m 8,7 C 9,2 C 1,6 km/h (1 Bft) 100,00 %
18.10.2016 06:34 9,2 C 97 % 1021,5 hPa 0,0 l/m 0,8 km/h (0 Bft) O-NO 62 0 min 0,000 mm 0,0 UV-I 0 W/m 8,7 C 9,2 C 1,6 km/h (1 Bft) 100,00 %
18.10.2016 06:36 9,2 C 97 % 1021,5 hPa 0,0 l/m 0,1 km/h (0 Bft) O-NO 62 0 min 0,000 mm 0,0 UV-I 0 W/m 8,7 C 9,2 C 1,6 km/h (1 Bft) 100,00 %
18.10.2016 06:38 9,2 C 97 % 1021,5 hPa 0,0 l/m 0,0 km/h (0 Bft) O-NO 62 0 min 0,000 mm 0,0 UV-I 0 W/m 8,7 C 9,2 C 0,0 km/h (0 Bft) 100,00 %
18.10.2016 06:40 9,2 C 97 % 1021,5 hPa 0,0 l/m 0,0 km/h (0 Bft) O-NO 62 0 min 0,000 mm 0,0 UV-I 0 W/m 8,7 C 9,2 C 0,0 km/h (0 Bft) 100,00 %
18.10.2016 06:42 9,2 C 97 % 1021,5 hPa 0,0 l/m 0,0 km/h (0 Bft) O-NO 62 0 min 0,000 mm 0,0 UV-I 0 W/m 8,7 C 9,2 C 0,0 km/h (0 Bft) 100,00 %
18.10.2016 06:44 9,2 C 97 % 1021,5 hPa 0,0 l/m 0,0 km/h (0 Bft) O-NO 62 0 min 0,000 mm 0,0 UV-I 0 W/m 8,7 C 9,2 C 0,0 km/h (0 Bft) 97,87 %
18.10.2016 06:46 9,2 C 97 % 1021,5 hPa 0,0 l/m 0,0 km/h (0 Bft) O-NO 62 0 min 0,000 mm 0,0 UV-I 0 W/m 8,7 C 9,2 C 0,0 km/h (0 Bft) 97,87 %
18.10.2016 06:48 9,2 C 97 % 1021,5 hPa 0,0 l/m 0,0 km/h (0 Bft) O-NO 62 0 min 0,000 mm 0,0 UV-I 0 W/m 8,7 C 9,2 C 0,0 km/h (0 Bft) 100,00 %
18.10.2016 06:50 9,2 C 97 % 1021,4 hPa 0,0 l/m 0,0 km/h (0 Bft) O-NO 62 0 min 0,000 mm 0,0 UV-I 0 W/m 8,7 C 9,2 C 0,0 km/h (0 Bft) 100,00 %
18.10.2016 06:52 9,2 C 97 % 1021,5 hPa 0,0 l/m 0,1 km/h (0 Bft) O-NO 62 0 min 0,000 mm 0,0 UV-I 0 W/m 8,7 C 9,2 C 1,6 km/h (1 Bft) 100,00 %
18.10.2016 06:54 9,2 C 98 % 1021,5 hPa 0,0 l/m 0,0 km/h (0 Bft) O-NO 62 0 min 0,000 mm 0,0 UV-I 0 W/m 8,9 C 9,2 C 0,0 km/h (0 Bft) 100,00 %
18.10.2016 06:56 9,2 C 98 % 1021,5 hPa 0,0 l/m 0,4 km/h (0 Bft) O-NO 62 0 min 0,000 mm 0,0 UV-I 0 W/m 8,9 C 9,2 C 1,6 km/h (1 Bft) 97,87 %
18.10.2016 06:58 9,2 C 98 % 1021,5 hPa 0,0 l/m 0,0 km/h (0 Bft) O-NO 62 0 min 0,000 mm 0,0 UV-I 0 W/m 8,9 C 9,2 C 0,0 km/h (0 Bft) 100,00 %
18.10.2016 07:00 9,2 C 97 % 1021,4 hPa 0,0 l/m 0,4 km/h (0 Bft) O-NO 62 0 min 0,000 mm 0,0 UV-I 0 W/m 8,7 C 9,2 C 1,6 km/h (1 Bft) 100,00 %
18.10.2016 07:02 9,2 C 97 % 1021,4 hPa 0,0 l/m 0,0 km/h (0 Bft) O-NO 62 0 min 0,000 mm 0,0 UV-I 0 W/m 8,7 C 9,2 C 0,0 km/h (0 Bft) 97,87 %
18.10.2016 07:04 9,2 C 98 % 1021,4 hPa 0,0 l/m 0,0 km/h (0 Bft) O-NO 62 0 min 0,000 mm 0,0 UV-I 0 W/m 8,9 C 9,2 C 0,0 km/h (0 Bft) 100,00 %
18.10.2016 07:06 9,2 C 98 % 1021,4 hPa 0,0 l/m 0,0 km/h (0 Bft) O-NO 62 0 min 0,000 mm 0,0 UV-I 0 W/m 8,9 C 9,2 C 0,0 km/h (0 Bft) 97,87 %
18.10.2016 07:08 9,2 C 98 % 1021,4 hPa 0,0 l/m 0,9 km/h (0 Bft) O-NO 62 0 min 0,000 mm 0,0 UV-I 0 W/m 8,9 C 9,2 C 1,6 km/h (1 Bft) 100,00 %
18.10.2016 07:10 9,2 C 98 % 1021,4 hPa 0,0 l/m 0,4 km/h (0 Bft) O-NO 62 0 min 0,000 mm 0,0 UV-I 0 W/m 8,9 C 9,2 C 1,6 km/h (1 Bft) 98,00 %
18.10.2016 07:12 9,2 C 97 % 1021,4 hPa 0,0 l/m 0,8 km/h (0 Bft) O-NO 62 0 min 0,000 mm 0,0 UV-I 0 W/m 8,7 C 9,2 C 1,6 km/h (1 Bft) 97,87 %
18.10.2016 07:14 9,2 C 98 % 1021,4 hPa 0,0 l/m 0,5 km/h (0 Bft) O-NO 62 0 min 0,000 mm 0,0 UV-I 0 W/m 8,9 C 9,2 C 1,6 km/h (1 Bft) 97,87 %
18.10.2016 07:16 9,2 C 98 % 1021,4 hPa 0,2 l/m 0,7 km/h (0 Bft) O-NO 62 0 min 0,000 mm 0,0 UV-I 0 W/m 8,9 C 9,2 C 1,6 km/h (1 Bft) 94,29 %
18.10.2016 07:18 9,3 C 98 % 1021,4 hPa 0,0 l/m 1,2 km/h (1 Bft) O-NO 62 0 min 0,000 mm 0,0 UV-I 0 W/m 9,0 C 9,3 C 1,6 km/h (1 Bft) 100,00 %
18.10.2016 07:20 9,3 C 98 % 1021,4 hPa 0,0 l/m 1,3 km/h (1 Bft) O-NO 62 0 min 0,000 mm 0,0 UV-I 0 W/m 9,0 C 9,3 C 1,6 km/h (1 Bft) 96,00 %
18.10.2016 07:22 9,3 C 98 % 1021,4 hPa 0,0 l/m 1,3 km/h (1 Bft) O-NO 62 0 min 0,000 mm 0,0 UV-I 0 W/m 9,0 C 9,3 C 1,6 km/h (1 Bft) 97,92 %
18.10.2016 07:24 9,3 C 98 % 1021,4 hPa 0,0 l/m 0,4 km/h (0 Bft) O-NO 62 0 min 0,000 mm 0,0 UV-I 0 W/m 9,0 C 9,3 C 1,6 km/h (1 Bft) 97,87 %
18.10.2016 07:26 9,3 C 98 % 1021,4 hPa 0,0 l/m 1,5 km/h (1 Bft) O-NO 62 0 min 0,000 mm 0,0 UV-I 0 W/m 9,0 C 9,3 C 3,2 km/h (1 Bft) 97,87 %
18.10.2016 07:28 9,3 C 98 % 1021,4 hPa 0,0 l/m 1,1 km/h (1 Bft) O-NO 62 0 min 0,000 mm 0,0 UV-I 0 W/m 9,0 C 9,3 C 3,2 km/h (1 Bft) 97,87 %
18.10.2016 07:30 9,3 C 98 % 1021,4 hPa 0,0 l/m 0,5 km/h (0 Bft) O-NO 62 0 min 0,000 mm 0,0 UV-I 0 W/m 9,0 C 9,3 C 1,6 km/h (1 Bft) 97,87 %
18.10.2016 07:32 9,3 C 98 % 1021,5 hPa 0,0 l/m 1,1 km/h (1 Bft) O-NO 62 0 min 0,000 mm 0,0 UV-I 0 W/m 9,0 C 9,3 C 3,2 km/h (1 Bft) 97,87 %
18.10.2016 07:34 9,3 C 98 % 1021,4 hPa 0,0 l/m 2,3 km/h (1 Bft) O-NO 62 0 min 0,000 mm 0,0 UV-I 0 W/m 9,0 C 9,3 C 3,2 km/h (1 Bft) 100,00 %
18.10.2016 07:36 9,3 C 98 % 1021,4 hPa 0,0 l/m 2,5 km/h (1 Bft) O-NO 62 0 min 0,000 mm 0,0 UV-I 0 W/m 9,0 C 9,3 C 3,2 km/h (1 Bft) 100,00 %
18.10.2016 07:38 9,3 C 98 % 1021,4 hPa 0,0 l/m 2,4 km/h (1 Bft) O-NO 62 0 min 0,000 mm 0,0 UV-I 0 W/m 9,0 C 9,3 C 3,2 km/h (1 Bft) 100,00 %
18.10.2016 07:40 9,3 C 98 % 1021,4 hPa 0,0 l/m 2,6 km/h (1 Bft) O-NO 62 0 min 0,000 mm 0,0 UV-I 0 W/m 9,0 C 9,3 C 4,8 km/h (1 Bft) 97,87 %
18.10.2016 07:42 9,3 C 98 % 1021,4 hPa 0,0 l/m 3,1 km/h (1 Bft) O-NO 62 0 min 0,000 mm 0,0 UV-I 0 W/m 9,0 C 9,3 C 4,8 km/h (1 Bft) 100,00 %
18.10.2016 07:44 9,3 C 98 % 1021,4 hPa 0,0 l/m 2,1 km/h (1 Bft) O-NO 62 0 min 0,000 mm 0,0 UV-I 0 W/m 9,0 C 9,3 C 3,2 km/h (1 Bft) 97,14 %
18.10.2016 07:46 9,3 C 98 % 1021,4 hPa 0,0 l/m 2,7 km/h (1 Bft) O-NO 62 0 min 0,000 mm 0,0 UV-I 0 W/m 9,0 C 9,3 C 3,2 km/h (1 Bft) 97,87 %
18.10.2016 07:48 9,3 C 98 % 1021,4 hPa 0,0 l/m 1,6 km/h (1 Bft) O-NO 62 0 min 0,000 mm 0,0 UV-I 0 W/m 9,0 C 9,3 C 3,2 km/h (1 Bft) 97,87 %
18.10.2016 07:50 9,3 C 98 % 1021,4 hPa 0,0 l/m 1,6 km/h (1 Bft) O-NO 62 0 min 0,000 mm 0,0 UV-I 0 W/m 9,0 C 9,3 C 3,2 km/h (1 Bft) 98,00 %
18.10.2016 07:52 9,3 C 98 % 1021,4 hPa 0,0 l/m 1,1 km/h (1 Bft) O-NO 62 0 min 0,000 mm 0,0 UV-I 0 W/m 9,0 C 9,3 C 1,6 km/h (1 Bft) 95,74 %
18.10.2016 07:54 9,3 C 98 % 1021,4 hPa 0,0 l/m 1,4 km/h (1 Bft) O-NO 62 0 min 0,000 mm 0,0 UV-I 0 W/m 9,0 C 9,3 C 3,2 km/h (1 Bft) 97,87 %
18.10.2016 07:56 9,3 C 98 % 1021,4 hPa 0,0 l/m 1,1 km/h (1 Bft) O-NO 62 0 min 0,000 mm 0,0 UV-I 0 W/m 9,0 C 9,3 C 1,6 km/h (1 Bft) 97,87 %
18.10.2016 07:58 9,3 C 98 % 1021,4 hPa 0,0 l/m 1,6 km/h (1 Bft) O-NO 62 0 min 0,000 mm 0,0 UV-I 0 W/m 9,0 C 9,3 C 3,2 km/h (1 Bft) 97,87 %
18.10.2016 08:00 9,3 C 98 % 1021,4 hPa 0,0 l/m 1,4 km/h (1 Bft) O-NO 62 0 min 0,000 mm 0,0 UV-I 4 W/m 9,0 C 9,3 C 3,2 km/h (1 Bft) 93,62 %
18.10.2016 08:02 9,3 C 98 % 1021,4 hPa 0,0 l/m 0,7 km/h (0 Bft) O-NO 62 0 min 0,000 mm 0,0 UV-I 5 W/m 9,0 C 9,3 C 1,6 km/h (1 Bft) 98,00 %
18.10.2016 08:04 9,4 C 98 % 1021,5 hPa 0,0 l/m 0,7 km/h (0 Bft) O-NO 62 0 min 0,000 mm 0,0 UV-I 5 W/m 9,1 C 9,4 C 1,6 km/h (1 Bft) 95,74 %
18.10.2016 08:06 9,3 C 98 % 1021,5 hPa 0,0 l/m 0,1 km/h (0 Bft) O-NO 62 0 min 0,000 mm 0,0 UV-I 5 W/m 9,0 C 9,3 C 1,6 km/h (1 Bft) 97,92 %
18.10.2016 08:08 9,4 C 98 % 1021,4 hPa 0,0 l/m 0,0 km/h (0 Bft) O-NO 62 0 min 0,000 mm 0,0 UV-I 5 W/m 9,1 C 9,4 C 0,0 km/h (0 Bft) 97,87 %
18.10.2016 08:10 9,4 C 98 % 1021,5 hPa 0,0 l/m 1,1 km/h (1 Bft) O-NO 62 0 min 0,000 mm 0,0 UV-I 7 W/m 9,1 C 9,4 C 3,2 km/h (1 Bft) 97,37 %
18.10.2016 08:12 9,4 C 98 % 1021,5 hPa 0,2 l/m 1,8 km/h (1 Bft) O-NO 62 0 min 0,000 mm 0,0 UV-I 7 W/m 9,1 C 9,4 C 3,2 km/h (1 Bft) 95,74 %
18.10.2016 08:14 9,3 C 98 % 1021,5 hPa 0,0 l/m 1,2 km/h (1 Bft) O-NO 62 0 min 0,000 mm 0,0 UV-I 7 W/m 9,0 C 9,3 C 1,6 km/h (1 Bft) 95,74 %
18.10.2016 08:16 9,4 C 98 % 1021,5 hPa 0,0 l/m 1,0 km/h (0 Bft) O-NO 62 0 min 0,000 mm 0,0 UV-I 7 W/m 9,1 C 9,4 C 1,6 km/h (1 Bft) 97,87 %
18.10.2016 08:18 9,4 C 98 % 1021,5 hPa 0,0 l/m 0,7 km/h (0 Bft) O-NO 62 0 min 0,000 mm 0,0 UV-I 8 W/m 9,1 C 9,4 C 1,6 km/h (1 Bft) 95,74 %
18.10.2016 08:20 9,3 C 98 % 1021,6 hPa 0,0 l/m 1,3 km/h (1 Bft) O-NO 62 0 min 0,000 mm 0,0 UV-I 9 W/m 9,0 C 9,3 C 3,2 km/h (1 Bft) 95,74 %
18.10.2016 08:22 9,3 C 98 % 1021,5 hPa 0,0 l/m 1,4 km/h (1 Bft) O-NO 62 0 min 0,000 mm 0,0 UV-I 11 W/m 9,0 C 9,3 C 3,2 km/h (1 Bft) 100,00 %
18.10.2016 08:24 9,3 C 98 % 1021,5 hPa 0,0 l/m 1,3 km/h (1 Bft) O-NO 62 0 min 0,000 mm 0,0 UV-I 11 W/m 9,0 C 9,3 C 3,2 km/h (1 Bft) 100,00 %
18.10.2016 08:26 9,3 C 98 % 1021,5 hPa 0,0 l/m 2,0 km/h (1 Bft) O-NO 62 0 min 0,000 mm 0,0 UV-I 12 W/m 9,0 C 9,3 C 3,2 km/h (1 Bft) 100,00 %
18.10.2016 08:28 9,4 C 98 % 1021,5 hPa 0,0 l/m 2,1 km/h (1 Bft) O-NO 62 0 min 0,000 mm 0,0 UV-I 13 W/m 9,1 C 9,4 C 3,2 km/h (1 Bft) 100,00 %
18.10.2016 08:30 9,4 C 98 % 1021,5 hPa 0,0 l/m 1,9 km/h (1 Bft) O-NO 62 0 min 0,000 mm 0,0 UV-I 15 W/m 9,1 C 9,4 C 3,2 km/h (1 Bft) 100,00 %
18.10.2016 08:32 9,4 C 98 % 1021,5 hPa 0,0 l/m 1,9 km/h (1 Bft) O-NO 62 0 min 0,000 mm 0,0 UV-I 16 W/m 9,1 C 9,4 C 3,2 km/h (1 Bft) 100,00 %
18.10.2016 08:34 9,4 C 98 % 1021,5 hPa 0,0 l/m 1,7 km/h (1 Bft) O-NO 62 0 min 0,000 mm 0,0 UV-I 16 W/m 9,1 C 9,4 C 3,2 km/h (1 Bft) 95,74 %
18.10.2016 08:36 9,4 C 98 % 1021,5 hPa 0,0 l/m 1,4 km/h (1 Bft) O-NO 62 0 min 0,000 mm 0,0 UV-I 17 W/m 9,1 C 9,4 C 3,2 km/h (1 Bft) 96,00 %
18.10.2016 08:38 9,4 C 98 % 1021,6 hPa 0,0 l/m 2,1 km/h (1 Bft) O-NO 62 0 min 0,000 mm 0,0 UV-I 18 W/m 9,1 C 9,4 C 3,2 km/h (1 Bft) 100,00 %
18.10.2016 08:40 9,4 C 98 % 1021,6 hPa 0,0 l/m 1,4 km/h (1 Bft) O-NO 62 0 min 0,000 mm 0,0 UV-I 18 W/m 9,1 C 9,4 C 3,2 km/h (1 Bft) 97,87 %
18.10.2016 08:42 9,4 C 98 % 1021,6 hPa 0,0 l/m 1,5 km/h (1 Bft) O-NO 62 0 min 0,000 mm 0,0 UV-I 16 W/m 9,1 C 9,4 C 3,2 km/h (1 Bft) 97,87 %
18.10.2016 08:44 9,4 C 98 % 1021,6 hPa 0,0 l/m 0,1 km/h (0 Bft) O-NO 62 0 min 0,000 mm 0,0 UV-I 17 W/m 9,1 C 9,4 C 1,6 km/h (1 Bft) 100,00 %
18.10.2016 08:46 9,4 C 98 % 1021,6 hPa 0,0 l/m 1,4 km/h (1 Bft) O-NO 62 0 min 0,000 mm 0,0 UV-I 20 W/m 9,1 C 9,4 C 3,2 km/h (1 Bft) 100,00 %
18.10.2016 08:48 9,5 C 98 % 1021,6 hPa 0,0 l/m 0,7 km/h (0 Bft) O-NO 62 0 min 0,000 mm 0,0 UV-I 21 W/m 9,2 C 9,5 C 1,6 km/h (1 Bft) 96,00 %
18.10.2016 08:50 9,5 C 98 % 1021,6 hPa 0,0 l/m 0,8 km/h (0 Bft) O-NO 62 0 min 0,000 mm 0,0 UV-I 22 W/m 9,2 C 9,5 C 1,6 km/h (1 Bft) 100,00 %
18.10.2016 08:52 9,6 C 98 % 1021,7 hPa 0,0 l/m 1,0 km/h (0 Bft) O-NO 62 0 min 0,000 mm 0,0 UV-I 23 W/m 9,3 C 9,6 C 1,6 km/h (1 Bft) 100,00 %
18.10.2016 08:54 9,6 C 98 % 1021,7 hPa 0,0 l/m 1,5 km/h (1 Bft) O-NO 62 0 min 0,000 mm 0,0 UV-I 23 W/m 9,3 C 9,6 C 3,2 km/h (1 Bft) 100,00 %
18.10.2016 08:56 9,6 C 98 % 1021,7 hPa 0,0 l/m 0,0 km/h (0 Bft) O-NO 62 0 min 0,000 mm 0,0 UV-I 25 W/m 9,3 C 9,6 C 0,0 km/h (0 Bft) 97,87 %
18.10.2016 08:58 9,6 C 98 % 1021,7 hPa 0,0 l/m 0,0 km/h (0 Bft) O-NO 62 0 min 0,000 mm 0,0 UV-I 25 W/m 9,3 C 9,6 C 0,0 km/h (0 Bft) 100,00 %
18.10.2016 09:00 9,5 C 98 % 1021,7 hPa 0,0 l/m 0,0 km/h (0 Bft) O-NO 62 0 min 0,000 mm 0,0 UV-I 26 W/m 9,2 C 9,5 C 0,0 km/h (0 Bft) 97,87 %
18.10.2016 09:02 9,6 C 98 % 1021,7 hPa 0,0 l/m 1,0 km/h (0 Bft) O-NO 62 0 min 0,000 mm 0,0 UV-I 29 W/m 9,3 C 9,6 C 1,6 km/h (1 Bft) 97,87 %
18.10.2016 09:04 9,6 C 98 % 1021,7 hPa 0,0 l/m 0,6 km/h (0 Bft) O-NO 62 0 min 0,000 mm 0,0 UV-I 30 W/m 9,3 C 9,6 C 1,6 km/h (1 Bft) 100,00 %
18.10.2016 09:06 9,6 C 98 % 1021,7 hPa 0,0 l/m 0,1 km/h (0 Bft) O-NO 62 0 min 0,000 mm 0,0 UV-I 30 W/m 9,3 C 9,6 C 1,6 km/h (1 Bft) 97,87 %
18.10.2016 09:08 9,6 C 98 % 1021,7 hPa 0,0 l/m 0,0 km/h (0 Bft) O-NO 62 0 min 0,000 mm 0,0 UV-I 31 W/m 9,3 C 9,6 C 0,0 km/h (0 Bft) 100,00 %
18.10.2016 09:10 9,7 C 98 % 1021,7 hPa 0,0 l/m 0,9 km/h (0 Bft) O-NO 62 0 min 0,000 mm 0,0 UV-I 32 W/m 9,4 C 9,7 C 3,2 km/h (1 Bft) 100,00 %
18.10.2016 09:12 9,7 C 98 % 1021,8 hPa 0,0 l/m 0,6 km/h (0 Bft) O-NO 62 0 min 0,000 mm 0,0 UV-I 33 W/m 9,4 C 9,7 C 1,6 km/h (1 Bft) 100,00 %
18.10.2016 09:14 9,7 C 98 % 1021,8 hPa 0,0 l/m 0,0 km/h (0 Bft) O-NO 62 0 min 0,000 mm 0,0 UV-I 32 W/m 9,4 C 9,7 C 0,0 km/h (0 Bft) 97,87 %
18.10.2016 09:16 9,7 C 98 % 1021,8 hPa 0,0 l/m 0,0 km/h (0 Bft) O-NO 62 0 min 0,000 mm 0,0 UV-I 31 W/m 9,4 C 9,7 C 0,0 km/h (0 Bft) 98,00 %
18.10.2016 09:18 9,7 C 98 % 1021,8 hPa 0,0 l/m 0,0 km/h (0 Bft) O-NO 62 0 min 0,000 mm 0,0 UV-I 30 W/m 9,4 C 9,7 C 0,0 km/h (0 Bft) 100,00 %
18.10.2016 09:20 9,7 C 98 % 1021,8 hPa 0,0 l/m 0,0 km/h (0 Bft) O-NO 62 0 min 0,000 mm 0,0 UV-I 28 W/m 9,4 C 9,7 C 0,0 km/h (0 Bft) 100,00 %
18.10.2016 09:22 9,7 C 98 % 1021,8 hPa 0,0 l/m 0,0 km/h (0 Bft) O-NO 62 0 min 0,000 mm 0,0 UV-I 28 W/m 9,4 C 9,7 C 0,0 km/h (0 Bft) 100,00 %
18.10.2016 09:24 9,7 C 98 % 1021,8 hPa 0,0 l/m 0,0 km/h (0 Bft) O-NO 62 0 min 0,000 mm 0,0 UV-I 28 W/m 9,4 C 9,7 C 0,0 km/h (0 Bft) 100,00 %
18.10.2016 09:26 9,7 C 98 % 1021,7 hPa 0,0 l/m 0,6 km/h (0 Bft) O-NO 62 0 min 0,000 mm 0,0 UV-I 29 W/m 9,4 C 9,7 C 1,6 km/h (1 Bft) 97,44 %
18.10.2016 09:28 9,8 C 98 % 1021,8 hPa 0,0 l/m 0,2 km/h (0 Bft) O-NO 62 0 min 0,000 mm 0,0 UV-I 32 W/m 9,5 C 9,8 C 1,6 km/h (1 Bft) 100,00 %
18.10.2016 09:30 9,8 C 98 % 1021,8 hPa 0,0 l/m 0,5 km/h (0 Bft) O-NO 62 0 min 0,000 mm 0,0 UV-I 35 W/m 9,5 C 9,8 C 1,6 km/h (1 Bft) 100,00 %
18.10.2016 09:32 9,8 C 98 % 1021,8 hPa 0,0 l/m 0,0 km/h (0 Bft) O-NO 62 0 min 0,000 mm 0,0 UV-I 39 W/m 9,5 C 9,8 C 1,6 km/h (1 Bft) 100,00 %
18.10.2016 09:34 9,8 C 98 % 1021,7 hPa 0,0 l/m 0,1 km/h (0 Bft) O-NO 62 0 min 0,000 mm 0,0 UV-I 42 W/m 9,5 C 9,8 C 1,6 km/h (1 Bft) 100,00 %
18.10.2016 09:36 9,8 C 98 % 1021,7 hPa 0,0 l/m 0,1 km/h (0 Bft) O-NO 62 0 min 0,000 mm 0,0 UV-I 44 W/m 9,5 C 9,8 C 1,6 km/h (1 Bft) 100,00 %
18.10.2016 09:38 9,8 C 98 % 1021,7 hPa 0,0 l/m 0,0 km/h (0 Bft) O-NO 62 0 min 0,000 mm 0,0 UV-I 44 W/m 9,5 C 9,8 C 0,0 km/h (0 Bft) 98,00 %
18.10.2016 09:40 9,8 C 98 % 1021,7 hPa 0,0 l/m 0,2 km/h (0 Bft) O-NO 62 0 min 0,000 mm 0,0 UV-I 42 W/m 9,5 C 9,8 C 1,6 km/h (1 Bft) 97,87 %
18.10.2016 09:42 9,9 C 98 % 1021,7 hPa 0,0 l/m 0,7 km/h (0 Bft) O-NO 62 0 min 0,000 mm 0,0 UV-I 42 W/m 9,6 C 9,9 C 3,2 km/h (1 Bft) 100,00 %
18.10.2016 09:44 9,9 C 98 % 1021,7 hPa 0,0 l/m 0,4 km/h (0 Bft) O-NO 62 0 min 0,000 mm 0,0 UV-I 42 W/m 9,6 C 9,9 C 1,6 km/h (1 Bft) 97,87 %
18.10.2016 09:46 9,8 C 98 % 1021,7 hPa 0,0 l/m 0,0 km/h (0 Bft) O-NO 62 0 min 0,000 mm 0,0 UV-I 41 W/m 9,5 C 9,8 C 0,0 km/h (0 Bft) 95,74 %
18.10.2016 09:48 9,9 C 98 % 1021,7 hPa 0,0 l/m 0,0 km/h (0 Bft) O-NO 62 0 min 0,000 mm 0,0 UV-I 43 W/m 9,6 C 9,9 C 0,0 km/h (0 Bft) 97,87 %
18.10.2016 09:50 9,9 C 98 % 1021,8 hPa 0,0 l/m 0,0 km/h (0 Bft) O-NO 62 0 min 0,000 mm 0,0 UV-I 46 W/m 9,6 C 9,9 C 0,0 km/h (0 Bft) 95,74 %
18.10.2016 09:52 9,9 C 98 % 1021,8 hPa 0,0 l/m 0,0 km/h (0 Bft) O-NO 62 0 min 0,000 mm 0,0 UV-I 47 W/m 9,6 C 9,9 C 0,0 km/h (0 Bft) 97,37 %
18.10.2016 09:54 9,9 C 98 % 1021,7 hPa 0,0 l/m 0,0 km/h (0 Bft) O-NO 62 0 min 0,000 mm 0,0 UV-I 47 W/m 9,6 C 9,9 C 0,0 km/h (0 Bft) 96,00 %
18.10.2016 09:56 9,9 C 98 % 1021,7 hPa 0,0 l/m 0,0 km/h (0 Bft) O-NO 62 0 min 0,000 mm 0,0 UV-I 49 W/m 9,6 C 9,9 C 0,0 km/h (0 Bft) 93,62 %
18.10.2016 09:58 9,9 C 98 % 1021,7 hPa 0,0 l/m 0,0 km/h (0 Bft) O-NO 62 0 min 0,000 mm 0,0 UV-I 51 W/m 9,6 C 9,9 C 0,0 km/h (0 Bft) 97,87 %
18.10.2016 10:00 10,0 C 98 % 1021,7 hPa 0,0 l/m 0,0 km/h (0 Bft) O-NO 62 0 min 0,025 mm 0,0 UV-I 51 W/m 9,7 C 10,0 C 0,0 km/h (0 Bft) 97,92 %
18.10.2016 10:02 10,0 C 98 % 1021,7 hPa 0,0 l/m 0,0 km/h (0 Bft) O-NO 62 0 min 0,000 mm 0,0 UV-I 51 W/m 9,7 C 10,0 C 0,0 km/h (0 Bft) 97,14 %
18.10.2016 10:04 10,0 C 98 % 1021,7 hPa 0,0 l/m 0,0 km/h (0 Bft) O-NO 62 0 min 0,000 mm 0,0 UV-I 49 W/m 9,7 C 10,0 C 0,0 km/h (0 Bft) 95,16 %
18.10.2016 10:06 10,0 C 98 % 1021,7 hPa 0,0 l/m 0,0 km/h (0 Bft) O-NO 62 0 min 0,000 mm 0,0 UV-I 48 W/m 9,7 C 10,0 C 0,0 km/h (0 Bft) 97,87 %
18.10.2016 10:08 10,0 C 98 % 1021,8 hPa 0,0 l/m 0,0 km/h (0 Bft) O-NO 62 0 min 0,000 mm 0,0 UV-I 48 W/m 9,7 C 10,0 C 0,0 km/h (0 Bft) 97,87 %
18.10.2016 10:10 10,1 C 97 % 1021,8 hPa 0,0 l/m 0,9 km/h (0 Bft) O-NO 62 0 min 0,000 mm 0,0 UV-I 52 W/m 9,6 C 10,1 C 3,2 km/h (1 Bft) 95,74 %
18.10.2016 10:12 10,1 C 98 % 1021,8 hPa 0,0 l/m 1,7 km/h (1 Bft) O-NO 62 0 min 0,000 mm 0,0 UV-I 53 W/m 9,8 C 10,1 C 3,2 km/h (1 Bft) 97,87 %
18.10.2016 10:14 10,1 C 97 % 1021,8 hPa 0,0 l/m 0,9 km/h (0 Bft) O-NO 62 0 min 0,000 mm 0,0 UV-I 56 W/m 9,6 C 10,1 C 1,6 km/h (1 Bft) 97,87 %
18.10.2016 10:16 10,2 C 97 % 1021,8 hPa 0,0 l/m 1,1 km/h (1 Bft) O-NO 62 0 min 0,000 mm 0,0 UV-I 58 W/m 9,7 C 10,2 C 3,2 km/h (1 Bft) 96,00 %
18.10.2016 10:18 10,2 C 97 % 1021,8 hPa 0,0 l/m 1,6 km/h (1 Bft) O-NO 62 0 min 0,000 mm 0,0 UV-I 56 W/m 9,7 C 10,2 C 3,2 km/h (1 Bft) 100,00 %
18.10.2016 10:20 10,2 C 97 % 1021,8 hPa 0,0 l/m 1,7 km/h (1 Bft) O-NO 62 0 min 0,000 mm 0,0 UV-I 56 W/m 9,7 C 10,2 C 3,2 km/h (1 Bft) 93,62 %
18.10.2016 10:22 10,2 C 98 % 1021,9 hPa 0,0 l/m 1,4 km/h (1 Bft) O-NO 62 0 min 0,000 mm 0,0 UV-I 57 W/m 9,9 C 10,2 C 3,2 km/h (1 Bft) 100,00 %
18.10.2016 10:24 10,2 C 98 % 1021,9 hPa 0,0 l/m 1,4 km/h (1 Bft) O-NO 62 0 min 0,000 mm 0,0 UV-I 60 W/m 9,9 C 10,2 C 3,2 km/h (1 Bft) 100,00 %
18.10.2016 10:26 10,2 C 98 % 1021,9 hPa 0,0 l/m 1,7 km/h (1 Bft) O-NO 62 0 min 0,000 mm 0,0 UV-I 60 W/m 9,9 C 10,2 C 3,2 km/h (1 Bft) 100,00 %
18.10.2016 10:28 10,2 C 98 % 1021,9 hPa 0,0 l/m 1,0 km/h (0 Bft) O-NO 62 0 min 0,000 mm 0,0 UV-I 61 W/m 9,9 C 10,2 C 3,2 km/h (1 Bft) 100,00 %
18.10.2016 10:30 10,3 C 98 % 1021,9 hPa 0,0 l/m 1,2 km/h (1 Bft) O-NO 62 0 min 0,000 mm 0,0 UV-I 64 W/m 10,0 C 10,3 C 3,2 km/h (1 Bft) 100,00 %
18.10.2016 10:32 10,3 C 98 % 1021,9 hPa 0,0 l/m 0,4 km/h (0 Bft) O-NO 62 0 min 0,000 mm 0,0 UV-I 61 W/m 10,0 C 10,3 C 1,6 km/h (1 Bft) 93,62 %
18.10.2016 10:34 10,3 C 97 % 1021,9 hPa 0,0 l/m 0,0 km/h (0 Bft) O-NO 62 0 min 0,000 mm 0,0 UV-I 57 W/m 9,8 C 10,3 C 1,6 km/h (1 Bft) 100,00 %
18.10.2016 10:36 10,3 C 97 % 1021,9 hPa 0,0 l/m 0,1 km/h (0 Bft) O-NO 62 0 min 0,000 mm 0,0 UV-I 53 W/m 9,8 C 10,3 C 1,6 km/h (1 Bft) 100,00 %
18.10.2016 10:38 10,3 C 97 % 1021,9 hPa 0,0 l/m 0,8 km/h (0 Bft) O-NO 62 0 min 0,000 mm 0,0 UV-I 50 W/m 9,8 C 10,3 C 1,6 km/h (1 Bft) 100,00 %
18.10.2016 10:40 10,3 C 97 % 1021,9 hPa 0,0 l/m 1,6 km/h (1 Bft) O-NO 62 0 min 0,000 mm 0,0 UV-I 49 W/m 9,8 C 10,3 C 3,2 km/h (1 Bft) 100,00 %
18.10.2016 10:42 10,3 C 97 % 1021,9 hPa 0,0 l/m 1,4 km/h (1 Bft) O-NO 62 0 min 0,000 mm 0,0 UV-I 49 W/m 9,8 C 10,3 C 3,2 km/h (1 Bft) 97,87 %
18.10.2016 10:44 10,3 C 97 % 1021,9 hPa 0,0 l/m 1,5 km/h (1 Bft) O-NO 62 0 min 0,000 mm 0,0 UV-I 52 W/m 9,8 C 10,3 C 3,2 km/h (1 Bft) 97,96 %
18.10.2016 10:46 10,4 C 97 % 1021,9 hPa 0,0 l/m 1,0 km/h (0 Bft) O-NO 62 0 min 0,000 mm 0,0 UV-I 57 W/m 9,9 C 10,4 C 1,6 km/h (1 Bft) 97,87 %
18.10.2016 10:48 10,4 C 97 % 1021,9 hPa 0,0 l/m 0,3 km/h (0 Bft) O-NO 62 0 min 0,000 mm 0,0 UV-I 57 W/m 9,9 C 10,4 C 1,6 km/h (1 Bft) 95,74 %
18.10.2016 10:50 10,4 C 97 % 1021,9 hPa 0,0 l/m 0,8 km/h (0 Bft) O-NO 62 0 min 0,000 mm 0,0 UV-I 57 W/m 9,9 C 10,4 C 3,2 km/h (1 Bft) 100,00 %
18.10.2016 10:52 10,4 C 97 % 1021,9 hPa 0,0 l/m 0,2 km/h (0 Bft) O-NO 62 0 min 0,000 mm 0,0 UV-I 62 W/m 9,9 C 10,4 C 1,6 km/h (1 Bft) 100,00 %
18.10.2016 10:54 10,4 C 97 % 1021,9 hPa 0,0 l/m 1,2 km/h (1 Bft) O-NO 62 0 min 0,000 mm 0,0 UV-I 66 W/m 9,9 C 10,4 C 3,2 km/h (1 Bft) 97,87 %
18.10.2016 10:56 10,4 C 97 % 1021,9 hPa 0,0 l/m 1,6 km/h (1 Bft) O-NO 62 0 min 0,000 mm 0,0 UV-I 72 W/m 9,9 C 10,4 C 3,2 km/h (1 Bft) 98,00 %
18.10.2016 10:58 10,5 C 97 % 1021,9 hPa 0,0 l/m 1,2 km/h (1 Bft) O-NO 62 0 min 0,000 mm 0,0 UV-I 76 W/m 10,0 C 10,5 C 3,2 km/h (1 Bft) 100,00 %
18.10.2016 11:00 10,5 C 97 % 1021,9 hPa 0,0 l/m 0,0 km/h (0 Bft) O-NO 62 0 min 0,026 mm 0,0 UV-I 77 W/m 10,0 C 10,5 C 1,6 km/h (1 Bft) 100,00 %
18.10.2016 11:02 10,5 C 97 % 1021,9 hPa 0,0 l/m 1,9 km/h (1 Bft) NO 45 0 min 0,000 mm 0,0 UV-I 77 W/m 10,0 C 10,5 C 3,2 km/h (1 Bft) 100,00 %
18.10.2016 11:04 10,5 C 97 % 1021,9 hPa 0,0 l/m 0,9 km/h (0 Bft) NO 45 0 min 0,000 mm 0,0 UV-I 76 W/m 10,0 C 10,5 C 1,6 km/h (1 Bft) 100,00 %
18.10.2016 11:06 10,6 C 97 % 1021,9 hPa 0,0 l/m 0,0 km/h (0 Bft) NO 45 0 min 0,000 mm 0,0 UV-I 75 W/m 10,1 C 10,6 C 1,6 km/h (1 Bft) 97,87 %
18.10.2016 11:08 10,6 C 97 % 1021,9 hPa 0,0 l/m 0,3 km/h (0 Bft) NO 45 0 min 0,000 mm 0,0 UV-I 76 W/m 10,1 C 10,6 C 1,6 km/h (1 Bft) 100,00 %
18.10.2016 11:10 10,6 C 97 % 1021,9 hPa 0,0 l/m 0,0 km/h (0 Bft) NO 45 0 min 0,000 mm 0,0 UV-I 76 W/m 10,1 C 10,6 C 0,0 km/h (0 Bft) 97,87 %
18.10.2016 11:12 10,7 C 97 % 1021,9 hPa 0,0 l/m 0,0 km/h (0 Bft) NO 45 0 min 0,000 mm 0,0 UV-I 77 W/m 10,2 C 10,7 C 0,0 km/h (0 Bft) 100,00 %
18.10.2016 11:14 10,7 C 97 % 1021,9 hPa 0,0 l/m 0,5 km/h (0 Bft) NO 45 0 min 0,000 mm 0,0 UV-I 75 W/m 10,2 C 10,7 C 3,2 km/h (1 Bft) 100,00 %
18.10.2016 11:16 10,7 C 97 % 1021,9 hPa 0,0 l/m 2,2 km/h (1 Bft) NO 45 0 min 0,000 mm 0,0 UV-I 74 W/m 10,2 C 10,7 C 3,2 km/h (1 Bft) 100,00 %
18.10.2016 11:18 10,6 C 97 % 1021,9 hPa 0,0 l/m 0,8 km/h (0 Bft) NO 45 0 min 0,000 mm 0,0 UV-I 85 W/m 10,1 C 10,6 C 3,2 km/h (1 Bft) 100,00 %
18.10.2016 11:20 10,6 C 97 % 1021,9 hPa 0,0 l/m 0,0 km/h (0 Bft) NO 45 0 min 0,000 mm 0,2 UV-I 103 W/m 10,1 C 10,6 C 0,0 km/h (0 Bft) 100,00 %
18.10.2016 11:22 10,7 C 97 % 1021,9 hPa 0,0 l/m 0,4 km/h (0 Bft) NO 45 0 min 0,000 mm 0,5 UV-I 113 W/m 10,2 C 10,7 C 1,6 km/h (1 Bft) 100,00 %
18.10.2016 11:24 10,7 C 97 % 1021,9 hPa 0,0 l/m 1,2 km/h (1 Bft) NO 44 0 min 0,000 mm 0,5 UV-I 111 W/m 10,2 C 10,7 C 3,2 km/h (1 Bft) 97,87 %
18.10.2016 11:26 10,8 C 97 % 1021,9 hPa 0,0 l/m 1,9 km/h (1 Bft) NO 44 0 min 0,000 mm 0,5 UV-I 108 W/m 10,3 C 10,8 C 3,2 km/h (1 Bft) 100,00 %
18.10.2016 11:28 10,8 C 97 % 1021,9 hPa 0,0 l/m 0,0 km/h (0 Bft) NO 44 0 min 0,000 mm 0,5 UV-I 109 W/m 10,3 C 10,8 C 1,6 km/h (1 Bft) 100,00 %
18.10.2016 11:30 10,8 C 96 % 1022,0 hPa 0,0 l/m 0,0 km/h (0 Bft) NO 44 0 min 0,000 mm 0,5 UV-I 112 W/m 10,2 C 10,8 C 0,0 km/h (0 Bft) 100,00 %
18.10.2016 11:32 10,8 C 96 % 1022,0 hPa 0,0 l/m 0,0 km/h (0 Bft) NO 44 0 min 0,000 mm 0,5 UV-I 109 W/m 10,2 C 10,8 C 0,0 km/h (0 Bft) 100,00 %
18.10.2016 11:34 10,8 C 96 % 1022,0 hPa 0,0 l/m 0,0 km/h (0 Bft) NO 44 0 min 0,000 mm 0,0 UV-I 88 W/m 10,2 C 10,8 C 0,0 km/h (0 Bft) 100,00 %
18.10.2016 11:36 10,9 C 96 % 1022,0 hPa 0,0 l/m 0,3 km/h (0 Bft) NO 44 0 min 0,000 mm 0,0 UV-I 83 W/m 10,3 C 10,9 C 1,6 km/h (1 Bft) 100,00 %
18.10.2016 11:38 10,9 C 97 % 1022,0 hPa 0,0 l/m 1,7 km/h (1 Bft) NO 44 0 min 0,000 mm 0,0 UV-I 85 W/m 10,4 C 10,9 C 3,2 km/h (1 Bft) 100,00 %
18.10.2016 11:40 10,9 C 96 % 1022,0 hPa 0,0 l/m 0,7 km/h (0 Bft) NO 44 0 min 0,000 mm 0,0 UV-I 86 W/m 10,3 C 10,9 C 1,6 km/h (1 Bft) 100,00 %
18.10.2016 11:42 11,0 C 96 % 1022,0 hPa 0,0 l/m 0,0 km/h (0 Bft) NO 44 0 min 0,000 mm 0,0 UV-I 88 W/m 10,4 C 11,0 C 0,0 km/h (0 Bft) 94,59 %
18.10.2016 11:44 11,0 C 96 % 1022,0 hPa 0,0 l/m 0,0 km/h (0 Bft) NO 44 0 min 0,000 mm 0,0 UV-I 81 W/m 10,4 C 11,0 C 0,0 km/h (0 Bft) 97,87 %
18.10.2016 11:46 10,9 C 96 % 1021,9 hPa 0,0 l/m 0,0 km/h (0 Bft) NO 44 0 min 0,000 mm 0,0 UV-I 73 W/m 10,3 C 10,9 C 1,6 km/h (1 Bft) 95,74 %
18.10.2016 11:48 11,0 C 96 % 1022,0 hPa 0,0 l/m 0,0 km/h (0 Bft) NO 44 0 min 0,000 mm 0,0 UV-I 75 W/m 10,4 C 11,0 C 0,0 km/h (0 Bft) 97,87 %
18.10.2016 11:50 10,9 C 96 % 1022,0 hPa 0,0 l/m 0,0 km/h (0 Bft) NO 44 0 min 0,000 mm 0,0 UV-I 71 W/m 10,3 C 10,9 C 0,0 km/h (0 Bft) 97,87 %
18.10.2016 11:52 10,9 C 96 % 1022,0 hPa 0,0 l/m 0,0 km/h (0 Bft) NO 44 0 min 0,000 mm 0,0 UV-I 64 W/m 10,3 C 10,9 C 0,0 km/h (0 Bft) 97,87 %
18.10.2016 11:54 11,0 C 96 % 1022,0 hPa 0,0 l/m 0,0 km/h (0 Bft) NO 44 0 min 0,000 mm 0,0 UV-I 67 W/m 10,4 C 11,0 C 0,0 km/h (0 Bft) 97,87 %
18.10.2016 11:56 10,9 C 96 % 1022,0 hPa 0,0 l/m 0,0 km/h (0 Bft) NO 44 0 min 0,000 mm 0,0 UV-I 69 W/m 10,3 C 10,9 C 0,0 km/h (0 Bft) 97,87 %
18.10.2016 11:58 11,0 C 96 % 1022,0 hPa 0,0 l/m 0,0 km/h (0 Bft) NO 44 0 min 0,000 mm 0,0 UV-I 60 W/m 10,4 C 11,0 C 0,0 km/h (0 Bft) 97,92 %
18.10.2016 12:00 11,0 C 96 % 1022,0 hPa 0,0 l/m 0,0 km/h (0 Bft) NO 44 0 min 0,051 mm 0,0 UV-I 48 W/m 10,4 C 11,0 C 0,0 km/h (0 Bft) 97,87 %
18.10.2016 12:02 11,0 C 96 % 1022,0 hPa 0,0 l/m 0,1 km/h (0 Bft) NO 44 0 min 0,000 mm 0,0 UV-I 48 W/m 10,4 C 11,0 C 1,6 km/h (1 Bft) 95,74 %
18.10.2016 12:04 11,0 C 96 % 1022,0 hPa 0,0 l/m 0,0 km/h (0 Bft) NO 44 0 min 0,000 mm 0,0 UV-I 63 W/m 10,4 C 11,0 C 0,0 km/h (0 Bft) 95,74 %
18.10.2016 12:06 11,0 C 96 % 1022,0 hPa 0,0 l/m 0,0 km/h (0 Bft) NO 44 0 min 0,000 mm 0,0 UV-I 72 W/m 10,4 C 11,0 C 0,0 km/h (0 Bft) 95,74 %
18.10.2016 12:08 11,1 C 96 % 1022,0 hPa 0,0 l/m 0,0 km/h (0 Bft) NO 44 0 min 0,000 mm 0,0 UV-I 69 W/m 10,5 C 11,1 C 0,0 km/h (0 Bft) 98,00 %
18.10.2016 12:10 11,1 C 96 % 1022,0 hPa 0,0 l/m 0,0 km/h (0 Bft) NO 44 0 min 0,000 mm 0,0 UV-I 71 W/m 10,5 C 11,1 C 0,0 km/h (0 Bft) 97,87 %
18.10.2016 12:12 11,1 C 96 % 1021,9 hPa 0,0 l/m 0,0 km/h (0 Bft) NO 44 0 min 0,000 mm 0,0 UV-I 76 W/m 10,5 C 11,1 C 0,0 km/h (0 Bft) 97,87 %
18.10.2016 12:14 11,1 C 96 % 1021,9 hPa 0,0 l/m 0,1 km/h (0 Bft) NO 44 0 min 0,000 mm 0,0 UV-I 83 W/m 10,5 C 11,1 C 1,6 km/h (1 Bft) 97,87 %
18.10.2016 12:16 11,1 C 96 % 1022,0 hPa 0,0 l/m 0,0 km/h (0 Bft) NO 44 0 min 0,000 mm 0,0 UV-I 76 W/m 10,5 C 11,1 C 0,0 km/h (0 Bft) 97,87 %
18.10.2016 12:18 11,1 C 96 % 1021,9 hPa 0,0 l/m 0,6 km/h (0 Bft) NO 44 0 min 0,000 mm 0,0 UV-I 59 W/m 10,5 C 11,1 C 1,6 km/h (1 Bft) 93,62 %
18.10.2016 12:20 11,1 C 96 % 1022,0 hPa 0,0 l/m 0,4 km/h (0 Bft) NO 44 0 min 0,000 mm 0,0 UV-I 53 W/m 10,5 C 11,1 C 1,6 km/h (1 Bft) 100,00 %
18.10.2016 12:22 11,1 C 96 % 1022,0 hPa 0,0 l/m 0,3 km/h (0 Bft) NO 44 0 min 0,000 mm 0,0 UV-I 57 W/m 10,5 C 11,1 C 1,6 km/h (1 Bft) 100,00 %
18.10.2016 12:24 11,1 C 96 % 1022,0 hPa 0,0 l/m 1,5 km/h (1 Bft) NO 44 0 min 0,000 mm 0,0 UV-I 63 W/m 10,5 C 11,1 C 3,2 km/h (1 Bft) 100,00 %
18.10.2016 12:26 11,1 C 96 % 1021,9 hPa 0,0 l/m 0,3 km/h (0 Bft) NO 44 0 min 0,000 mm 0,0 UV-I 66 W/m 10,5 C 11,1 C 1,6 km/h (1 Bft) 98,00 %
18.10.2016 12:28 11,1 C 96 % 1021,9 hPa 0,0 l/m 0,6 km/h (0 Bft) NO 44 0 min 0,000 mm 0,0 UV-I 73 W/m 10,5 C 11,1 C 1,6 km/h (1 Bft) 97,87 %
18.10.2016 12:30 11,2 C 97 % 1021,9 hPa 0,0 l/m 1,3 km/h (1 Bft) NO 44 0 min 0,000 mm 0,0 UV-I 82 W/m 10,7 C 11,2 C 3,2 km/h (1 Bft) 100,00 %
18.10.2016 12:32 11,2 C 96 % 1021,9 hPa 0,0 l/m 0,2 km/h (0 Bft) NO 44 0 min 0,000 mm 0,1 UV-I 90 W/m 10,6 C 11,2 C 1,6 km/h (1 Bft) 100,00 %
18.10.2016 12:34 11,1 C 96 % 1021,8 hPa 0,0 l/m 1,1 km/h (1 Bft) NO 44 0 min 0,000 mm 0,5 UV-I 95 W/m 10,5 C 11,1 C 1,6 km/h (1 Bft) 100,00 %
18.10.2016 12:36 11,3 C 96 % 1021,8 hPa 0,0 l/m 1,5 km/h (1 Bft) NO 44 0 min 0,000 mm 0,5 UV-I 103 W/m 10,7 C 11,3 C 3,2 km/h (1 Bft) 100,00 %
18.10.2016 12:38 11,2 C 96 % 1021,8 hPa 0,0 l/m 1,2 km/h (1 Bft) NO 44 0 min 0,000 mm 0,5 UV-I 105 W/m 10,6 C 11,2 C 3,2 km/h (1 Bft) 97,92 %
18.10.2016 12:40 11,3 C 96 % 1021,8 hPa 0,0 l/m 0,7 km/h (0 Bft) NO 44 0 min 0,000 mm 0,5 UV-I 103 W/m 10,7 C 11,3 C 1,6 km/h (1 Bft) 100,00 %
18.10.2016 12:42 11,2 C 96 % 1021,8 hPa 0,0 l/m 0,0 km/h (0 Bft) NO 44 0 min 0,000 mm 0,5 UV-I 100 W/m 10,6 C 11,2 C 0,0 km/h (0 Bft) 100,00 %
18.10.2016 12:44 11,2 C 96 % 1021,8 hPa 0,0 l/m 0,0 km/h (0 Bft) NO 44 0 min 0,000 mm 0,5 UV-I 107 W/m 10,6 C 11,2 C 0,0 km/h (0 Bft) 100,00 %
18.10.2016 12:46 11,2 C 96 % 1021,7 hPa 0,0 l/m 0,0 km/h (0 Bft) NO 44 0 min 0,000 mm 0,6 UV-I 114 W/m 10,6 C 11,2 C 0,0 km/h (0 Bft) 100,00 %
18.10.2016 12:48 11,2 C 96 % 1021,7 hPa 0,0 l/m 0,0 km/h (0 Bft) NO 44 0 min 0,000 mm 0,6 UV-I 122 W/m 10,6 C 11,2 C 1,6 km/h (1 Bft) 100,00 %
18.10.2016 12:50 11,3 C 96 % 1021,7 hPa 0,0 l/m 0,7 km/h (0 Bft) NO 44 0 min 0,000 mm 0,7 UV-I 129 W/m 10,7 C 11,3 C 1,6 km/h (1 Bft) 100,00 %
18.10.2016 12:52 11,3 C 96 % 1021,7 hPa 0,0 l/m 0,0 km/h (0 Bft) NO 44 0 min 0,000 mm 0,7 UV-I 130 W/m 10,7 C 11,3 C 0,0 km/h (0 Bft) 95,74 %
18.10.2016 12:54 11,3 C 96 % 1021,7 hPa 0,0 l/m 0,3 km/h (0 Bft) NO 44 0 min 0,000 mm 0,7 UV-I 134 W/m 10,7 C 11,3 C 1,6 km/h (1 Bft) 100,00 %
18.10.2016 12:56 11,4 C 96 % 1021,6 hPa 0,0 l/m 0,0 km/h (0 Bft) NO 44 0 min 0,000 mm 0,7 UV-I 136 W/m 10,8 C 11,4 C 0,0 km/h (0 Bft) 97,87 %
18.10.2016 12:58 11,4 C 95 % 1021,6 hPa 0,0 l/m 0,1 km/h (0 Bft) NO 44 0 min 0,000 mm 0,7 UV-I 132 W/m 10,6 C 11,4 C 1,6 km/h (1 Bft) 100,00 %
18.10.2016 13:00 11,4 C 95 % 1021,6 hPa 0,0 l/m 0,0 km/h (0 Bft) NO 44 0 min 0,000 mm 0,7 UV-I 130 W/m 10,6 C 11,4 C 0,0 km/h (0 Bft) 100,00 %
18.10.2016 13:02 11,5 C 96 % 1021,6 hPa 0,0 l/m 0,0 km/h (0 Bft) NO 44 0 min 0,050 mm 0,7 UV-I 129 W/m 10,9 C 11,5 C 0,0 km/h (0 Bft) 97,87 %
18.10.2016 13:04 11,6 C 96 % 1021,6 hPa 0,0 l/m 0,0 km/h (0 Bft) NO 44 0 min 0,000 mm 0,6 UV-I 122 W/m 11,0 C 11,6 C 0,0 km/h (0 Bft) 97,87 %
18.10.2016 13:06 11,6 C 95 % 1021,6 hPa 0,0 l/m 0,0 km/h (0 Bft) NO 44 0 min 0,000 mm 0,6 UV-I 113 W/m 10,8 C 11,6 C 0,0 km/h (0 Bft) 100,00 %
18.10.2016 13:08 11,6 C 95 % 1021,7 hPa 0,0 l/m 0,0 km/h (0 Bft) NO 44 0 min 0,000 mm 0,5 UV-I 101 W/m 10,8 C 11,6 C 0,0 km/h (0 Bft) 98,00 %
18.10.2016 13:10 11,6 C 95 % 1021,6 hPa 0,0 l/m 0,0 km/h (0 Bft) NO 44 0 min 0,000 mm 0,5 UV-I 102 W/m 10,8 C 11,6 C 0,0 km/h (0 Bft) 100,00 %
18.10.2016 13:12 11,6 C 95 % 1021,6 hPa 0,0 l/m 0,0 km/h (0 Bft) NO 44 0 min 0,000 mm 0,5 UV-I 106 W/m 10,8 C 11,6 C 0,0 km/h (0 Bft) 100,00 %
18.10.2016 13:14 11,6 C 95 % 1021,6 hPa 0,0 l/m 0,4 km/h (0 Bft) NO 44 0 min 0,000 mm 0,5 UV-I 104 W/m 10,8 C 11,6 C 3,2 km/h (1 Bft) 100,00 %
18.10.2016 13:16 11,6 C 95 % 1021,6 hPa 0,0 l/m 1,6 km/h (1 Bft) NO 44 0 min 0,000 mm 0,6 UV-I 113 W/m 10,8 C 11,6 C 3,2 km/h (1 Bft) 97,87 %
18.10.2016 13:18 11,6 C 95 % 1021,6 hPa 0,0 l/m 1,4 km/h (1 Bft) NO 44 0 min 0,000 mm 0,6 UV-I 125 W/m 10,8 C 11,6 C 3,2 km/h (1 Bft) 100,00 %
18.10.2016 13:20 11,7 C 95 % 1021,6 hPa 0,0 l/m 1,9 km/h (1 Bft) NO 44 0 min 0,000 mm 0,6 UV-I 132 W/m 10,9 C 11,7 C 3,2 km/h (1 Bft) 97,92 %
18.10.2016 13:22 11,7 C 95 % 1021,6 hPa 0,0 l/m 2,3 km/h (1 Bft) NO 44 0 min 0,000 mm 0,6 UV-I 133 W/m 10,9 C 11,7 C 3,2 km/h (1 Bft) 95,74 %
18.10.2016 13:24 11,8 C 95 % 1021,6 hPa 0,0 l/m 1,6 km/h (1 Bft) NO 44 0 min 0,000 mm 0,6 UV-I 127 W/m 11,0 C 11,8 C 3,2 km/h (1 Bft) 100,00 %
18.10.2016 13:26 11,7 C 95 % 1021,5 hPa 0,0 l/m 1,9 km/h (1 Bft) NO 44 0 min 0,000 mm 0,6 UV-I 124 W/m 10,9 C 11,7 C 3,2 km/h (1 Bft) 100,00 %
18.10.2016 13:28 11,7 C 95 % 1021,5 hPa 0,0 l/m 2,1 km/h (1 Bft) NO 44 0 min 0,000 mm 0,6 UV-I 122 W/m 10,9 C 11,7 C 3,2 km/h (1 Bft) 97,87 %
18.10.2016 13:30 11,7 C 95 % 1021,6 hPa 0,0 l/m 2,2 km/h (1 Bft) NO 44 0 min 0,000 mm 0,5 UV-I 120 W/m 10,9 C 11,7 C 4,8 km/h (1 Bft) 100,00 %
18.10.2016 13:32 11,7 C 95 % 1021,5 hPa 0,0 l/m 1,0 km/h (0 Bft) NO 44 0 min 0,000 mm 0,5 UV-I 114 W/m 10,9 C 11,7 C 3,2 km/h (1 Bft) 100,00 %
18.10.2016 13:34 11,7 C 95 % 1021,5 hPa 0,0 l/m 1,3 km/h (1 Bft) NO 44 0 min 0,000 mm 0,5 UV-I 113 W/m 10,9 C 11,7 C 3,2 km/h (1 Bft) 100,00 %
18.10.2016 13:36 11,8 C 95 % 1021,5 hPa 0,0 l/m 0,9 km/h (0 Bft) NO 44 0 min 0,000 mm 0,5 UV-I 110 W/m 11,0 C 11,8 C 3,2 km/h (1 Bft) 98,00 %
18.10.2016 13:38 11,8 C 95 % 1021,5 hPa 0,0 l/m 0,1 km/h (0 Bft) NO 44 0 min 0,000 mm 0,5 UV-I 102 W/m 11,0 C 11,8 C 1,6 km/h (1 Bft) 100,00 %
18.10.2016 13:40 11,8 C 95 % 1021,5 hPa 0,0 l/m 1,9 km/h (1 Bft) NO 44 0 min 0,000 mm 0,1 UV-I 96 W/m 11,0 C 11,8 C 3,2 km/h (1 Bft) 100,00 %
18.10.2016 13:42 11,8 C 95 % 1021,6 hPa 0,0 l/m 1,7 km/h (1 Bft) NO 44 0 min 0,000 mm 0,1 UV-I 97 W/m 11,0 C 11,8 C 3,2 km/h (1 Bft) 100,00 %
18.10.2016 13:44 11,8 C 95 % 1021,5 hPa 0,0 l/m 1,7 km/h (1 Bft) NO 44 0 min 0,000 mm 0,5 UV-I 101 W/m 11,0 C 11,8 C 3,2 km/h (1 Bft) 100,00 %
18.10.2016 13:46 11,8 C 95 % 1021,5 hPa 0,0 l/m 0,1 km/h (0 Bft) NO 44 0 min 0,000 mm 0,5 UV-I 104 W/m 11,0 C 11,8 C 1,6 km/h (1 Bft) 100,00 %
18.10.2016 13:48 11,9 C 95 % 1021,4 hPa 0,0 l/m 0,1 km/h (0 Bft) NO 44 0 min 0,000 mm 0,5 UV-I 107 W/m 11,1 C 11,9 C 1,6 km/h (1 Bft) 100,00 %
18.10.2016 13:50 11,9 C 95 % 1021,4 hPa 0,0 l/m 0,0 km/h (0 Bft) NO 44 0 min 0,000 mm 0,5 UV-I 111 W/m 11,1 C 11,9 C 1,6 km/h (1 Bft) 97,87 %
18.10.2016 13:52 11,9 C 95 % 1021,4 hPa 0,0 l/m 0,3 km/h (0 Bft) NO 44 0 min 0,000 mm 0,3 UV-I 105 W/m 11,1 C 11,9 C 1,6 km/h (1 Bft) 97,87 %
18.10.2016 13:54 11,9 C 95 % 1021,4 hPa 0,0 l/m 1,8 km/h (1 Bft) NO 44 0 min 0,000 mm 0,1 UV-I 102 W/m 11,1 C 11,9 C 3,2 km/h (1 Bft) 97,87 %
18.10.2016 13:56 11,9 C 95 % 1021,4 hPa 0,0 l/m 0,8 km/h (0 Bft) NO 44 0 min 0,000 mm 0,5 UV-I 105 W/m 11,1 C 11,9 C 3,2 km/h (1 Bft) 95,74 %
18.10.2016 13:58 11,9 C 95 % 1021,4 hPa 0,0 l/m 0,3 km/h (0 Bft) NO 44 0 min 0,000 mm 0,5 UV-I 104 W/m 11,1 C 11,9 C 1,6 km/h (1 Bft) 91,67 %
18.10.2016 14:00 11,9 C 95 % 1021,4 hPa 0,0 l/m 0,3 km/h (0 Bft) NO 44 0 min 0,051 mm 0,5 UV-I 105 W/m 11,1 C 11,9 C 3,2 km/h (1 Bft) 98,11 %
18.10.2016 14:02 12,0 C 95 % 1021,4 hPa 0,0 l/m 0,5 km/h (0 Bft) NO 44 0 min 0,000 mm 0,4 UV-I 103 W/m 11,2 C 12,0 C 3,2 km/h (1 Bft) 97,87 %
18.10.2016 14:04 12,0 C 95 % 1021,4 hPa 0,0 l/m 1,6 km/h (1 Bft) NO 44 0 min 0,000 mm 0,0 UV-I 99 W/m 11,2 C 12,0 C 3,2 km/h (1 Bft) 93,62 %
18.10.2016 14:06 12,0 C 95 % 1021,3 hPa 0,0 l/m 3,2 km/h (1 Bft) NO 44 0 min 0,000 mm 0,5 UV-I 105 W/m 11,2 C 12,0 C 4,8 km/h (1 Bft) 95,74 %
18.10.2016 14:08 11,9 C 95 % 1021,3 hPa 0,0 l/m 1,8 km/h (1 Bft) NO 44 0 min 0,000 mm 0,5 UV-I 110 W/m 11,1 C 11,9 C 3,2 km/h (1 Bft) 95,74 %
18.10.2016 14:10 12,0 C 95 % 1021,3 hPa 0,0 l/m 1,3 km/h (1 Bft) NO 44 0 min 0,000 mm 0,5 UV-I 110 W/m 11,2 C 12,0 C 3,2 km/h (1 Bft) 97,87 %
18.10.2016 14:12 11,9 C 95 % 1021,2 hPa 0,0 l/m 3,1 km/h (1 Bft) NO 44 0 min 0,000 mm 0,4 UV-I 101 W/m 11,1 C 11,9 C 4,8 km/h (1 Bft) 95,74 %
18.10.2016 14:14 11,9 C 95 % 1021,3 hPa 0,0 l/m 2,6 km/h (1 Bft) NO 43 0 min 0,000 mm 0,0 UV-I 94 W/m 11,1 C 11,9 C 4,8 km/h (1 Bft) 97,87 %
18.10.2016 14:16 12,0 C 95 % 1021,2 hPa 0,0 l/m 3,0 km/h (1 Bft) NO 40 0 min 0,000 mm 0,0 UV-I 83 W/m 11,2 C 12,0 C 4,8 km/h (1 Bft) 97,87 %
18.10.2016 14:18 12,0 C 95 % 1021,2 hPa 0,0 l/m 3,5 km/h (1 Bft) NO 34 0 min 0,000 mm 0,0 UV-I 72 W/m 11,2 C 12,0 C 6,4 km/h (2 Bft) 95,74 %
18.10.2016 14:20 11,9 C 95 % 1021,2 hPa 0,0 l/m 2,6 km/h (1 Bft) N-NO 19 0 min 0,000 mm 0,0 UV-I 64 W/m 11,1 C 11,9 C 4,8 km/h (1 Bft) 95,74 %
18.10.2016 14:22 11,9 C 95 % 1021,2 hPa 0,0 l/m 3,3 km/h (1 Bft) N-NO 17 0 min 0,000 mm 0,0 UV-I 64 W/m 11,1 C 11,9 C 4,8 km/h (1 Bft) 97,87 %
18.10.2016 14:24 11,8 C 95 % 1021,2 hPa 0,0 l/m 3,5 km/h (1 Bft) N-NO 21 0 min 0,000 mm 0,0 UV-I 75 W/m 11,0 C 11,8 C 4,8 km/h (1 Bft) 100,00 %
18.10.2016 14:26 11,8 C 95 % 1021,2 hPa 0,0 l/m 1,7 km/h (1 Bft) N-NO 21 0 min 0,000 mm 0,0 UV-I 85 W/m 11,0 C 11,8 C 3,2 km/h (1 Bft) 100,00 %
18.10.2016 14:28 11,8 C 95 % 1021,2 hPa 0,0 l/m 0,3 km/h (0 Bft) N-NO 15 0 min 0,000 mm 0,0 UV-I 91 W/m 11,0 C 11,8 C 1,6 km/h (1 Bft) 100,00 %
18.10.2016 14:30 11,9 C 95 % 1021,2 hPa 0,0 l/m 0,8 km/h (0 Bft) N 10 0 min 0,000 mm 0,0 UV-I 94 W/m 11,1 C 11,9 C 3,2 km/h (1 Bft) 100,00 %
18.10.2016 14:32 11,9 C 95 % 1021,2 hPa 0,0 l/m 2,7 km/h (1 Bft) N 9 0 min 0,000 mm 0,0 UV-I 95 W/m 11,1 C 11,9 C 4,8 km/h (1 Bft) 95,74 %
18.10.2016 14:34 11,8 C 95 % 1021,1 hPa 0,0 l/m 1,6 km/h (1 Bft) N-NO 19 0 min 0,000 mm 0,0 UV-I 95 W/m 11,0 C 11,8 C 4,8 km/h (1 Bft) 100,00 %
18.10.2016 14:36 11,8 C 95 % 1021,1 hPa 0,0 l/m 2,7 km/h (1 Bft) N-NO 24 0 min 0,000 mm 0,0 UV-I 90 W/m 11,0 C 11,8 C 6,4 km/h (2 Bft) 100,00 %
18.10.2016 14:38 11,8 C 95 % 1021,1 hPa 0,0 l/m 3,0 km/h (1 Bft) N-NO 12 0 min 0,000 mm 0,0 UV-I 85 W/m 11,0 C 11,8 C 6,4 km/h (2 Bft) 100,00 %
18.10.2016 14:40 11,8 C 95 % 1021,0 hPa 0,0 l/m 1,0 km/h (0 Bft) NO 38 0 min 0,000 mm 0,0 UV-I 75 W/m 11,0 C 11,8 C 3,2 km/h (1 Bft) 100,00 %
18.10.2016 14:42 11,8 C 96 % 1021,1 hPa 0,0 l/m 1,4 km/h (1 Bft) N 9 0 min 0,000 mm 0,0 UV-I 73 W/m 11,2 C 11,8 C 4,8 km/h (1 Bft) 100,00 %
18.10.2016 14:44 11,8 C 96 % 1021,0 hPa 0,0 l/m 0,3 km/h (0 Bft) N 9 0 min 0,000 mm 0,0 UV-I 81 W/m 11,2 C 11,8 C 1,6 km/h (1 Bft) 100,00 %
18.10.2016 14:46 11,8 C 96 % 1021,0 hPa 0,0 l/m 2,2 km/h (1 Bft) N-NO 30 0 min 0,000 mm 0,0 UV-I 83 W/m 11,2 C 11,8 C 6,4 km/h (2 Bft) 97,87 %
18.10.2016 14:48 11,8 C 96 % 1021,0 hPa 0,2 l/m 4,2 km/h (1 Bft) NO 36 0 min 0,000 mm 0,0 UV-I 83 W/m 11,2 C 11,8 C 6,4 km/h (2 Bft) 100,00 %
18.10.2016 14:50 11,7 C 96 % 1021,0 hPa 0,0 l/m 6,5 km/h (2 Bft) N-NO 26 0 min 0,000 mm 0,0 UV-I 79 W/m 11,1 C 11,7 C 9,7 km/h (2 Bft) 100,00 %
18.10.2016 14:52 11,7 C 96 % 1021,0 hPa 0,0 l/m 2,9 km/h (1 Bft) N-NO 32 0 min 0,000 mm 0,0 UV-I 72 W/m 11,1 C 11,7 C 6,4 km/h (2 Bft) 100,00 %
18.10.2016 14:54 11,7 C 96 % 1021,0 hPa 0,0 l/m 6,7 km/h (2 Bft) N-NO 19 0 min 0,000 mm 0,0 UV-I 66 W/m 11,1 C 11,5 C 9,7 km/h (2 Bft) 95,74 %
18.10.2016 14:56 11,7 C 96 % 1021,0 hPa 0,2 l/m 3,3 km/h (1 Bft) N-NO 32 0 min 0,000 mm 0,0 UV-I 66 W/m 11,1 C 11,7 C 8,0 km/h (2 Bft) 98,00 %
18.10.2016 14:58 11,7 C 96 % 1021,0 hPa 0,0 l/m 4,0 km/h (1 Bft) N-NO 18 0 min 0,000 mm 0,0 UV-I 57 W/m 11,1 C 11,7 C 8,0 km/h (2 Bft) 97,96 %
18.10.2016 15:00 11,7 C 96 % 1021,0 hPa 0,0 l/m 1,4 km/h (1 Bft) N 5 0 min 0,051 mm 0,0 UV-I 41 W/m 11,1 C 11,7 C 3,2 km/h (1 Bft) 100,00 %
18.10.2016 15:02 11,6 C 96 % 1021,0 hPa 0,0 l/m 1,8 km/h (1 Bft) N 5 0 min 0,000 mm 0,0 UV-I 29 W/m 11,0 C 11,6 C 3,2 km/h (1 Bft) 100,00 %
18.10.2016 15:04 11,5 C 96 % 1021,0 hPa 0,2 l/m 1,3 km/h (1 Bft) N 350 0 min 0,000 mm 0,0 UV-I 38 W/m 10,9 C 11,5 C 3,2 km/h (1 Bft) 97,87 %
18.10.2016 15:06 11,4 C 96 % 1021,0 hPa 0,2 l/m 2,4 km/h (1 Bft) N 5 0 min 0,000 mm 0,0 UV-I 46 W/m 10,8 C 11,4 C 6,4 km/h (2 Bft) 97,87 %
18.10.2016 15:08 11,3 C 96 % 1021,0 hPa 0,0 l/m 1,3 km/h (1 Bft) N-NW 328 0 min 0,000 mm 0,0 UV-I 39 W/m 10,7 C 11,3 C 3,2 km/h (1 Bft) 100,00 %
18.10.2016 15:10 11,3 C 96 % 1021,0 hPa 0,2 l/m 1,6 km/h (1 Bft) N-NO 22 0 min 0,000 mm 0,0 UV-I 40 W/m 10,7 C 11,3 C 4,8 km/h (1 Bft) 96,00 %
18.10.2016 15:12 11,3 C 97 % 1021,0 hPa 0,0 l/m 2,6 km/h (1 Bft) N-NO 12 0 min 0,000 mm 0,0 UV-I 44 W/m 10,8 C 11,3 C 4,8 km/h (1 Bft) 100,00 %
18.10.2016 15:14 11,3 C 97 % 1021,0 hPa 0,2 l/m 3,4 km/h (1 Bft) N 11 0 min 0,000 mm 0,0 UV-I 42 W/m 10,8 C 11,3 C 6,4 km/h (2 Bft) 100,00 %
18.10.2016 15:16 11,3 C 96 % 1020,9 hPa 0,0 l/m 3,2 km/h (1 Bft) N-NO 26 0 min 0,000 mm 0,0 UV-I 36 W/m 10,7 C 11,3 C 6,4 km/h (2 Bft) 100,00 %
18.10.2016 15:18 11,3 C 96 % 1020,9 hPa 0,2 l/m 4,4 km/h (1 Bft) N-NO 29 0 min 0,000 mm 0,0 UV-I 35 W/m 10,7 C 11,3 C 8,0 km/h (2 Bft) 100,00 %
18.10.2016 15:20 11,2 C 96 % 1020,9 hPa 0,0 l/m 6,1 km/h (2 Bft) N-NO 31 0 min 0,000 mm 0,0 UV-I 33 W/m 10,6 C 11,2 C 8,0 km/h (2 Bft) 100,00 %
18.10.2016 15:22 11,2 C 97 % 1020,9 hPa 0,0 l/m 4,5 km/h (1 Bft) N-NO 32 0 min 0,000 mm 0,0 UV-I 27 W/m 10,7 C 11,2 C 6,4 km/h (2 Bft) 100,00 %
18.10.2016 15:24 11,2 C 97 % 1020,9 hPa 0,2 l/m 3,2 km/h (1 Bft) N-NO 32 0 min 0,000 mm 0,0 UV-I 21 W/m 10,7 C 11,2 C 6,4 km/h (2 Bft) 100,00 %
18.10.2016 15:26 11,1 C 97 % 1021,0 hPa 0,0 l/m 2,3 km/h (1 Bft) N-NO 32 0 min 0,000 mm 0,0 UV-I 18 W/m 10,6 C 11,1 C 3,2 km/h (1 Bft) 100,00 %
18.10.2016 15:28 11,1 C 97 % 1021,0 hPa 0,0 l/m 4,2 km/h (1 Bft) N-NO 32 0 min 0,000 mm 0,0 UV-I 18 W/m 10,6 C 11,1 C 4,8 km/h (1 Bft) 97,87 %
18.10.2016 15:30 11,1 C 97 % 1020,9 hPa 0,0 l/m 2,3 km/h (1 Bft) N-NO 32 0 min 0,000 mm 0,0 UV-I 18 W/m 10,6 C 11,1 C 4,8 km/h (1 Bft) 100,00 %
18.10.2016 15:32 11,1 C 97 % 1021,0 hPa 0,0 l/m 0,8 km/h (0 Bft) N-NO 32 0 min 0,000 mm 0,0 UV-I 19 W/m 10,6 C 11,1 C 3,2 km/h (1 Bft) 100,00 %
18.10.2016 15:34 11,2 C 97 % 1020,9 hPa 0,0 l/m 0,1 km/h (0 Bft) N-NO 32 0 min 0,000 mm 0,0 UV-I 19 W/m 10,7 C 11,2 C 1,6 km/h (1 Bft) 96,00 %
18.10.2016 15:36 11,1 C 97 % 1020,9 hPa 0,2 l/m 0,3 km/h (0 Bft) N-NO 29 0 min 0,000 mm 0,0 UV-I 21 W/m 10,6 C 11,1 C 1,6 km/h (1 Bft) 97,87 %
18.10.2016 15:38 11,1 C 97 % 1021,0 hPa 0,0 l/m 0,6 km/h (0 Bft) N-NO 29 0 min 0,000 mm 0,0 UV-I 24 W/m 10,6 C 11,1 C 1,6 km/h (1 Bft) 100,00 %
18.10.2016 15:40 11,1 C 97 % 1020,9 hPa 0,2 l/m 0,7 km/h (0 Bft) N-NO 29 0 min 0,000 mm 0,0 UV-I 31 W/m 10,6 C 11,1 C 3,2 km/h (1 Bft) 100,00 %
18.10.2016 15:42 11,2 C 97 % 1020,9 hPa 0,2 l/m 2,5 km/h (1 Bft) N-NO 24 0 min 0,000 mm 0,0 UV-I 34 W/m 10,7 C 11,2 C 4,8 km/h (1 Bft) 97,87 %
18.10.2016 15:44 11,2 C 97 % 1020,9 hPa 0,2 l/m 1,4 km/h (1 Bft) N 11 0 min 0,000 mm 0,0 UV-I 38 W/m 10,7 C 11,2 C 3,2 km/h (1 Bft) 97,87 %
18.10.2016 15:46 11,2 C 97 % 1020,9 hPa 0,0 l/m 2,1 km/h (1 Bft) N 11 0 min 0,000 mm 0,0 UV-I 40 W/m 10,7 C 11,2 C 4,8 km/h (1 Bft) 97,87 %
18.10.2016 15:48 11,2 C 97 % 1020,9 hPa 0,0 l/m 2,0 km/h (1 Bft) N 11 0 min 0,000 mm 0,0 UV-I 41 W/m 10,7 C 11,2 C 4,8 km/h (1 Bft) 100,00 %
18.10.2016 15:50 11,2 C 97 % 1020,9 hPa 0,2 l/m 3,7 km/h (1 Bft) N-NO 27 0 min 0,000 mm 0,0 UV-I 45 W/m 10,7 C 11,2 C 4,8 km/h (1 Bft) 97,87 %
18.10.2016 15:52 11,2 C 97 % 1020,9 hPa 0,2 l/m 3,6 km/h (1 Bft) N-NO 32 0 min 0,000 mm 0,0 UV-I 49 W/m 10,7 C 11,2 C 4,8 km/h (1 Bft) 97,87 %
18.10.2016 15:54 11,2 C 97 % 1020,9 hPa 0,0 l/m 3,5 km/h (1 Bft) N-NO 32 0 min 0,000 mm 0,0 UV-I 55 W/m 10,7 C 11,2 C 6,4 km/h (2 Bft) 95,74 %
18.10.2016 15:56 11,2 C 97 % 1020,9 hPa 0,2 l/m 2,6 km/h (1 Bft) N-NO 32 0 min 0,000 mm 0,0 UV-I 65 W/m 10,7 C 11,2 C 3,2 km/h (1 Bft) 98,00 %
18.10.2016 15:58 11,2 C 97 % 1020,8 hPa 0,0 l/m 2,6 km/h (1 Bft) N-NO 32 0 min 0,000 mm 0,0 UV-I 77 W/m 10,7 C 11,2 C 4,8 km/h (1 Bft) 95,83 %
18.10.2016 16:00 11,2 C 97 % 1020,8 hPa 0,0 l/m 3,2 km/h (1 Bft) N-NO 32 0 min 0,000 mm 0,0 UV-I 89 W/m 10,7 C 11,2 C 4,8 km/h (1 Bft) 97,87 %
18.10.2016 16:02 11,3 C 97 % 1020,8 hPa 0,0 l/m 2,1 km/h (1 Bft) N-NO 32 0 min 0,025 mm 0,0 UV-I 99 W/m 10,8 C 11,3 C 3,2 km/h (1 Bft) 93,62 %
18.10.2016 16:04 11,3 C 97 % 1020,8 hPa 0,0 l/m 1,0 km/h (0 Bft) N-NO 32 0 min 0,000 mm 0,0 UV-I 101 W/m 10,8 C 11,3 C 3,2 km/h (1 Bft) 97,87 %
18.10.2016 16:06 11,3 C 98 % 1020,8 hPa 0,0 l/m 1,7 km/h (1 Bft) N-NO 32 0 min 0,000 mm 0,0 UV-I 102 W/m 11,0 C 11,3 C 3,2 km/h (1 Bft) 95,74 %
18.10.2016 16:08 11,3 C 97 % 1020,8 hPa 0,2 l/m 0,2 km/h (0 Bft) N-NO 32 0 min 0,000 mm 0,0 UV-I 98 W/m 10,8 C 11,3 C 1,6 km/h (1 Bft) 94,29 %
18.10.2016 16:10 11,3 C 97 % 1020,8 hPa 0,0 l/m 0,7 km/h (0 Bft) N-NO 32 0 min 0,000 mm 0,0 UV-I 91 W/m 10,8 C 11,3 C 3,2 km/h (1 Bft) 97,87 %
18.10.2016 16:12 11,3 C 97 % 1020,8 hPa 0,0 l/m 0,1 km/h (0 Bft) N-NO 32 0 min 0,000 mm 0,0 UV-I 83 W/m 10,8 C 11,3 C 1,6 km/h (1 Bft) 95,65 %
18.10.2016 16:14 11,3 C 97 % 1020,8 hPa 0,0 l/m 0,0 km/h (0 Bft) N-NO 32 0 min 0,000 mm 0,0 UV-I 74 W/m 10,8 C 11,3 C 0,0 km/h (0 Bft) 95,74 %
18.10.2016 16:16 11,4 C 97 % 1020,8 hPa 0,0 l/m 0,1 km/h (0 Bft) N-NO 32 0 min 0,000 mm 0,0 UV-I 65 W/m 10,9 C 11,4 C 1,6 km/h (1 Bft) 95,74 %
18.10.2016 16:18 11,4 C 97 % 1020,8 hPa 0,0 l/m 1,0 km/h (0 Bft) N-NO 32 0 min 0,000 mm 0,0 UV-I 62 W/m 10,9 C 11,4 C 3,2 km/h (1 Bft) 93,62 %
18.10.2016 16:20 11,4 C 97 % 1020,9 hPa 0,0 l/m 0,0 km/h (0 Bft) N-NO 32 0 min 0,000 mm 0,0 UV-I 60 W/m 10,9 C 11,4 C 1,6 km/h (1 Bft) 95,74 %
18.10.2016 16:22 11,4 C 97 % 1020,9 hPa 0,0 l/m 0,7 km/h (0 Bft) N-NO 32 0 min 0,000 mm 0,0 UV-I 56 W/m 10,9 C 11,4 C 1,6 km/h (1 Bft) 95,74 %
18.10.2016 16:24 11,4 C 97 % 1020,9 hPa 0,0 l/m 0,6 km/h (0 Bft) N-NO 32 0 min 0,000 mm 0,0 UV-I 54 W/m 10,9 C 11,4 C 1,6 km/h (1 Bft) 97,87 %
18.10.2016 16:26 11,4 C 97 % 1020,9 hPa 0,0 l/m 0,0 km/h (0 Bft) N-NO 32 0 min 0,000 mm 0,0 UV-I 54 W/m 10,9 C 11,4 C 0,0 km/h (0 Bft) 100,00 %
18.10.2016 16:28 11,4 C 97 % 1020,9 hPa 0,0 l/m 0,0 km/h (0 Bft) N-NO 32 0 min 0,000 mm 0,0 UV-I 51 W/m 10,9 C 11,4 C 1,6 km/h (1 Bft) 97,87 %
18.10.2016 16:30 11,4 C 97 % 1020,9 hPa 0,0 l/m 0,8 km/h (0 Bft) N-NO 32 0 min 0,000 mm 0,0 UV-I 52 W/m 10,9 C 11,4 C 1,6 km/h (1 Bft) 100,00 %
18.10.2016 16:32 11,4 C 97 % 1020,9 hPa 0,0 l/m 0,7 km/h (0 Bft) N-NO 32 0 min 0,000 mm 0,0 UV-I 51 W/m 10,9 C 11,4 C 3,2 km/h (1 Bft) 100,00 %
18.10.2016 16:34 11,4 C 97 % 1020,9 hPa 0,0 l/m 0,7 km/h (0 Bft) N-NO 32 0 min 0,000 mm 0,0 UV-I 52 W/m 10,9 C 11,4 C 1,6 km/h (1 Bft) 100,00 %
18.10.2016 16:36 11,4 C 97 % 1020,9 hPa 0,0 l/m 0,3 km/h (0 Bft) N-NO 32 0 min 0,000 mm 0,0 UV-I 56 W/m 10,9 C 11,4 C 1,6 km/h (1 Bft) 97,87 %
18.10.2016 16:38 11,4 C 97 % 1020,9 hPa 0,0 l/m 0,9 km/h (0 Bft) N-NO 32 0 min 0,000 mm 0,0 UV-I 51 W/m 10,9 C 11,4 C 3,2 km/h (1 Bft) 97,87 %
18.10.2016 16:40 11,4 C 97 % 1020,8 hPa 0,0 l/m 1,4 km/h (1 Bft) N-NO 32 0 min 0,000 mm 0,0 UV-I 47 W/m 10,9 C 11,4 C 3,2 km/h (1 Bft) 100,00 %
18.10.2016 16:42 11,4 C 97 % 1020,8 hPa 0,0 l/m 1,6 km/h (1 Bft) N-NO 32 0 min 0,000 mm 0,0 UV-I 47 W/m 10,9 C 11,4 C 3,2 km/h (1 Bft) 100,00 %
18.10.2016 16:44 11,4 C 97 % 1020,8 hPa 0,0 l/m 1,9 km/h (1 Bft) N-NO 32 0 min 0,000 mm 0,0 UV-I 46 W/m 10,9 C 11,4 C 3,2 km/h (1 Bft) 100,00 %
18.10.2016 16:46 11,4 C 97 % 1020,8 hPa 0,0 l/m 1,5 km/h (1 Bft) N-NO 32 0 min 0,000 mm 0,0 UV-I 45 W/m 10,9 C 11,4 C 3,2 km/h (1 Bft) 100,00 %
18.10.2016 16:48 11,4 C 97 % 1020,8 hPa 0,0 l/m 1,1 km/h (1 Bft) N-NO 13 0 min 0,000 mm 0,0 UV-I 43 W/m 10,9 C 11,4 C 3,2 km/h (1 Bft) 100,00 %
18.10.2016 16:50 11,4 C 97 % 1020,8 hPa 0,0 l/m 1,8 km/h (1 Bft) N-NO 13 0 min 0,000 mm 0,0 UV-I 38 W/m 10,9 C 11,4 C 3,2 km/h (1 Bft) 97,87 %
18.10.2016 16:52 11,4 C 97 % 1020,8 hPa 0,0 l/m 1,2 km/h (1 Bft) N-NO 13 0 min 0,000 mm 0,0 UV-I 32 W/m 10,9 C 11,4 C 3,2 km/h (1 Bft) 100,00 %
18.10.2016 16:54 11,4 C 97 % 1020,8 hPa 0,0 l/m 1,2 km/h (1 Bft) N-NO 13 0 min 0,000 mm 0,0 UV-I 29 W/m 10,9 C 11,4 C 3,2 km/h (1 Bft) 97,87 %
18.10.2016 16:56 11,4 C 97 % 1020,8 hPa 0,0 l/m 0,2 km/h (0 Bft) N-NO 13 0 min 0,000 mm 0,0 UV-I 29 W/m 10,9 C 11,4 C 1,6 km/h (1 Bft) 100,00 %
18.10.2016 16:58 11,4 C 97 % 1020,8 hPa 0,0 l/m 2,8 km/h (1 Bft) N-NO 13 0 min 0,000 mm 0,0 UV-I 26 W/m 10,9 C 11,4 C 3,2 km/h (1 Bft) 100,00 %
18.10.2016 17:00 11,4 C 97 % 1020,8 hPa 0,0 l/m 1,6 km/h (1 Bft) N-NO 13 0 min 0,026 mm 0,0 UV-I 21 W/m 10,9 C 11,4 C 3,2 km/h (1 Bft) 100,00 %
18.10.2016 17:02 11,4 C 97 % 1020,8 hPa 0,0 l/m 1,3 km/h (1 Bft) N-NO 13 0 min 0,000 mm 0,0 UV-I 16 W/m 10,9 C 11,4 C 3,2 km/h (1 Bft) 97,14 %
18.10.2016 17:04 11,4 C 97 % 1020,8 hPa 0,0 l/m 1,7 km/h (1 Bft) N-NO 13 0 min 0,000 mm 0,0 UV-I 14 W/m 10,9 C 11,4 C 3,2 km/h (1 Bft) 97,87 %
18.10.2016 17:06 11,5 C 97 % 1020,8 hPa 0,0 l/m 1,5 km/h (1 Bft) N-NO 13 0 min 0,000 mm 0,0 UV-I 14 W/m 11,0 C 11,5 C 3,2 km/h (1 Bft) 100,00 %
18.10.2016 17:08 11,5 C 97 % 1020,8 hPa 0,0 l/m 1,5 km/h (1 Bft) N-NO 13 0 min 0,000 mm 0,0 UV-I 14 W/m 11,0 C 11,5 C 3,2 km/h (1 Bft) 98,00 %
18.10.2016 17:10 11,5 C 97 % 1020,9 hPa 0,0 l/m 2,1 km/h (1 Bft) N-NO 13 0 min 0,000 mm 0,0 UV-I 12 W/m 11,0 C 11,5 C 3,2 km/h (1 Bft) 97,87 %
18.10.2016 17:12 11,5 C 97 % 1020,8 hPa 0,0 l/m 2,4 km/h (1 Bft) N-NO 13 0 min 0,000 mm 0,0 UV-I 12 W/m 11,0 C 11,5 C 3,2 km/h (1 Bft) 100,00 %
18.10.2016 17:14 11,5 C 97 % 1020,9 hPa 0,0 l/m 2,9 km/h (1 Bft) N-NO 12 0 min 0,000 mm 0,0 UV-I 12 W/m 11,0 C 11,5 C 4,8 km/h (1 Bft) 97,87 %
18.10.2016 17:16 11,5 C 97 % 1020,8 hPa 0,0 l/m 3,1 km/h (1 Bft) N-NO 12 0 min 0,000 mm 0,0 UV-I 14 W/m 11,0 C 11,5 C 4,8 km/h (1 Bft) 97,87 %
18.10.2016 17:18 11,5 C 97 % 1020,8 hPa 0,0 l/m 2,2 km/h (1 Bft) N 10 0 min 0,000 mm 0,0 UV-I 17 W/m 11,0 C 11,5 C 3,2 km/h (1 Bft) 100,00 %
18.10.2016 17:20 11,5 C 97 % 1020,8 hPa 0,0 l/m 3,1 km/h (1 Bft) N 5 0 min 0,000 mm 0,0 UV-I 21 W/m 11,0 C 11,5 C 4,8 km/h (1 Bft) 100,00 %
18.10.2016 17:22 11,5 C 97 % 1020,9 hPa 0,0 l/m 2,8 km/h (1 Bft) N 9 0 min 0,000 mm 0,0 UV-I 25 W/m 11,0 C 11,5 C 4,8 km/h (1 Bft) 97,87 %
18.10.2016 17:24 11,4 C 97 % 1020,9 hPa 0,0 l/m 2,6 km/h (1 Bft) W-SW 246 0 min 0,000 mm 0,0 UV-I 28 W/m 10,9 C 11,4 C 4,8 km/h (1 Bft) 100,00 %
18.10.2016 17:26 11,5 C 97 % 1020,8 hPa 0,0 l/m 2,2 km/h (1 Bft) W-SW 246 0 min 0,000 mm 0,0 UV-I 30 W/m 11,0 C 11,5 C 4,8 km/h (1 Bft) 100,00 %
18.10.2016 17:28 11,5 C 97 % 1020,9 hPa 0,0 l/m 2,9 km/h (1 Bft) SW 214 0 min 0,000 mm 0,0 UV-I 29 W/m 11,0 C 11,5 C 4,8 km/h (1 Bft) 100,00 %
18.10.2016 17:30 11,5 C 97 % 1020,9 hPa 0,0 l/m 2,5 km/h (1 Bft) SW 214 0 min 0,000 mm 0,0 UV-I 25 W/m 11,0 C 11,5 C 4,8 km/h (1 Bft) 97,87 %
18.10.2016 17:32 11,5 C 97 % 1020,9 hPa 0,0 l/m 2,7 km/h (1 Bft) SW 217 0 min 0,000 mm 0,0 UV-I 21 W/m 11,0 C 11,5 C 4,8 km/h (1 Bft) 95,74 %
18.10.2016 17:34 11,5 C 97 % 1020,9 hPa 0,0 l/m 2,8 km/h (1 Bft) SW 217 0 min 0,000 mm 0,0 UV-I 19 W/m 11,0 C 11,5 C 4,8 km/h (1 Bft) 100,00 %
18.10.2016 17:36 11,5 C 97 % 1020,9 hPa 0,0 l/m 2,8 km/h (1 Bft) SW 217 0 min 0,000 mm 0,0 UV-I 19 W/m 11,0 C 11,5 C 4,8 km/h (1 Bft) 95,74 %
18.10.2016 17:38 11,5 C 97 % 1020,9 hPa 0,0 l/m 2,1 km/h (1 Bft) SW 217 0 min 0,000 mm 0,0 UV-I 19 W/m 11,0 C 11,5 C 4,8 km/h (1 Bft) 100,00 %
18.10.2016 17:40 11,5 C 97 % 1020,9 hPa 0,0 l/m 3,6 km/h (1 Bft) SW 217 0 min 0,000 mm 0,0 UV-I 19 W/m 11,0 C 11,5 C 6,4 km/h (2 Bft) 100,00 %
18.10.2016 17:42 11,5 C 97 % 1020,9 hPa 0,0 l/m 1,6 km/h (1 Bft) SW 217 0 min 0,000 mm 0,0 UV-I 19 W/m 11,0 C 11,5 C 3,2 km/h (1 Bft) 97,87 %
18.10.2016 17:44 11,5 C 97 % 1020,9 hPa 0,0 l/m 2,2 km/h (1 Bft) SW 217 0 min 0,000 mm 0,0 UV-I 17 W/m 11,0 C 11,5 C 4,8 km/h (1 Bft) 100,00 %
18.10.2016 17:46 11,5 C 97 % 1020,9 hPa 0,0 l/m 2,5 km/h (1 Bft) SW 217 0 min 0,000 mm 0,0 UV-I 15 W/m 11,0 C 11,5 C 3,2 km/h (1 Bft) 95,74 %
18.10.2016 17:48 11,5 C 97 % 1020,9 hPa 0,0 l/m 2,2 km/h (1 Bft) SW 217 0 min 0,000 mm 0,0 UV-I 12 W/m 11,0 C 11,5 C 3,2 km/h (1 Bft) 100,00 %
18.10.2016 17:50 11,5 C 97 % 1021,0 hPa 0,0 l/m 3,7 km/h (1 Bft) SW 221 0 min 0,000 mm 0,0 UV-I 12 W/m 11,0 C 11,5 C 6,4 km/h (2 Bft) 93,75 %
18.10.2016 17:52 11,5 C 97 % 1020,9 hPa 0,0 l/m 2,1 km/h (1 Bft) SW 221 0 min 0,000 mm 0,0 UV-I 12 W/m 11,0 C 11,5 C 3,2 km/h (1 Bft) 94,00 %
18.10.2016 17:54 11,4 C 97 % 1021,0 hPa 0,0 l/m 2,6 km/h (1 Bft) SW 221 0 min 0,000 mm 0,0 UV-I 10 W/m 10,9 C 11,4 C 4,8 km/h (1 Bft) 95,74 %
18.10.2016 17:56 11,5 C 97 % 1021,0 hPa 0,0 l/m 2,3 km/h (1 Bft) SW 221 0 min 0,000 mm 0,0 UV-I 7 W/m 11,0 C 11,5 C 3,2 km/h (1 Bft) 97,96 %
18.10.2016 17:58 11,4 C 97 % 1021,0 hPa 0,0 l/m 2,7 km/h (1 Bft) S-SW 210 0 min 0,000 mm 0,0 UV-I 5 W/m 10,9 C 11,4 C 4,8 km/h (1 Bft) 98,00 %
18.10.2016 18:00 11,4 C 97 % 1021,0 hPa 0,0 l/m 4,6 km/h (1 Bft) SW 215 0 min 0,000 mm 0,0 UV-I 2 W/m 10,9 C 11,4 C 8,0 km/h (2 Bft) 97,87 %
18.10.2016 18:02 11,4 C 97 % 1021,0 hPa 0,0 l/m 4,9 km/h (1 Bft) W-SW 238 0 min 0,000 mm 0,0 UV-I 0 W/m 10,9 C 11,4 C 6,4 km/h (2 Bft) 97,87 %
18.10.2016 18:04 11,4 C 97 % 1021,0 hPa 0,0 l/m 4,1 km/h (1 Bft) SW 232 0 min 0,000 mm 0,0 UV-I 0 W/m 10,9 C 11,4 C 4,8 km/h (1 Bft) 91,49 %
18.10.2016 18:06 11,4 C 97 % 1021,0 hPa 0,0 l/m 4,8 km/h (1 Bft) SW 221 0 min 0,000 mm 0,0 UV-I 0 W/m 10,9 C 11,4 C 6,4 km/h (2 Bft) 97,30 %
18.10.2016 18:08 11,4 C 97 % 1021,0 hPa 0,0 l/m 4,7 km/h (1 Bft) SW 221 0 min 0,000 mm 0,0 UV-I 0 W/m 10,9 C 11,4 C 6,4 km/h (2 Bft) 95,74 %
18.10.2016 18:10 11,4 C 97 % 1021,0 hPa 0,0 l/m 4,4 km/h (1 Bft) W-SW 250 0 min 0,000 mm 0,0 UV-I 0 W/m 10,9 C 11,4 C 6,4 km/h (2 Bft) 97,87 %
18.10.2016 18:12 11,4 C 97 % 1021,0 hPa 0,0 l/m 3,7 km/h (1 Bft) W-SW 244 0 min 0,000 mm 0,0 UV-I 0 W/m 10,9 C 11,4 C 6,4 km/h (2 Bft) 97,87 %
18.10.2016 18:14 11,4 C 97 % 1021,0 hPa 0,0 l/m 4,4 km/h (1 Bft) SW 223 0 min 0,000 mm 0,0 UV-I 0 W/m 10,9 C 11,4 C 6,4 km/h (2 Bft) 98,00 %
18.10.2016 18:16 11,4 C 97 % 1021,1 hPa 0,0 l/m 5,8 km/h (2 Bft) SW 221 0 min 0,000 mm 0,0 UV-I 0 W/m 10,9 C 11,4 C 8,0 km/h (2 Bft) 97,87 %
18.10.2016 18:18 11,4 C 97 % 1021,1 hPa 0,0 l/m 5,5 km/h (1 Bft) SW 234 0 min 0,000 mm 0,0 UV-I 0 W/m 10,9 C 11,4 C 8,0 km/h (2 Bft) 95,74 %
18.10.2016 18:20 11,4 C 97 % 1021,0 hPa 0,0 l/m 5,8 km/h (2 Bft) SW 230 0 min 0,000 mm 0,0 UV-I 0 W/m 10,9 C 11,4 C 9,7 km/h (2 Bft) 97,87 %
18.10.2016 18:22 11,4 C 97 % 1021,0 hPa 0,0 l/m 4,8 km/h (1 Bft) SW 230 0 min 0,000 mm 0,0 UV-I 0 W/m 10,9 C 11,4 C 6,4 km/h (2 Bft) 97,87 %
18.10.2016 18:24 11,4 C 97 % 1021,0 hPa 0,0 l/m 4,5 km/h (1 Bft) SW 218 0 min 0,000 mm 0,0 UV-I 0 W/m 10,9 C 11,4 C 6,4 km/h (2 Bft) 98,00 %
18.10.2016 18:26 11,4 C 97 % 1021,0 hPa 0,0 l/m 4,6 km/h (1 Bft) S-SW 211 0 min 0,000 mm 0,0 UV-I 0 W/m 10,9 C 11,4 C 6,4 km/h (2 Bft) 100,00 %
18.10.2016 18:28 11,4 C 97 % 1020,9 hPa 0,0 l/m 5,9 km/h (2 Bft) S-SW 209 0 min 0,000 mm 0,0 UV-I 0 W/m 10,9 C 11,4 C 8,0 km/h (2 Bft) 100,00 %
18.10.2016 18:30 11,4 C 97 % 1020,9 hPa 0,0 l/m 5,1 km/h (1 Bft) S-SW 211 0 min 0,000 mm 0,0 UV-I 0 W/m 10,9 C 11,4 C 8,0 km/h (2 Bft) 97,87 %
18.10.2016 18:32 11,4 C 97 % 1020,9 hPa 0,0 l/m 5,8 km/h (2 Bft) SW 216 0 min 0,000 mm 0,0 UV-I 0 W/m 10,9 C 11,4 C 8,0 km/h (2 Bft) 97,87 %
18.10.2016 18:34 11,4 C 97 % 1020,9 hPa 0,0 l/m 4,7 km/h (1 Bft) S-SW 213 0 min 0,000 mm 0,0 UV-I 0 W/m 10,9 C 11,4 C 6,4 km/h (2 Bft) 97,87 %
18.10.2016 18:36 11,4 C 97 % 1020,9 hPa 0,0 l/m 5,6 km/h (1 Bft) S-SW 209 0 min 0,000 mm 0,0 UV-I 0 W/m 10,9 C 11,4 C 8,0 km/h (2 Bft) 96,00 %
18.10.2016 18:38 11,3 C 97 % 1020,9 hPa 0,0 l/m 3,7 km/h (1 Bft) S-SW 210 0 min 0,000 mm 0,0 UV-I 0 W/m 10,8 C 11,3 C 6,4 km/h (2 Bft) 100,00 %
18.10.2016 18:40 11,3 C 97 % 1020,9 hPa 0,0 l/m 4,4 km/h (1 Bft) S-SW 211 0 min 0,000 mm 0,0 UV-I 0 W/m 10,8 C 11,3 C 8,0 km/h (2 Bft) 100,00 %
18.10.2016 18:42 11,3 C 97 % 1020,9 hPa 0,0 l/m 4,1 km/h (1 Bft) S-SW 209 0 min 0,000 mm 0,0 UV-I 0 W/m 10,8 C 11,3 C 6,4 km/h (2 Bft) 100,00 %
18.10.2016 18:44 11,3 C 97 % 1021,0 hPa 0,0 l/m 6,0 km/h (2 Bft) S-SW 213 0 min 0,000 mm 0,0 UV-I 0 W/m 10,8 C 11,3 C 8,0 km/h (2 Bft) 100,00 %
18.10.2016 18:46 11,3 C 97 % 1020,9 hPa 0,0 l/m 3,5 km/h (1 Bft) S-SW 213 0 min 0,000 mm 0,0 UV-I 0 W/m 10,8 C 11,3 C 6,4 km/h (2 Bft) 100,00 %
18.10.2016 18:48 11,2 C 97 % 1021,0 hPa 0,0 l/m 4,3 km/h (1 Bft) SW 214 0 min 0,000 mm 0,0 UV-I 0 W/m 10,7 C 11,2 C 6,4 km/h (2 Bft) 100,00 %
18.10.2016 18:50 11,2 C 97 % 1021,0 hPa 0,0 l/m 3,9 km/h (1 Bft) SW 235 0 min 0,000 mm 0,0 UV-I 0 W/m 10,7 C 11,2 C 4,8 km/h (1 Bft) 100,00 %
18.10.2016 18:52 11,2 C 97 % 1021,0 hPa 0,0 l/m 3,6 km/h (1 Bft) SW 235 0 min 0,000 mm 0,0 UV-I 0 W/m 10,7 C 11,2 C 4,8 km/h (1 Bft) 97,56 %
18.10.2016 18:54 11,2 C 97 % 1021,0 hPa 0,0 l/m 4,0 km/h (1 Bft) SW 235 0 min 0,000 mm 0,0 UV-I 0 W/m 10,7 C 11,2 C 4,8 km/h (1 Bft) 100,00 %
18.10.2016 18:56 11,2 C 97 % 1020,9 hPa 0,0 l/m 3,6 km/h (1 Bft) SW 235 0 min 0,000 mm 0,0 UV-I 0 W/m 10,7 C 11,2 C 4,8 km/h (1 Bft) 97,87 %
18.10.2016 18:58 11,1 C 97 % 1020,9 hPa 0,0 l/m 3,7 km/h (1 Bft) SW 223 0 min 0,000 mm 0,0 UV-I 0 W/m 10,6 C 11,1 C 6,4 km/h (2 Bft) 100,00 %
18.10.2016 19:00 11,1 C 97 % 1020,9 hPa 0,0 l/m 3,9 km/h (1 Bft) SW 223 0 min 0,000 mm 0,0 UV-I 0 W/m 10,6 C 11,1 C 6,4 km/h (2 Bft) 97,87 %
18.10.2016 19:02 11,1 C 97 % 1021,0 hPa 0,0 l/m 3,6 km/h (1 Bft) SW 223 0 min 0,000 mm 0,0 UV-I 0 W/m 10,6 C 11,1 C 4,8 km/h (1 Bft) 100,00 %
18.10.2016 19:04 11,1 C 97 % 1021,0 hPa 0,0 l/m 4,0 km/h (1 Bft) SW 214 0 min 0,000 mm 0,0 UV-I 0 W/m 10,6 C 11,1 C 6,4 km/h (2 Bft) 97,87 %
18.10.2016 19:06 11,1 C 97 % 1021,0 hPa 0,0 l/m 3,0 km/h (1 Bft) SW 214 0 min 0,000 mm 0,0 UV-I 0 W/m 10,6 C 11,1 C 4,8 km/h (1 Bft) 100,00 %
18.10.2016 19:09 11,0 C 97 % 1021,0 hPa 0,0 l/m 3,5 km/h (1 Bft) S-SW 212 0 min 0,000 mm 0,0 UV-I 0 W/m 10,5 C 11,0 C 6,4 km/h (2 Bft) 100,00 %
18.10.2016 19:10 11,1 C 97 % 1021,0 hPa 0,0 l/m 4,0 km/h (1 Bft) S-SW 200 0 min 0,000 mm 0,0 UV-I 0 W/m 10,6 C 11,1 C 6,4 km/h (2 Bft) 96,15 %
18.10.2016 19:12 11,0 C 97 % 1021,0 hPa 0,0 l/m 4,2 km/h (1 Bft) SW 226 0 min 0,000 mm 0,0 UV-I 0 W/m 10,5 C 11,0 C 6,4 km/h (2 Bft) 100,00 %
18.10.2016 19:14 11,0 C 97 % 1021,0 hPa 0,0 l/m 3,6 km/h (1 Bft) S-SW 211 0 min 0,000 mm 0,0 UV-I 0 W/m 10,5 C 11,0 C 6,4 km/h (2 Bft) 100,00 %
18.10.2016 19:16 11,0 C 97 % 1021,0 hPa 0,0 l/m 3,7 km/h (1 Bft) S-SW 211 0 min 0,000 mm 0,0 UV-I 0 W/m 10,5 C 11,0 C 6,4 km/h (2 Bft) 100,00 %
18.10.2016 19:19 10,9 C 97 % 1021,0 hPa 0,0 l/m 4,0 km/h (1 Bft) S-SW 210 0 min 0,000 mm 0,0 UV-I 0 W/m 10,4 C 10,9 C 6,4 km/h (2 Bft) 98,57 %
18.10.2016 19:20 11,0 C 97 % 1021,0 hPa 0,0 l/m 5,0 km/h (1 Bft) SW 219 0 min 0,000 mm 0,0 UV-I 0 W/m 10,5 C 11,0 C 8,0 km/h (2 Bft) 100,00 %
18.10.2016 19:22 11,0 C 97 % 1021,0 hPa 0,0 l/m 5,4 km/h (1 Bft) S-SW 209 0 min 0,000 mm 0,0 UV-I 0 W/m 10,5 C 11,0 C 9,7 km/h (2 Bft) 100,00 %
18.10.2016 19:24 11,0 C 97 % 1021,0 hPa 0,0 l/m 5,8 km/h (2 Bft) SW 220 0 min 0,000 mm 0,0 UV-I 0 W/m 10,5 C 11,0 C 9,7 km/h (2 Bft) 100,00 %
18.10.2016 19:26 11,1 C 97 % 1021,1 hPa 0,0 l/m 5,3 km/h (1 Bft) W-SW 243 0 min 0,000 mm 0,0 UV-I 0 W/m 10,6 C 11,1 C 8,0 km/h (2 Bft) 100,00 %
18.10.2016 19:28 11,1 C 97 % 1021,0 hPa 0,0 l/m 6,5 km/h (2 Bft) S 186 0 min 0,000 mm 0,0 UV-I 0 W/m 10,6 C 11,1 C 9,7 km/h (2 Bft) 100,00 %
18.10.2016 19:30 11,1 C 97 % 1021,0 hPa 0,0 l/m 4,9 km/h (1 Bft) S-SW 205 0 min 0,000 mm 0,0 UV-I 0 W/m 10,6 C 11,1 C 9,7 km/h (2 Bft) 100,00 %
18.10.2016 19:32 11,1 C 97 % 1021,0 hPa 0,0 l/m 5,9 km/h (2 Bft) S-SW 203 0 min 0,000 mm 0,0 UV-I 0 W/m 10,6 C 11,1 C 9,7 km/h (2 Bft) 100,00 %
18.10.2016 19:34 11,1 C 97 % 1021,0 hPa 0,0 l/m 6,6 km/h (2 Bft) SW 215 0 min 0,000 mm 0,0 UV-I 0 W/m 10,6 C 11,0 C 8,0 km/h (2 Bft) 100,00 %
18.10.2016 19:36 11,1 C 97 % 1021,0 hPa 0,0 l/m 6,7 km/h (2 Bft) S-SW 210 0 min 0,000 mm 0,0 UV-I 0 W/m 10,6 C 10,9 C 9,7 km/h (2 Bft) 100,00 %
18.10.2016 19:38 11,1 C 97 % 1021,1 hPa 0,0 l/m 6,1 km/h (2 Bft) SW 227 0 min 0,000 mm 0,0 UV-I 0 W/m 10,6 C 11,1 C 8,0 km/h (2 Bft) 100,00 %
18.10.2016 19:40 11,1 C 97 % 1021,1 hPa 0,0 l/m 5,5 km/h (1 Bft) SW 215 0 min 0,000 mm 0,0 UV-I 0 W/m 10,6 C 11,1 C 8,0 km/h (2 Bft) 100,00 %
18.10.2016 19:42 11,2 C 97 % 1021,1 hPa 0,0 l/m 4,7 km/h (1 Bft) S-SW 213 0 min 0,000 mm 0,0 UV-I 0 W/m 10,7 C 11,2 C 6,4 km/h (2 Bft) 100,00 %
18.10.2016 19:44 11,2 C 97 % 1021,1 hPa 0,0 l/m 5,2 km/h (1 Bft) S-SW 204 0 min 0,000 mm 0,0 UV-I 0 W/m 10,7 C 11,2 C 8,0 km/h (2 Bft) 100,00 %
18.10.2016 19:46 11,2 C 97 % 1021,1 hPa 0,0 l/m 5,2 km/h (1 Bft) S-SW 213 0 min 0,000 mm 0,0 UV-I 0 W/m 10,7 C 11,2 C 8,0 km/h (2 Bft) 100,00 %
18.10.2016 19:48 11,2 C 97 % 1021,1 hPa 0,0 l/m 5,4 km/h (1 Bft) SW 215 0 min 0,000 mm 0,0 UV-I 0 W/m 10,7 C 11,2 C 9,7 km/h (2 Bft) 97,92 %
18.10.2016 19:50 11,2 C 97 % 1021,1 hPa 0,0 l/m 5,0 km/h (1 Bft) S-SW 213 0 min 0,000 mm 0,0 UV-I 0 W/m 10,7 C 11,2 C 8,0 km/h (2 Bft) 100,00 %
18.10.2016 19:52 11,2 C 97 % 1021,2 hPa 0,0 l/m 4,5 km/h (1 Bft) S-SW 209 0 min 0,000 mm 0,0 UV-I 0 W/m 10,7 C 11,2 C 6,4 km/h (2 Bft) 98,00 %
18.10.2016 19:54 11,2 C 97 % 1021,2 hPa 0,0 l/m 4,0 km/h (1 Bft) S-SW 209 0 min 0,000 mm 0,0 UV-I 0 W/m 10,7 C 11,2 C 6,4 km/h (2 Bft) 97,87 %
18.10.2016 19:56 11,2 C 97 % 1021,2 hPa 0,0 l/m 5,3 km/h (1 Bft) S-SW 203 0 min 0,000 mm 0,0 UV-I 0 W/m 10,7 C 11,2 C 9,7 km/h (2 Bft) 97,87 %
18.10.2016 19:58 11,2 C 97 % 1021,2 hPa 0,0 l/m 3,7 km/h (1 Bft) SW 217 0 min 0,000 mm 0,0 UV-I 0 W/m 10,7 C 11,2 C 6,4 km/h (2 Bft) 97,87 %
18.10.2016 20:00 11,2 C 97 % 1021,2 hPa 0,0 l/m 3,5 km/h (1 Bft) S-SW 211 0 min 0,000 mm 0,0 UV-I 0 W/m 10,7 C 11,2 C 6,4 km/h (2 Bft) 93,62 %
18.10.2016 20:02 11,2 C 97 % 1021,2 hPa 0,0 l/m 3,4 km/h (1 Bft) S-SW 211 0 min 0,000 mm 0,0 UV-I 0 W/m 10,7 C 11,2 C 4,8 km/h (1 Bft) 97,87 %
18.10.2016 20:04 11,2 C 97 % 1021,3 hPa 0,0 l/m 3,5 km/h (1 Bft) S-SW 211 0 min 0,000 mm 0,0 UV-I 0 W/m 10,7 C 11,2 C 4,8 km/h (1 Bft) 98,00 %
18.10.2016 20:06 11,2 C 97 % 1021,2 hPa 0,0 l/m 4,4 km/h (1 Bft) S-SW 211 0 min 0,000 mm 0,0 UV-I 0 W/m 10,7 C 11,2 C 6,4 km/h (2 Bft) 95,74 %
18.10.2016 20:08 11,2 C 97 % 1021,2 hPa 0,0 l/m 4,2 km/h (1 Bft) S-SW 210 0 min 0,000 mm 0,0 UV-I 0 W/m 10,7 C 11,2 C 6,4 km/h (2 Bft) 97,87 %
18.10.2016 20:10 11,1 C 97 % 1021,2 hPa 0,0 l/m 3,2 km/h (1 Bft) S-SW 209 0 min 0,000 mm 0,0 UV-I 0 W/m 10,6 C 11,1 C 4,8 km/h (1 Bft) 97,87 %
18.10.2016 20:12 11,1 C 97 % 1021,2 hPa 0,0 l/m 2,6 km/h (1 Bft) S-SW 210 0 min 0,000 mm 0,0 UV-I 0 W/m 10,6 C 11,1 C 4,8 km/h (1 Bft) 97,14 %
18.10.2016 20:14 11,1 C 97 % 1021,2 hPa 0,0 l/m 3,2 km/h (1 Bft) S-SW 209 0 min 0,000 mm 0,0 UV-I 0 W/m 10,6 C 11,1 C 4,8 km/h (1 Bft) 97,87 %
18.10.2016 20:16 11,1 C 97 % 1021,2 hPa 0,0 l/m 4,2 km/h (1 Bft) S-SW 209 0 min 0,000 mm 0,0 UV-I 0 W/m 10,6 C 11,1 C 8,0 km/h (2 Bft) 97,87 %
18.10.2016 20:19 11,1 C 97 % 1021,2 hPa 0,0 l/m 4,3 km/h (1 Bft) S-SW 213 0 min 0,000 mm 0,0 UV-I 0 W/m 10,6 C 11,1 C 6,4 km/h (2 Bft) 97,59 %
18.10.2016 20:20 11,2 C 97 % 1021,2 hPa 0,0 l/m 6,1 km/h (2 Bft) S-SW 212 0 min 0,000 mm 0,0 UV-I 0 W/m 10,7 C 11,2 C 6,4 km/h (2 Bft) 100,00 %
18.10.2016 20:22 11,2 C 98 % 1021,2 hPa 0,0 l/m 5,6 km/h (1 Bft) S-SW 206 0 min 0,000 mm 0,0 UV-I 0 W/m 10,9 C 11,2 C 8,0 km/h (2 Bft) 93,62 %
18.10.2016 20:24 11,2 C 97 % 1021,1 hPa 0,0 l/m 4,8 km/h (1 Bft) S-SW 213 0 min 0,000 mm 0,0 UV-I 0 W/m 10,7 C 11,2 C 6,4 km/h (2 Bft) 97,87 %
18.10.2016 20:26 11,2 C 97 % 1021,2 hPa 0,0 l/m 4,7 km/h (1 Bft) SW 222 0 min 0,000 mm 0,0 UV-I 0 W/m 10,7 C 11,2 C 8,0 km/h (2 Bft) 95,83 %
18.10.2016 20:28 11,2 C 97 % 1021,2 hPa 0,0 l/m 5,2 km/h (1 Bft) S-SW 213 0 min 0,000 mm 0,0 UV-I 0 W/m 10,7 C 11,2 C 9,7 km/h (2 Bft) 97,87 %
18.10.2016 20:30 11,2 C 97 % 1021,2 hPa 0,0 l/m 6,6 km/h (2 Bft) SW 225 0 min 0,000 mm 0,0 UV-I 0 W/m 10,7 C 11,1 C 11,3 km/h (2 Bft) 97,87 %
18.10.2016 20:32 11,2 C 97 % 1021,1 hPa 0,0 l/m 6,0 km/h (2 Bft) SW 216 0 min 0,000 mm 0,0 UV-I 0 W/m 10,7 C 11,2 C 9,7 km/h (2 Bft) 100,00 %
18.10.2016 20:34 11,2 C 97 % 1021,2 hPa 0,0 l/m 5,9 km/h (2 Bft) W-SW 242 0 min 0,000 mm 0,0 UV-I 0 W/m 10,7 C 11,2 C 8,0 km/h (2 Bft) 100,00 %
18.10.2016 20:36 11,2 C 98 % 1021,2 hPa 0,0 l/m 5,8 km/h (2 Bft) S-SW 209 0 min 0,000 mm 0,0 UV-I 0 W/m 10,9 C 11,2 C 9,7 km/h (2 Bft) 100,00 %
18.10.2016 20:38 11,2 C 98 % 1021,2 hPa 0,0 l/m 5,1 km/h (1 Bft) SW 233 0 min 0,000 mm 0,0 UV-I 0 W/m 10,9 C 11,2 C 8,0 km/h (2 Bft) 95,74 %
18.10.2016 20:40 11,2 C 98 % 1021,2 hPa 0,0 l/m 6,6 km/h (2 Bft) SW 236 0 min 0,000 mm 0,0 UV-I 0 W/m 10,9 C 11,1 C 12,9 km/h (3 Bft) 95,74 %
18.10.2016 20:42 11,2 C 98 % 1021,1 hPa 0,0 l/m 6,9 km/h (2 Bft) W-SW 246 0 min 0,000 mm 0,0 UV-I 0 W/m 10,9 C 10,9 C 9,7 km/h (2 Bft) 100,00 %
18.10.2016 20:44 11,2 C 98 % 1021,2 hPa 0,2 l/m 6,0 km/h (2 Bft) S-SW 202 0 min 0,000 mm 0,0 UV-I 0 W/m 10,9 C 11,2 C 9,7 km/h (2 Bft) 100,00 %
18.10.2016 20:46 11,2 C 98 % 1021,1 hPa 0,0 l/m 6,0 km/h (2 Bft) SW 215 0 min 0,000 mm 0,0 UV-I 0 W/m 10,9 C 11,2 C 12,9 km/h (3 Bft) 100,00 %
18.10.2016 20:48 11,2 C 98 % 1021,2 hPa 0,0 l/m 6,4 km/h (2 Bft) SW 225 0 min 0,000 mm 0,0 UV-I 0 W/m 10,9 C 11,2 C 11,3 km/h (2 Bft) 100,00 %
18.10.2016 20:50 11,2 C 97 % 1021,1 hPa 0,0 l/m 6,9 km/h (2 Bft) SW 221 0 min 0,000 mm 0,0 UV-I 0 W/m 10,7 C 10,9 C 9,7 km/h (2 Bft) 100,00 %
18.10.2016 20:52 11,2 C 98 % 1021,1 hPa 0,0 l/m 6,9 km/h (2 Bft) SW 226 0 min 0,000 mm 0,0 UV-I 0 W/m 10,9 C 10,9 C 11,3 km/h (2 Bft) 100,00 %
18.10.2016 20:54 11,2 C 98 % 1021,2 hPa 0,0 l/m 6,5 km/h (2 Bft) S-SW 210 0 min 0,000 mm 0,0 UV-I 0 W/m 10,9 C 11,2 C 9,7 km/h (2 Bft) 100,00 %
18.10.2016 20:56 11,2 C 98 % 1021,1 hPa 0,0 l/m 5,3 km/h (1 Bft) SW 228 0 min 0,000 mm 0,0 UV-I 0 W/m 10,9 C 11,2 C 8,0 km/h (2 Bft) 97,87 %
18.10.2016 20:58 11,2 C 98 % 1021,1 hPa 0,2 l/m 5,3 km/h (1 Bft) S-SO 161 0 min 0,000 mm 0,0 UV-I 0 W/m 10,9 C 11,2 C 9,7 km/h (2 Bft) 97,87 %
18.10.2016 21:00 11,1 C 97 % 1021,1 hPa 0,0 l/m 5,3 km/h (1 Bft) SW 219 0 min 0,000 mm 0,0 UV-I 0 W/m 10,6 C 11,1 C 8,0 km/h (2 Bft) 100,00 %
18.10.2016 21:03 11,1 C 97 % 1021,1 hPa 0,0 l/m 5,1 km/h (1 Bft) S-SW 203 0 min 0,000 mm 0,0 UV-I 0 W/m 10,6 C 11,1 C 9,7 km/h (2 Bft) 98,39 %
18.10.2016 21:04 11,1 C 97 % 1021,1 hPa 0,0 l/m 5,4 km/h (1 Bft) S-SW 211 0 min 0,000 mm 0,0 UV-I 0 W/m 10,6 C 11,1 C 8,0 km/h (2 Bft) 100,00 %
18.10.2016 21:06 11,1 C 97 % 1021,1 hPa 0,2 l/m 4,3 km/h (1 Bft) S-SW 208 0 min 0,000 mm 0,0 UV-I 0 W/m 10,6 C 11,1 C 6,4 km/h (2 Bft) 97,87 %
18.10.2016 21:08 11,1 C 97 % 1021,1 hPa 0,0 l/m 6,1 km/h (2 Bft) S-SW 203 0 min 0,000 mm 0,0 UV-I 0 W/m 10,6 C 11,1 C 9,7 km/h (2 Bft) 97,92 %
18.10.2016 21:10 11,1 C 97 % 1021,1 hPa 0,0 l/m 6,5 km/h (2 Bft) S 181 0 min 0,000 mm 0,0 UV-I 0 W/m 10,6 C 11,1 C 9,7 km/h (2 Bft) 100,00 %
18.10.2016 21:12 11,1 C 97 % 1021,1 hPa 0,0 l/m 5,6 km/h (1 Bft) SW 214 0 min 0,000 mm 0,0 UV-I 0 W/m 10,6 C 11,1 C 8,0 km/h (2 Bft) 100,00 %
18.10.2016 21:14 11,1 C 97 % 1021,1 hPa 0,0 l/m 4,8 km/h (1 Bft) SW 227 0 min 0,000 mm 0,0 UV-I 0 W/m 10,6 C 11,1 C 6,4 km/h (2 Bft) 100,00 %
18.10.2016 21:16 11,1 C 97 % 1021,0 hPa 0,0 l/m 4,5 km/h (1 Bft) S-SW 196 0 min 0,000 mm 0,0 UV-I 0 W/m 10,6 C 11,1 C 6,4 km/h (2 Bft) 100,00 %
18.10.2016 21:18 11,1 C 97 % 1021,0 hPa 0,0 l/m 2,5 km/h (1 Bft) S-SW 192 0 min 0,000 mm 0,0 UV-I 0 W/m 10,6 C 11,1 C 4,8 km/h (1 Bft) 100,00 %
18.10.2016 21:20 11,1 C 97 % 1021,0 hPa 0,2 l/m 3,8 km/h (1 Bft) S-SW 192 0 min 0,000 mm 0,0 UV-I 0 W/m 10,6 C 11,1 C 6,4 km/h (2 Bft) 100,00 %
18.10.2016 21:22 11,1 C 97 % 1021,0 hPa 0,0 l/m 3,2 km/h (1 Bft) S-SW 192 0 min 0,000 mm 0,0 UV-I 0 W/m 10,6 C 11,1 C 6,4 km/h (2 Bft) 100,00 %
18.10.2016 21:24 11,1 C 97 % 1021,0 hPa 0,0 l/m 4,0 km/h (1 Bft) S-SW 207 0 min 0,000 mm 0,0 UV-I 0 W/m 10,6 C 11,1 C 4,8 km/h (1 Bft) 100,00 %
18.10.2016 21:26 11,1 C 97 % 1021,0 hPa 0,0 l/m 4,3 km/h (1 Bft) S-SW 212 0 min 0,000 mm 0,0 UV-I 0 W/m 10,6 C 11,1 C 6,4 km/h (2 Bft) 97,87 %
18.10.2016 21:28 11,1 C 97 % 1021,1 hPa 0,0 l/m 5,3 km/h (1 Bft) SW 218 0 min 0,000 mm 0,0 UV-I 0 W/m 10,6 C 11,1 C 9,7 km/h (2 Bft) 100,00 %
18.10.2016 21:30 11,0 C 97 % 1021,1 hPa 0,0 l/m 6,5 km/h (2 Bft) S-SW 205 0 min 0,000 mm 0,0 UV-I 0 W/m 10,5 C 11,0 C 11,3 km/h (2 Bft) 100,00 %
18.10.2016 21:33 11,0 C 97 % 1021,1 hPa 0,0 l/m 7,2 km/h (2 Bft) S-SW 209 0 min 0,000 mm 0,0 UV-I 0 W/m 10,5 C 10,4 C 11,3 km/h (2 Bft) 100,00 %
18.10.2016 21:34 11,0 C 97 % 1021,1 hPa 0,0 l/m 8,0 km/h (2 Bft) S-SW 212 0 min 0,000 mm 0,0 UV-I 0 W/m 10,5 C 9,9 C 9,7 km/h (2 Bft) 100,00 %
18.10.2016 21:36 11,0 C 97 % 1021,1 hPa 0,0 l/m 7,3 km/h (2 Bft) SW 214 0 min 0,000 mm 0,0 UV-I 0 W/m 10,5 C 10,4 C 9,7 km/h (2 Bft) 97,87 %
18.10.2016 21:38 11,0 C 97 % 1021,1 hPa 0,0 l/m 7,0 km/h (2 Bft) S-SW 211 0 min 0,000 mm 0,0 UV-I 0 W/m 10,5 C 10,6 C 9,7 km/h (2 Bft) 100,00 %
18.10.2016 21:40 11,0 C 97 % 1021,1 hPa 0,0 l/m 6,9 km/h (2 Bft) SW 223 0 min 0,000 mm 0,0 UV-I 0 W/m 10,5 C 10,7 C 12,9 km/h (3 Bft) 100,00 %
18.10.2016 21:42 10,9 C 97 % 1021,1 hPa 0,0 l/m 7,6 km/h (2 Bft) S-SW 193 0 min 0,000 mm 0,0 UV-I 0 W/m 10,4 C 10,1 C 11,3 km/h (2 Bft) 97,87 %
18.10.2016 21:44 11,0 C 97 % 1021,2 hPa 0,0 l/m 5,6 km/h (1 Bft) S-SW 200 0 min 0,000 mm 0,0 UV-I 0 W/m 10,5 C 11,0 C 9,7 km/h (2 Bft) 100,00 %
18.10.2016 21:46 11,0 C 97 % 1021,1 hPa 0,0 l/m 4,8 km/h (1 Bft) S-SW 213 0 min 0,000 mm 0,0 UV-I 0 W/m 10,5 C 11,0 C 6,4 km/h (2 Bft) 100,00 %
18.10.2016 21:48 10,9 C 97 % 1021,2 hPa 0,0 l/m 4,1 km/h (1 Bft) SW 234 0 min 0,000 mm 0,0 UV-I 0 W/m 10,4 C 10,9 C 8,0 km/h (2 Bft) 98,00 %
18.10.2016 21:50 10,9 C 97 % 1021,2 hPa 0,0 l/m 4,0 km/h (1 Bft) SW 215 0 min 0,000 mm 0,0 UV-I 0 W/m 10,4 C 10,9 C 6,4 km/h (2 Bft) 97,87 %
18.10.2016 21:52 11,0 C 97 % 1021,2 hPa 0,0 l/m 5,4 km/h (1 Bft) S 177 0 min 0,000 mm 0,0 UV-I 0 W/m 10,5 C 11,0 C 9,7 km/h (2 Bft) 97,92 %
18.10.2016 21:54 11,0 C 97 % 1021,2 hPa 0,0 l/m 3,4 km/h (1 Bft) SW 214 0 min 0,000 mm 0,0 UV-I 0 W/m 10,5 C 11,0 C 6,4 km/h (2 Bft) 100,00 %
18.10.2016 21:56 11,0 C 97 % 1021,2 hPa 0,0 l/m 4,3 km/h (1 Bft) S-SW 207 0 min 0,000 mm 0,0 UV-I 0 W/m 10,5 C 11,0 C 6,4 km/h (2 Bft) 97,87 %
18.10.2016 21:58 11,0 C 97 % 1021,2 hPa 0,0 l/m 3,0 km/h (1 Bft) S-SW 207 0 min 0,000 mm 0,0 UV-I 0 W/m 10,5 C 11,0 C 4,8 km/h (1 Bft) 97,14 %
18.10.2016 22:00 11,0 C 97 % 1021,1 hPa 0,0 l/m 5,8 km/h (2 Bft) SW 219 0 min 0,000 mm 0,0 UV-I 0 W/m 10,5 C 11,0 C 9,7 km/h (2 Bft) 95,83 %
18.10.2016 22:02 11,0 C 97 % 1021,1 hPa 0,0 l/m 5,4 km/h (1 Bft) SW 227 0 min 0,000 mm 0,0 UV-I 0 W/m 10,5 C 11,0 C 11,3 km/h (2 Bft) 95,74 %
18.10.2016 22:06 10,9 C 97 % 1021,1 hPa 0,0 l/m 7,0 km/h (2 Bft) SW 214 0 min 0,000 mm 0,0 UV-I 0 W/m 10,4 C 10,5 C 9,7 km/h (2 Bft) 100,00 %
18.10.2016 22:08 11,0 C 97 % 1021,1 hPa 0,0 l/m 9,4 km/h (2 Bft) SW 214 0 min 0,000 mm 0,0 UV-I 0 W/m 10,5 C 9,0 C 12,9 km/h (3 Bft) 97,73 %
18.10.2016 22:10 11,0 C 97 % 1021,1 hPa 0,0 l/m 7,6 km/h (2 Bft) S-SW 211 0 min 0,000 mm 0,0 UV-I 0 W/m 10,5 C 10,2 C 11,3 km/h (2 Bft) 94,34 %
18.10.2016 22:12 11,0 C 97 % 1021,2 hPa 0,2 l/m 6,9 km/h (2 Bft) SW 232 0 min 0,000 mm 0,0 UV-I 0 W/m 10,5 C 10,7 C 9,7 km/h (2 Bft) 97,37 %
18.10.2016 22:14 11,0 C 97 % 1021,2 hPa 0,0 l/m 7,3 km/h (2 Bft) SW 223 0 min 0,000 mm 0,0 UV-I 0 W/m 10,5 C 10,4 C 9,7 km/h (2 Bft) 96,23 %
18.10.2016 22:16 11,0 C 97 % 1021,2 hPa 0,2 l/m 6,3 km/h (2 Bft) W-SW 241 0 min 0,000 mm 0,0 UV-I 0 W/m 10,5 C 11,0 C 11,3 km/h (2 Bft) 97,37 %
18.10.2016 22:18 11,0 C 97 % 1021,2 hPa 0,0 l/m 2,8 km/h (1 Bft) W-SW 241 0 min 0,000 mm 0,0 UV-I 0 W/m 10,5 C 11,0 C 4,8 km/h (1 Bft) 98,00 %
18.10.2016 22:20 11,0 C 97 % 1021,1 hPa 0,0 l/m 2,4 km/h (1 Bft) W-SW 241 0 min 0,000 mm 0,0 UV-I 0 W/m 10,5 C 11,0 C 3,2 km/h (1 Bft) 97,87 %
18.10.2016 22:22 10,9 C 97 % 1021,2 hPa 0,0 l/m 2,6 km/h (1 Bft) W-SW 241 0 min 0,000 mm 0,0 UV-I 0 W/m 10,4 C 10,9 C 4,8 km/h (1 Bft) 98,00 %
18.10.2016 22:24 11,0 C 97 % 1021,2 hPa 0,0 l/m 3,3 km/h (1 Bft) W-SW 241 0 min 0,000 mm 0,0 UV-I 0 W/m 10,5 C 11,0 C 4,8 km/h (1 Bft) 97,87 %
18.10.2016 22:26 11,0 C 97 % 1021,1 hPa 0,2 l/m 0,8 km/h (0 Bft) W-SW 241 0 min 0,000 mm 0,0 UV-I 0 W/m 10,5 C 11,0 C 3,2 km/h (1 Bft) 97,44 %
18.10.2016 22:28 11,0 C 97 % 1021,1 hPa 0,0 l/m 1,4 km/h (1 Bft) W-SW 241 0 min 0,000 mm 0,0 UV-I 0 W/m 10,5 C 11,0 C 3,2 km/h (1 Bft) 94,00 %
18.10.2016 22:30 11,0 C 97 % 1021,1 hPa 0,0 l/m 2,7 km/h (1 Bft) W-SW 241 0 min 0,000 mm 0,0 UV-I 0 W/m 10,5 C 11,0 C 4,8 km/h (1 Bft) 98,18 %
18.10.2016 22:32 10,9 C 97 % 1021,2 hPa 0,0 l/m 2,9 km/h (1 Bft) W-SW 241 0 min 0,000 mm 0,0 UV-I 0 W/m 10,4 C 10,9 C 4,8 km/h (1 Bft) 97,44 %
18.10.2016 22:34 10,9 C 97 % 1021,2 hPa 0,0 l/m 2,5 km/h (1 Bft) W-SW 241 0 min 0,000 mm 0,0 UV-I 0 W/m 10,4 C 10,9 C 4,8 km/h (1 Bft) 100,00 %
18.10.2016 22:36 10,9 C 97 % 1021,1 hPa 0,0 l/m 0,5 km/h (0 Bft) W-SW 241 0 min 0,000 mm 0,0 UV-I 0 W/m 10,4 C 10,9 C 3,2 km/h (1 Bft) 97,37 %
18.10.2016 22:38 10,9 C 97 % 1021,1 hPa 0,0 l/m 0,3 km/h (0 Bft) W-SW 241 0 min 0,000 mm 0,0 UV-I 0 W/m 10,4 C 10,9 C 1,6 km/h (1 Bft) 100,00 %
18.10.2016 22:40 10,9 C 97 % 1021,1 hPa 0,2 l/m 0,9 km/h (0 Bft) W-SW 241 0 min 0,000 mm 0,0 UV-I 0 W/m 10,4 C 10,9 C 1,6 km/h (1 Bft) 100,00 %
18.10.2016 22:42 10,9 C 97 % 1021,0 hPa 0,0 l/m 0,7 km/h (0 Bft) W-SW 241 0 min 0,000 mm 0,0 UV-I 0 W/m 10,4 C 10,9 C 1,6 km/h (1 Bft) 100,00 %
18.10.2016 22:44 10,9 C 97 % 1021,0 hPa 0,0 l/m 1,0 km/h (0 Bft) W-SW 241 0 min 0,000 mm 0,0 UV-I 0 W/m 10,4 C 10,9 C 3,2 km/h (1 Bft) 100,00 %
18.10.2016 22:46 10,9 C 97 % 1021,0 hPa 0,0 l/m 2,0 km/h (1 Bft) W-SW 241 0 min 0,000 mm 0,0 UV-I 0 W/m 10,4 C 10,9 C 3,2 km/h (1 Bft) 100,00 %
18.10.2016 22:48 10,9 C 97 % 1021,0 hPa 0,0 l/m 1,9 km/h (1 Bft) W-SW 241 0 min 0,000 mm 0,0 UV-I 0 W/m 10,4 C 10,9 C 3,2 km/h (1 Bft) 100,00 %
18.10.2016 22:50 10,9 C 97 % 1021,0 hPa 0,0 l/m 1,0 km/h (0 Bft) W-SW 241 0 min 0,000 mm 0,0 UV-I 0 W/m 10,4 C 10,9 C 3,2 km/h (1 Bft) 100,00 %
18.10.2016 22:52 10,9 C 97 % 1021,0 hPa 0,0 l/m 0,8 km/h (0 Bft) W-SW 241 0 min 0,000 mm 0,0 UV-I 0 W/m 10,4 C 10,9 C 1,6 km/h (1 Bft) 100,00 %
18.10.2016 22:54 10,9 C 98 % 1021,0 hPa 0,0 l/m 0,0 km/h (0 Bft) W-SW 241 0 min 0,000 mm 0,0 UV-I 0 W/m 10,6 C 10,9 C 0,0 km/h (0 Bft) 100,00 %
18.10.2016 22:56 10,9 C 97 % 1020,9 hPa 0,0 l/m 0,1 km/h (0 Bft) W-SW 241 0 min 0,000 mm 0,0 UV-I 0 W/m 10,4 C 10,9 C 1,6 km/h (1 Bft) 100,00 %
18.10.2016 22:58 10,8 C 97 % 1020,9 hPa 0,0 l/m 0,0 km/h (0 Bft) W-SW 241 0 min 0,000 mm 0,0 UV-I 0 W/m 10,3 C 10,8 C 0,0 km/h (0 Bft) 100,00 %
18.10.2016 23:00 10,8 C 97 % 1020,9 hPa 0,0 l/m 0,0 km/h (0 Bft) W-SW 241 0 min 0,000 mm 0,0 UV-I 0 W/m 10,3 C 10,8 C 0,0 km/h (0 Bft) 100,00 %
18.10.2016 23:02 10,8 C 97 % 1020,9 hPa 0,0 l/m 0,6 km/h (0 Bft) W-SW 241 0 min 0,000 mm 0,0 UV-I 0 W/m 10,3 C 10,8 C 1,6 km/h (1 Bft) 96,00 %
18.10.2016 23:04 10,8 C 97 % 1020,8 hPa 0,0 l/m 1,0 km/h (0 Bft) W-SW 241 0 min 0,000 mm 0,0 UV-I 0 W/m 10,3 C 10,8 C 3,2 km/h (1 Bft) 100,00 %
18.10.2016 23:06 10,8 C 97 % 1020,8 hPa 0,0 l/m 0,2 km/h (0 Bft) W-SW 241 0 min 0,000 mm 0,0 UV-I 0 W/m 10,3 C 10,8 C 1,6 km/h (1 Bft) 100,00 %
18.10.2016 23:08 10,8 C 97 % 1020,8 hPa 0,0 l/m 0,8 km/h (0 Bft) W-SW 241 0 min 0,000 mm 0,0 UV-I 0 W/m 10,3 C 10,8 C 1,6 km/h (1 Bft) 100,00 %
18.10.2016 23:10 10,8 C 97 % 1020,8 hPa 0,0 l/m 0,8 km/h (0 Bft) W-SW 241 0 min 0,000 mm 0,0 UV-I 0 W/m 10,3 C 10,8 C 3,2 km/h (1 Bft) 100,00 %
18.10.2016 23:12 10,8 C 97 % 1020,7 hPa 0,0 l/m 1,5 km/h (1 Bft) W-SW 241 0 min 0,000 mm 0,0 UV-I 0 W/m 10,3 C 10,8 C 3,2 km/h (1 Bft) 100,00 %
18.10.2016 23:14 10,8 C 97 % 1020,8 hPa 0,0 l/m 1,3 km/h (1 Bft) W-SW 241 0 min 0,000 mm 0,0 UV-I 0 W/m 10,3 C 10,8 C 3,2 km/h (1 Bft) 100,00 %
18.10.2016 23:16 10,8 C 97 % 1020,8 hPa 0,0 l/m 1,3 km/h (1 Bft) W-SW 241 0 min 0,000 mm 0,0 UV-I 0 W/m 10,3 C 10,8 C 3,2 km/h (1 Bft) 100,00 %
18.10.2016 23:18 10,8 C 97 % 1020,8 hPa 0,0 l/m 0,6 km/h (0 Bft) W-SW 241 0 min 0,000 mm 0,0 UV-I 0 W/m 10,3 C 10,8 C 1,6 km/h (1 Bft) 100,00 %
18.10.2016 23:20 10,8 C 97 % 1020,7 hPa 0,0 l/m 0,5 km/h (0 Bft) W-SW 241 0 min 0,000 mm 0,0 UV-I 0 W/m 10,3 C 10,8 C 1,6 km/h (1 Bft) 100,00 %
18.10.2016 23:22 10,8 C 97 % 1020,7 hPa 0,0 l/m 0,7 km/h (0 Bft) W-SW 241 0 min 0,000 mm 0,0 UV-I 0 W/m 10,3 C 10,8 C 1,6 km/h (1 Bft) 100,00 %
18.10.2016 23:24 10,8 C 97 % 1020,7 hPa 0,0 l/m 0,5 km/h (0 Bft) W-SW 241 0 min 0,000 mm 0,0 UV-I 0 W/m 10,3 C 10,8 C 1,6 km/h (1 Bft) 100,00 %
18.10.2016 23:26 10,8 C 97 % 1020,6 hPa 0,0 l/m 0,8 km/h (0 Bft) W-SW 241 0 min 0,000 mm 0,0 UV-I 0 W/m 10,3 C 10,8 C 3,2 km/h (1 Bft) 98,21 %
18.10.2016 23:28 10,8 C 97 % 1020,6 hPa 0,0 l/m 0,2 km/h (0 Bft) W-SW 241 0 min 0,000 mm 0,0 UV-I 0 W/m 10,3 C 10,8 C 1,6 km/h (1 Bft) 97,87 %
18.10.2016 23:30 10,8 C 97 % 1020,6 hPa 0,0 l/m 0,2 km/h (0 Bft) W-SW 241 0 min 0,000 mm 0,0 UV-I 0 W/m 10,3 C 10,8 C 1,6 km/h (1 Bft) 100,00 %
18.10.2016 23:32 10,7 C 97 % 1020,6 hPa 0,0 l/m 0,5 km/h (0 Bft) W-SW 241 0 min 0,000 mm 0,0 UV-I 0 W/m 10,2 C 10,7 C 1,6 km/h (1 Bft) 100,00 %
18.10.2016 23:34 10,7 C 97 % 1020,6 hPa 0,0 l/m 1,0 km/h (0 Bft) W-SW 241 0 min 0,000 mm 0,0 UV-I 0 W/m 10,2 C 10,7 C 3,2 km/h (1 Bft) 97,87 %
18.10.2016 23:36 10,7 C 97 % 1020,6 hPa 0,0 l/m 1,8 km/h (1 Bft) SW 217 0 min 0,000 mm 0,0 UV-I 0 W/m 10,2 C 10,7 C 3,2 km/h (1 Bft) 100,00 %
18.10.2016 23:38 10,7 C 97 % 1020,6 hPa 0,0 l/m 1,0 km/h (0 Bft) SW 217 0 min 0,000 mm 0,0 UV-I 0 W/m 10,2 C 10,7 C 3,2 km/h (1 Bft) 100,00 %
18.10.2016 23:40 10,7 C 97 % 1020,6 hPa 0,0 l/m 1,6 km/h (1 Bft) SW 217 0 min 0,000 mm 0,0 UV-I 0 W/m 10,2 C 10,7 C 4,8 km/h (1 Bft) 100,00 %
18.10.2016 23:42 10,7 C 97 % 1020,6 hPa 0,0 l/m 2,3 km/h (1 Bft) S-SW 213 0 min 0,000 mm 0,0 UV-I 0 W/m 10,2 C 10,7 C 4,8 km/h (1 Bft) 100,00 %
18.10.2016 23:44 10,7 C 97 % 1020,5 hPa 0,0 l/m 1,7 km/h (1 Bft) S 180 0 min 0,000 mm 0,0 UV-I 0 W/m 10,2 C 10,7 C 3,2 km/h (1 Bft) 100,00 %
18.10.2016 23:46 10,7 C 97 % 1020,5 hPa 0,0 l/m 2,9 km/h (1 Bft) S 173 0 min 0,000 mm 0,0 UV-I 0 W/m 10,2 C 10,7 C 4,8 km/h (1 Bft) 98,00 %
18.10.2016 23:48 10,7 C 97 % 1020,6 hPa 0,0 l/m 3,0 km/h (1 Bft) S 177 0 min 0,000 mm 0,0 UV-I 0 W/m 10,2 C 10,7 C 8,0 km/h (2 Bft) 98,00 %
18.10.2016 23:50 10,7 C 97 % 1020,5 hPa 0,0 l/m 2,4 km/h (1 Bft) S 177 0 min 0,000 mm 0,0 UV-I 0 W/m 10,2 C 10,7 C 4,8 km/h (1 Bft) 100,00 %
18.10.2016 23:52 10,7 C 97 % 1020,5 hPa 0,0 l/m 2,5 km/h (1 Bft) S 177 0 min 0,000 mm 0,0 UV-I 0 W/m 10,2 C 10,7 C 4,8 km/h (1 Bft) 97,87 %
18.10.2016 23:54 10,7 C 97 % 1020,5 hPa 0,0 l/m 2,2 km/h (1 Bft) S-SW 200 0 min 0,000 mm 0,0 UV-I 0 W/m 10,2 C 10,7 C 3,2 km/h (1 Bft) 100,00 %
18.10.2016 23:56 10,7 C 98 % 1020,5 hPa 0,0 l/m 3,2 km/h (1 Bft) S-SW 200 0 min 0,000 mm 0,0 UV-I 0 W/m 10,4 C 10,7 C 4,8 km/h (1 Bft) 95,74 %
18.10.2016 23:58 10,7 C 97 % 1020,5 hPa 0,0 l/m 2,5 km/h (1 Bft) S 189 0 min 0,000 mm 0,0 UV-I 0 W/m 10,2 C 10,7 C 4,8 km/h (1 Bft) 97,56 %
_ Min-Zeit 01:04 00:00 23:44 - 02:26 - - - - - - 00:28 02:04 02:26 06:00
Minimum _ 8,8 C 95 % 1020,5 hPa - 0,0 km/h (0 Bft) - - - - - - 8,1 C 8,8 C 0,0 km/h (0 Bft) 89,36 %
_ Max-Zeit 14:12 06:54 02:24 03:10 22:08 - - 00:00 12:00 12:50 12:56 14:02 14:02 20:40 00:18
Maximum _ 12,1 C 98 % 1022,2 hPa 0,2 l/m 9,4 km/h
SW (2 Bft)
- - 0 min 0,051 mm 0,7 UV-I 136 W/m 11,2 C 12,0 C 12,9 km/h
W-SW (3 Bft)
100,00 %
Durchschnitt _ 10,3 C 97 % 1021,5 hPa #5,6 l/m 1,9 km/h (1 Bft) O-NO - #0 min. #0,305 mm 0,5 UV-I 59 W/m 9,8 C 10,3 C 3,4 km/h (1 Bft) 98,50 %